[[{"header":{"parameterUnit":"m.s-1","parameterCategory":1,"la1":30.6,"la2":28.766,"lo1":-90.7593,"lo2":-88.6598,"dy":0.0162,"dx":0.0183,"nx":116,"ny":114,"refTime":"2024-03-07T06:00:00:Z","depth":0,"parameterNumber":2,"parameterNumberName":"U-component_of_WINDS"},"data":[0.0,0.0,0.0,0.0,0.0,0.0,0.0,0.0,0.0,0.0,0.0,0.0,0.0,0.0,0.0,0.0,0.0,0.0,0.0,0.0,0.0,0.0,0.0,0.0,0.0,0.0,0.0,0.0,0.0,0.0,0.0,0.0,0.0,0.0,0.0,0.0,0.0,0.0,0.0,0.0,0.0,0.0,0.0,0.0,0.0,0.0,0.0,0.0,0.0,0.0,0.0,0.0,0.0,0.0,0.0,0.0,0.0,0.0,0.0,0.0,0.0,0.0,0.0,0.0,0.0,0.0,0.0,0.0,0.0,0.0,0.0,0.0,0.0,0.0,0.0,0.0,0.0,0.0,0.0,0.0,0.0,0.0,0.0,0.0,0.0,0.0,0.0,0.0,0.0,0.0,0.0,0.0,0.0,0.0,0.0,0.0,0.0,0.0,0.0,0.0,0.0,0.0,0.0,0.0,0.0,0.0,0.0,0.0,0.0,0.0,0.0,0.0,0.0,0.0,0.0,0.0,0.0,0.0,0.0,0.0,0.0,0.0,0.0,0.0,0.0,0.0,0.0,0.0,0.0,0.0,0.0,0.0,0.0,0.0,0.0,0.0,0.0,0.0,0.0,0.0,0.0,0.0,0.0,0.0,0.0,0.0,0.0,0.0,0.0,0.0,0.0,0.0,0.0,0.0,0.0,0.0,0.0,0.0,0.0,0.0,0.0,0.0,0.0,0.0,0.0,0.0,0.0,0.0,0.0,0.0,0.0,0.0,0.0,0.0,0.0,0.0,0.0,0.0,0.0,0.0,0.0,0.0,0.0,0.0,0.0,0.0,0.0,0.0,0.0,0.0,0.0,0.0,0.0,0.0,0.0,0.0,0.0,0.0,0.0,0.0,0.0,0.0,0.0,0.0,0.0,0.0,0.0,0.0,0.0,0.0,0.0,0.0,0.0,0.0,0.0,0.0,0.0,0.0,0.0,0.0,0.0,0.0,0.0,0.0,0.0,0.0,0.0,0.0,0.0,0.0,0.0,0.0,0.0,0.0,0.0,0.0,0.0,0.0,0.0,0.0,0.0,0.0,0.0,0.0,0.0,0.0,0.0,0.0,0.0,0.0,0.0,0.0,0.0,0.0,0.0,0.0,0.0,0.0,0.0,0.0,0.0,0.0,0.0,0.0,0.0,0.0,0.0,0.0,0.0,0.0,0.0,0.0,0.0,0.0,0.0,0.0,0.0,0.0,0.0,0.0,0.0,0.0,0.0,0.0,0.0,0.0,0.0,0.0,0.0,0.0,0.0,0.0,0.0,0.0,0.0,0.0,0.0,0.0,0.0,0.0,0.0,0.0,0.0,0.0,0.0,0.0,0.0,0.0,0.0,0.0,0.0,0.0,0.0,0.0,0.0,0.0,0.0,0.0,0.0,0.0,0.0,0.0,0.0,0.0,0.0,0.0,0.0,0.0,0.0,0.0,0.0,0.0,0.0,0.0,0.0,0.0,0.0,0.0,0.0,0.0,0.0,0.0,0.0,0.0,0.0,0.0,0.0,0.0,0.0,0.0,0.0,0.0,0.0,0.0,0.0,0.0,0.0,0.0,0.0,0.0,0.0,0.0,0.0,0.0,0.0,0.0,0.0,0.0,0.0,0.0,0.0,0.0,0.0,0.0,0.0,0.0,0.0,0.0,0.0,0.0,0.0,0.0,0.0,0.0,0.0,0.0,0.0,0.0,0.0,0.0,0.0,0.0,0.0,0.0,0.0,0.0,0.0,0.0,0.0,0.0,0.0,0.0,0.0,0.0,0.0,0.0,0.0,0.0,0.0,0.0,0.0,0.0,0.0,0.0,0.0,0.0,0.0,0.0,0.0,0.0,0.0,0.0,0.0,0.0,0.0,0.0,0.0,0.0,0.0,0.0,0.0,0.0,0.0,0.0,0.0,0.0,0.0,0.0,0.0,0.0,0.0,0.0,0.0,0.0,0.0,0.0,0.0,0.0,0.0,0.0,0.0,0.0,0.0,0.0,0.0,0.0,0.0,0.0,0.0,0.0,0.0,0.0,0.0,0.0,0.0,0.0,0.0,0.0,0.0,0.0,0.0,0.0,0.0,0.0,0.0,0.0,0.0,0.0,0.0,0.0,0.0,0.0,0.0,0.0,0.0,0.0,0.0,0.0,0.0,0.0,0.0,0.0,0.0,0.0,0.0,0.0,0.0,0.0,0.0,0.0,0.0,0.0,0.0,0.0,0.0,0.0,0.0,0.0,0.0,0.0,0.0,0.0,0.0,0.0,0.0,0.0,0.0,0.0,0.0,0.0,0.0,0.0,0.0,0.0,0.0,0.0,0.0,0.0,0.0,0.0,0.0,0.0,0.0,0.0,0.0,0.0,0.0,0.0,0.0,0.0,0.0,0.0,0.0,0.0,0.0,0.0,0.0,0.0,0.0,0.0,0.0,0.0,0.0,0.0,0.0,0.0,0.0,0.0,0.0,0.0,0.0,0.0,0.0,0.0,0.0,0.0,0.0,0.0,0.0,0.0,0.0,0.0,0.0,0.0,0.0,0.0,0.0,0.0,0.0,0.0,0.0,0.0,0.0,0.0,0.0,0.0,0.0,0.0,0.0,0.0,0.0,0.0,0.0,0.0,0.0,0.0,0.0,0.0,0.0,0.0,0.0,0.0,0.0,0.0,0.0,0.0,0.0,0.0,0.0,0.0,0.0,0.0,0.0,0.0,0.0,0.0,0.0,0.0,0.0,0.0,0.0,0.0,0.0,0.0,0.0,0.0,0.0,0.0,0.0,0.0,0.0,0.0,0.0,0.0,0.0,0.0,0.0,0.0,0.0,0.0,0.0,0.0,0.0,0.0,0.0,0.0,0.0,0.0,0.0,0.0,0.0,0.0,0.0,0.0,0.0,0.0,0.0,0.0,0.0,0.0,0.0,0.0,0.0,0.0,0.0,0.0,0.0,0.0,0.0,0.0,0.0,0.0,0.0,0.0,0.0,0.0,0.0,0.0,0.0,0.0,0.0,0.0,0.0,0.0,0.0,0.0,0.0,0.0,0.0,0.0,0.0,0.0,0.0,0.0,0.0,0.0,0.0,0.0,0.0,0.0,0.0,0.0,0.0,0.0,0.0,0.0,0.0,0.0,0.0,0.0,0.0,0.0,0.0,0.0,0.0,0.0,0.0,0.0,0.0,0.0,0.0,0.0,0.0,0.0,0.0,0.0,0.0,0.0,0.0,0.0,0.0,0.0,0.0,0.0,0.0,0.0,0.0,0.0,0.0,0.0,0.0,0.0,0.0,0.0,0.0,0.0,0.0,0.0,0.0,0.0,0.0,0.0,0.0,0.0,0.0,0.0,0.0,0.0,0.0,0.0,0.0,0.0,0.0,0.0,0.0,0.0,0.0,0.0,0.0,0.0,0.0,0.0,0.0,0.0,0.0,0.0,0.0,0.0,0.0,0.0,0.0,0.0,0.0,0.0,0.0,0.0,0.0,0.0,0.0,0.0,0.0,0.0,0.0,0.0,0.0,0.0,0.0,0.0,0.0,0.0,0.0,0.0,0.0,0.0,0.0,0.0,0.0,0.0,0.0,0.0,0.0,0.0,0.0,0.0,0.0,0.0,0.0,0.0,0.0,0.0,0.0,0.0,0.0,0.0,0.0,0.0,0.0,0.0,0.0,0.0,0.0,0.0,0.0,0.0,0.0,0.0,0.0,0.0,0.0,0.0,0.0,0.0,0.0,0.0,0.0,0.0,0.0,0.0,0.0,0.0,0.0,0.0,0.0,0.0,0.0,0.0,0.0,0.0,0.0,0.0,0.0,0.0,0.0,0.0,0.0,0.0,0.0,0.0,0.0,0.0,0.0,0.0,0.0,0.0,0.0,0.0,0.0,0.0,0.0,0.0,0.0,0.0,0.0,0.0,0.0,0.0,0.0,0.0,0.0,0.0,0.0,0.0,0.0,0.0,0.0,0.0,0.0,0.0,0.0,0.0,0.0,0.0,0.0,0.0,0.0,0.0,0.0,0.0,0.0,0.0,0.0,0.0,0.0,0.0,0.0,0.0,0.0,0.0,0.0,0.0,0.0,0.0,0.0,0.0,0.0,0.0,0.0,0.0,0.0,0.0,0.0,0.0,0.0,0.0,0.0,0.0,0.0,0.0,0.0,0.0,0.0,0.0,0.0,0.0,0.0,0.0,0.0,0.0,0.0,0.0,0.0,0.0,0.0,0.0,0.0,0.0,0.0,0.0,0.0,0.0,0.0,0.0,0.0,0.0,0.0,0.0,0.0,0.0,0.0,0.0,0.0,0.0,0.0,0.0,0.0,0.0,0.0,0.0,0.0,0.0,0.0,0.0,0.0,0.0,0.0,0.0,0.0,0.0,0.0,0.0,0.0,0.0,0.0,0.0,0.0,0.0,0.0,0.0,0.0,0.0,0.0,0.0,0.0,0.0,0.0,0.0,0.0,0.0,0.0,0.0,0.0,0.0,0.0,0.0,0.0,0.0,0.0,0.0,0.0,0.0,0.0,0.0,0.0,0.0,0.0,0.0,0.0,0.0,0.0,0.0,0.0,0.0,0.0,0.0,0.0,0.0,0.0,0.0,0.0,0.0,0.0,0.0,0.0,0.0,0.0,0.0,0.0,0.0,0.0,0.0,0.0,0.0,0.0,0.0,0.0,0.0,0.0,0.0,0.0,0.0,0.0,0.0,0.0,0.0,0.0,0.0,0.0,0.0,0.0,0.0,0.0,0.0,0.0,0.0,0.0,0.0,0.0,0.0,0.0,0.0,0.0,0.0,0.0,0.0,0.0,0.0,0.0,0.0,0.0,0.0,0.0,0.0,0.0,0.0,0.0,0.0,0.0,0.0,0.0,0.0,0.0,0.0,0.0,0.0,0.0,0.0,0.0,0.0,0.0,0.0,0.0,0.0,0.0,0.0,0.0,0.0,0.0,0.0,0.0,0.0,0.0,0.0,0.0,0.0,0.0,0.0,0.0,0.0,0.0,0.0,0.0,0.0,0.0,0.0,0.0,0.0,0.0,0.0,0.0,0.0,0.0,0.0,0.0,0.0,0.0,0.0,0.0,0.0,0.0,0.0,0.0,0.0,0.0,0.0,0.0,0.0,0.0,0.0,0.0,0.0,0.0,0.0,0.0,0.0,0.0,0.0,0.0,0.0,0.0,0.0,0.0,0.0,0.0,0.0,0.0,0.0,0.0,0.0,0.0,0.0,0.0,0.0,0.0,0.0,0.0,0.0,0.0,0.0,0.0,0.0,0.0,0.0,0.0,0.0,0.0,0.0,0.0,0.0,0.0,0.0,0.0,0.0,0.0,0.0,0.0,0.0,0.0,0.0,0.0,0.0,0.0,0.0,0.0,0.0,0.0,0.0,0.0,0.0,0.0,0.0,0.0,0.0,0.0,0.0,0.0,0.0,0.0,0.0,0.0,0.0,0.0,0.0,0.0,0.0,0.0,0.0,0.0,0.0,0.0,0.0,0.0,0.0,0.0,0.0,0.0,0.0,0.0,0.0,0.0,0.0,0.0,0.0,0.0,0.0,0.0,0.0,0.0,0.0,0.0,0.0,0.0,0.0,0.0,0.0,0.0,0.0,0.0,0.0,0.0,0.0,0.0,0.0,0.0,0.0,0.0,0.0,0.0,0.0,0.0,0.0,0.0,0.0,0.0,0.0,0.0,0.0,0.0,0.0,0.0,0.0,0.0,0.0,0.0,0.0,0.0,0.0,0.0,0.0,0.0,0.0,0.0,0.0,0.0,0.0,0.0,0.0,0.0,0.0,0.0,0.0,0.0,0.0,0.0,0.0,0.0,0.0,0.0,0.0,0.0,0.0,0.0,0.0,0.0,0.0,0.0,0.0,0.0,0.0,0.0,0.0,0.0,0.0,0.0,0.0,0.0,0.0,0.0,0.0,0.0,0.0,0.0,0.0,0.0,0.0,0.0,0.0,0.0,0.0,0.0,0.0,0.0,0.0,0.0,0.0,0.0,0.0,0.0,0.0,0.0,0.0,0.0,0.0,0.0,0.0,0.0,0.0,0.0,0.0,0.0,0.0,0.0,0.0,0.0,0.0,0.0,0.0,0.0,0.0,0.0,0.0,-2.5526,0.0,0.0,0.0,0.0,0.0,0.0,0.0,0.0,0.0,0.0,0.0,0.0,0.0,0.0,0.0,0.0,0.0,0.0,0.0,0.0,0.0,0.0,0.0,0.0,0.0,0.0,0.0,-2.1055,-2.1151,-2.1293,-2.1709,-2.2146,-2.2523,-2.2834,-2.3258,-2.3781,-2.3864,-2.3987,-2.4122,-2.4289,-2.4429,-2.4557,-2.4639,-2.5146,0.0,0.0,0.0,0.0,0.0,0.0,0.0,0.0,0.0,0.0,0.0,0.0,0.0,0.0,0.0,0.0,0.0,0.0,0.0,0.0,0.0,0.0,0.0,0.0,0.0,0.0,0.0,0.0,0.0,0.0,0.0,0.0,0.0,0.0,0.0,0.0,0.0,0.0,0.0,0.0,0.0,0.0,0.0,0.0,0.0,0.0,0.0,0.0,0.0,0.0,0.0,0.0,0.0,0.0,0.0,0.0,0.0,0.0,0.0,0.0,0.0,0.0,0.0,0.0,0.0,0.0,0.0,0.0,0.0,0.0,0.0,0.0,-2.5526,0.0,0.0,0.0,0.0,0.0,0.0,0.0,0.0,0.0,0.0,0.0,0.0,0.0,0.0,0.0,0.0,0.0,0.0,0.0,0.0,0.0,0.0,0.0,-1.9879,-2.0104,-2.0545,-2.0613,-2.0693,-2.0952,-2.1424,-2.1799,-2.2051,-2.2602,-2.3195,-2.388,-2.3973,-2.4202,-2.4648,-2.4536,-2.4511,-2.4623,-2.4542,0.0,0.0,0.0,0.0,0.0,0.0,0.0,0.0,0.0,0.0,0.0,0.0,0.0,0.0,0.0,0.0,0.0,0.0,0.0,0.0,0.0,0.0,0.0,0.0,0.0,0.0,0.0,0.0,0.0,0.0,0.0,0.0,0.0,0.0,0.0,0.0,0.0,0.0,0.0,0.0,0.0,0.0,0.0,0.0,0.0,0.0,0.0,0.0,0.0,0.0,0.0,0.0,0.0,0.0,0.0,0.0,0.0,0.0,0.0,0.0,0.0,0.0,0.0,0.0,0.0,0.0,0.0,-2.5216,-2.5172,-2.5172,-2.512,-2.5048,-2.5323,-2.5441,-2.5454,0.0,0.0,0.0,0.0,0.0,0.0,0.0,0.0,0.0,0.0,0.0,0.0,0.0,0.0,0.0,0.0,0.0,0.0,0.0,0.0,0.0,0.0,-1.864,-1.902,-1.9702,-1.9773,-2.0264,-2.1497,-2.1657,-2.224,-2.349,-2.3632,-2.3818,-2.423,-2.4578,-2.4402,-2.3661,-2.3606,-2.3945,-2.4672,-2.4199,-2.4323,-2.495,-2.5012,0.0,0.0,0.0,0.0,0.0,0.0,0.0,0.0,0.0,0.0,0.0,0.0,0.0,0.0,0.0,0.0,0.0,0.0,0.0,0.0,0.0,0.0,0.0,0.0,0.0,0.0,0.0,0.0,0.0,0.0,0.0,0.0,0.0,0.0,0.0,0.0,0.0,0.0,0.0,0.0,0.0,0.0,0.0,-2.4564,-2.4601,0.0,0.0,0.0,0.0,0.0,0.0,0.0,0.0,0.0,0.0,0.0,0.0,0.0,0.0,-2.5307,-2.5187,-2.513,-2.513,-2.5072,-2.5082,-2.5103,-2.5103,-2.5138,-2.5173,-2.5147,0.0,-2.5236,-2.5248,0.0,0.0,0.0,0.0,0.0,0.0,0.0,0.0,0.0,0.0,0.0,0.0,0.0,0.0,0.0,0.0,0.0,0.0,0.0,0.0,0.0,-1.7773,-1.8011,-1.8335,-1.8608,-1.9199,-2.0156,-2.0592,-2.1266,-2.2268,-2.2638,-2.2935,-2.3069,-2.3172,-2.2981,-2.2441,-2.2409,-2.2532,-2.2832,-2.2891,-2.3039,-2.326,-2.3623,-2.409,-2.4623,-2.4887,0.0,0.0,0.0,0.0,0.0,0.0,0.0,0.0,0.0,0.0,0.0,0.0,0.0,0.0,0.0,0.0,0.0,0.0,0.0,0.0,0.0,0.0,0.0,0.0,0.0,0.0,0.0,0.0,0.0,0.0,0.0,0.0,0.0,0.0,0.0,0.0,0.0,0.0,0.0,-2.4866,-2.523,-2.5333,-2.574,-2.6083,0.0,0.0,0.0,0.0,0.0,0.0,0.0,0.0,0.0,-2.6388,-2.6344,-2.6344,-2.6369,-2.6308,-2.628,-2.628,-2.6239,-2.6211,-2.6174,-2.6174,-2.617,-2.6151,-2.612,-2.6159,-2.6165,-2.5475,-2.5275,-2.5385,0.0,0.0,0.0,0.0,0.0,-2.5292,0.0,0.0,0.0,0.0,0.0,0.0,0.0,0.0,0.0,0.0,0.0,0.0,-1.6541,-1.6751,-1.6918,-1.7029,-1.7488,-1.8084,-1.8847,-1.9661,-2.044,-2.1153,-2.175,-2.2021,-2.1866,-2.1582,-2.15,-2.1643,-2.1465,-2.1417,-2.1465,-2.1827,-2.1983,-2.2016,-2.2449,-2.3231,-2.4173,-2.4338,-2.4446,0.0,0.0,0.0,0.0,0.0,0.0,0.0,0.0,0.0,0.0,0.0,0.0,0.0,0.0,0.0,0.0,0.0,0.0,0.0,0.0,0.0,0.0,0.0,0.0,0.0,0.0,0.0,0.0,0.0,0.0,0.0,0.0,0.0,0.0,0.0,0.0,0.0,0.0,-2.5392,-2.5894,-2.611,-2.6525,-2.6934,0.0,0.0,0.0,0.0,0.0,0.0,-2.7242,-2.7343,-2.7377,-2.7296,-2.7213,-2.7182,-2.724,-2.724,-2.724,-2.724,-2.724,-2.717,-2.7045,-2.7045,-2.7009,-2.6972,-2.6935,-2.6953,-2.6931,-2.6028,-2.5672,-2.5705,-2.5843,-2.5931,-2.5964,-2.5943,-2.5918,-2.5905,0.0,0.0,0.0,0.0,0.0,0.0,0.0,0.0,0.0,0.0,0.0,-1.5421,-1.5389,-1.5466,-1.5652,-1.6028,-1.6495,-1.7227,-1.8247,-1.9436,-2.0388,-2.1075,-2.1744,-2.1819,-2.1178,-2.0518,-2.068,-2.1697,-2.1113,-2.1091,-2.1609,-2.1465,-2.1417,-2.1417,-2.1465,-2.2049,-2.3023,-2.3681,-2.3864,-2.3806,0.0,0.0,0.0,0.0,0.0,0.0,0.0,0.0,0.0,0.0,0.0,0.0,0.0,0.0,0.0,0.0,0.0,0.0,0.0,0.0,0.0,0.0,0.0,0.0,0.0,0.0,0.0,0.0,0.0,0.0,0.0,0.0,0.0,0.0,0.0,0.0,0.0,0.0,0.0,-2.6442,-2.6499,0.0,0.0,0.0,0.0,-2.6842,-2.718,-2.7315,-2.7117,-2.7117,-2.708,-2.7026,-2.7008,-2.7115,-2.7285,-2.7285,-2.7285,-2.7285,-2.7285,-2.7255,-2.7189,-2.7189,-2.7189,-2.7189,-2.7045,-2.699,-2.7008,-2.6913,-2.6937,-2.6998,-2.7015,-2.7102,-2.7228,-2.7351,-2.7432,-2.7508,0.0,0.0,0.0,0.0,0.0,0.0,0.0,0.0,-1.4071,-1.4419,-1.4258,-1.4107,-1.4061,-1.4039,-1.4266,-1.489,-1.5423,-1.6311,-1.7687,-1.8177,-1.8732,-1.9389,-1.9672,-1.9608,-1.9285,-1.9049,-1.9101,-1.9401,-1.9466,-1.9594,-1.9797,-2.0374,-2.0873,-2.1351,-2.1642,-2.2011,-2.2415,-2.233,-2.2469,-2.2801,-2.3054,-2.3658,0.0,0.0,0.0,0.0,0.0,0.0,0.0,0.0,0.0,0.0,0.0,0.0,0.0,0.0,0.0,0.0,0.0,0.0,0.0,0.0,0.0,0.0,0.0,0.0,0.0,0.0,0.0,0.0,0.0,0.0,0.0,0.0,0.0,0.0,0.0,0.0,0.0,-2.7114,-2.7489,0.0,0.0,-2.807,-2.8022,-2.8088,-2.8178,-2.822,-2.8194,-2.8297,-2.8339,-2.8341,-2.844,-2.8499,-2.8517,-2.8652,-2.869,-2.8652,-2.8652,-2.8633,-2.8612,-2.8494,-2.8415,-2.8394,-2.8107,-2.7954,-2.7921,-2.7995,-2.7613,-2.6983,-2.7116,-2.7145,-2.7107,-2.7113,-2.7132,-2.7182,0.0,0.0,0.0,0.0,0.0,0.0,0.0,0.0,-1.319,-1.344,-1.3238,-1.3084,-1.3084,-1.3144,-1.3333,-1.3872,-1.4542,-1.533,-1.6373,-1.705,-1.7565,-1.7895,-1.8027,-1.819,-1.8286,-1.8242,-1.8224,-1.8357,-1.8805,-1.9057,-1.9068,-1.9692,-2.0248,-2.073,-2.1045,-2.1344,-2.1576,-2.1055,-2.1287,-2.1988,-2.2035,-2.2569,-2.3389,0.0,0.0,0.0,0.0,0.0,0.0,0.0,0.0,0.0,0.0,0.0,0.0,0.0,0.0,0.0,0.0,0.0,0.0,0.0,0.0,0.0,0.0,0.0,0.0,0.0,0.0,0.0,0.0,0.0,0.0,0.0,0.0,0.0,0.0,0.0,-2.7673,-2.7869,-2.8175,-2.8533,-2.8942,-2.87,-2.8583,-2.8713,-2.8766,-2.879,-2.8808,-2.8879,-2.8948,-2.8993,-2.906,-2.9123,-2.9097,-2.9291,-2.9502,-2.9736,-2.9818,-2.9818,-2.9795,-2.9669,-2.9392,-2.8984,-2.8718,-2.8522,-2.8378,-2.843,-2.8027,-2.7319,-2.7602,-2.7679,-2.764,-2.764,-2.764,-2.7566,0.0,0.0,0.0,0.0,0.0,0.0,0.0,-1.248,-1.248,-1.248,-1.248,-1.248,-1.248,-1.278,-1.2964,-1.2974,-1.3798,-1.4289,-1.4308,-1.6063,-1.6968,-1.6687,-1.709,-1.76,-1.8201,-1.7967,-1.8107,-1.8771,-1.9215,-1.9465,-1.9465,-1.9488,-1.9499,-1.9488,-1.9488,-1.9901,-2.0447,-1.9945,-2.0338,-2.1361,-2.1527,-2.1589,-2.1732,0.0,0.0,0.0,0.0,0.0,0.0,0.0,0.0,0.0,0.0,0.0,0.0,0.0,0.0,0.0,0.0,0.0,0.0,0.0,0.0,0.0,0.0,0.0,0.0,0.0,0.0,0.0,0.0,0.0,0.0,0.0,0.0,0.0,-2.7811,-2.8156,-2.8422,-2.8628,-2.843,-2.8352,-2.8628,-2.8603,-2.8565,-2.8562,-2.8737,-2.8855,-2.881,-2.8828,-2.8828,-2.8864,-2.8864,-2.89,-2.8962,-2.9156,-2.965,-3.0428,-3.0621,-3.0679,-3.0631,-3.059,-2.9972,-2.8863,-2.8839,-2.8651,-2.8344,-2.8282,-2.8201,-2.8201,-2.8543,-2.8743,-2.8887,-2.9016,-2.9038,-2.8864,0.0,0.0,0.0,0.0,0.0,0.0,0.0,-1.2076,-1.2175,-1.248,-1.2234,-1.2076,-1.2076,-1.2126,-1.2361,-1.3013,-1.358,-1.4116,-1.4704,-1.5226,-1.5507,-1.54,-1.5517,-1.6004,-1.6798,-1.6387,-1.6799,-1.8009,-1.8082,-1.8312,-1.8701,-1.9041,-1.9458,-1.9957,-1.9957,-2.0081,-2.0352,-2.0213,-2.0065,-2.0053,-2.0656,-2.1613,-2.2814,0.0,0.0,0.0,0.0,0.0,0.0,0.0,0.0,0.0,0.0,0.0,0.0,0.0,0.0,0.0,0.0,0.0,0.0,0.0,0.0,0.0,0.0,0.0,0.0,0.0,0.0,0.0,0.0,0.0,0.0,0.0,0.0,-2.7334,-2.7382,-2.7396,-2.7422,-2.7572,-2.7452,-2.7422,-2.7619,-2.7589,-2.756,-2.7595,-2.7851,-2.8314,-2.8902,-2.9197,-2.962,-3.0225,-3.0394,-3.0436,-3.034,-3.0588,-3.0772,-3.0917,-3.0968,-3.0968,-3.0961,-3.0815,-3.0557,-3.0233,-2.9826,-2.9621,-2.9518,-2.9506,-2.9444,-2.9259,-2.8482,-2.8165,-2.8138,-2.8422,-2.8576,-2.8615,0.0,0.0,0.0,0.0,0.0,0.0,0.0,-1.0947,-1.0998,-1.125,-1.1099,-1.1006,-1.1267,-1.1264,-1.1595,-1.2346,-1.286,-1.3381,-1.3837,-1.435,-1.4849,-1.5317,0.0,-1.5467,-1.6205,-1.6075,-1.6475,-1.7312,-1.7478,-1.7816,-1.8344,-1.8619,-1.9065,-1.9649,-1.9649,-1.9878,-2.0176,-1.9963,-1.9839,-1.9861,-2.0048,-2.0907,-2.2092,-2.2187,-2.3133,-2.4446,-2.4338,-2.415,-2.3865,-2.3546,0.0,0.0,0.0,0.0,0.0,0.0,0.0,0.0,0.0,0.0,0.0,0.0,0.0,0.0,0.0,0.0,0.0,0.0,0.0,0.0,0.0,0.0,0.0,0.0,-2.647,-2.6691,-2.6708,-2.6922,-2.7115,-2.7181,-2.7132,-2.7115,-2.7181,-2.7457,-2.7646,-2.7646,-2.8132,-2.8592,-2.9077,-2.9316,-2.9651,-3.0043,-3.0428,-3.0575,-3.0428,-3.0857,-3.1247,-3.1511,-3.1592,-3.1592,-3.152,-3.1409,-3.1031,0.0,-3.019,-2.9954,-2.9758,-2.9692,-2.9658,0.0,0.0,0.0,0.0,0.0,-2.7897,-2.7918,0.0,0.0,0.0,0.0,0.0,0.0,0.0,-0.9614,-0.9614,-0.9614,-0.9614,-0.9784,-1.0296,-1.0497,-1.0823,-1.13,-1.2012,-1.2389,-1.2389,-1.3381,-1.4532,-1.5642,-1.5435,-1.5598,-1.6075,-1.6449,-1.6722,-1.6835,-1.7135,-1.7579,-1.8202,-1.8202,-1.8472,-1.9008,-1.9008,-1.9386,-1.9944,-1.9457,-1.9588,-2.0104,-1.9607,-1.983,-2.0485,-2.0565,-2.1674,-2.3315,-2.3748,-2.3997,-2.4041,-2.3523,0.0,0.0,0.0,0.0,0.0,0.0,0.0,0.0,0.0,0.0,0.0,0.0,0.0,0.0,0.0,0.0,0.0,0.0,0.0,0.0,0.0,0.0,0.0,0.0,-2.5954,-2.5917,-2.599,-2.6691,-2.7139,-2.7053,-2.7122,-2.7173,-2.7173,-2.7842,-2.827,-2.827,-2.8905,-2.9281,-2.9244,0.0,0.0,0.0,0.0,-3.0101,-2.9984,-3.0587,-3.126,-3.2026,-3.2202,-3.2213,-3.2097,-3.2097,-3.1433,-3.0346,-3.0314,-3.007,-2.966,-2.9538,-2.9468,-2.9367,-2.9033,-2.8802,-2.8543,-2.7625,-2.7206,0.0,0.0,0.0,0.0,0.0,0.0,0.0,0.0,-0.9614,-0.9614,-0.9614,-0.9614,-0.9709,-1.0019,-1.0409,-1.0747,-1.1064,-1.1487,-1.1695,-1.1695,-1.2389,-1.3104,-1.3663,-1.4139,-1.4923,-1.6033,-1.5645,-1.6111,-1.726,-1.6922,-1.7028,-1.7579,-1.7579,-1.792,-1.8472,-1.8472,-1.8798,-1.9264,-1.917,-1.9194,-1.9283,-1.8818,-1.9306,-2.0349,-2.0338,-2.1187,-2.2384,-2.2433,-2.2558,-2.2776,-2.3152,-2.2631,-2.1896,-2.2314,0.0,0.0,0.0,0.0,0.0,0.0,0.0,0.0,0.0,0.0,0.0,0.0,0.0,0.0,0.0,0.0,0.0,0.0,0.0,0.0,-2.597,-2.5954,-2.5954,-2.5934,-2.6541,-2.6746,-2.622,-2.6574,-2.6883,-2.6961,-2.7623,-2.8053,-2.8053,-2.8436,-2.8958,-2.9585,-2.9864,0.0,-3.0936,-3.1082,-3.1119,-3.1082,-3.1212,-3.1389,-3.1545,0.0,0.0,-3.1934,-3.1934,-3.1899,-3.1879,-3.176,-3.1585,-3.1389,-3.1207,-3.0496,-2.9425,-2.8596,-2.8334,-2.8278,-2.7439,-2.7051,-2.6952,0.0,0.0,0.0,0.0,0.0,0.0,0.0,-0.7913,-0.7913,-0.7913,-0.7913,-0.8117,-0.8595,-0.8655,-0.8924,-0.943,-1.0079,-1.0752,-1.1454,-1.1921,-1.236,-1.2767,-1.3216,-1.389,-1.4759,-1.4495,-1.4857,-1.6026,-1.5745,-1.6105,-1.7028,-1.7028,-1.7304,-1.7862,-1.7862,-1.7988,-1.8259,-1.8596,-1.8674,-1.871,-1.875,-1.9103,-1.9714,-1.9787,-2.0551,-2.1616,-2.1616,-2.1637,-2.1753,-2.216,-2.1927,-2.1483,-2.1629,-2.1645,-2.1637,0.0,0.0,0.0,0.0,0.0,0.0,0.0,0.0,0.0,0.0,0.0,0.0,0.0,0.0,-2.4981,-2.4926,0.0,-2.5253,-2.5176,-2.5153,-2.5281,-2.5592,-2.5886,-2.6126,-2.6363,-2.7005,-2.7408,-2.747,-2.8125,-2.8551,-2.8551,-2.9041,-2.9485,-2.9832,-3.0092,-3.0339,-3.0625,-3.0948,-3.105,-3.101,-3.1283,-3.1397,-3.1397,-3.1397,-3.1452,-3.1507,-3.1507,-3.1507,-3.1565,-3.147,-3.1317,-3.1067,-3.0754,-3.0212,-2.9452,-2.8593,-2.7961,-2.7563,-2.7071,-2.6668,-2.635,0.0,0.0,0.0,0.0,0.0,0.0,0.0,-0.6209,-0.6209,-0.6209,-0.6246,-0.6507,-0.7157,-0.6993,-0.7091,-0.7721,-0.8609,-0.9615,-1.0822,-1.1255,-1.1694,-1.2265,-1.2615,-1.3004,-1.3528,-1.3535,-1.3818,-1.4394,-1.4394,-1.5029,-1.6245,-1.6245,-1.6603,-1.7235,-1.7235,-1.7304,-1.7442,-1.793,-1.8134,-1.8134,-1.8596,-1.8865,-1.8957,-1.9094,-1.9874,-2.0933,-2.0933,-2.0996,-2.1129,-2.1195,-2.1164,-2.1057,-2.0741,-2.0911,-2.116,-2.0833,-2.1144,0.0,0.0,0.0,0.0,0.0,0.0,0.0,0.0,0.0,-2.3979,-2.4214,-2.4338,-2.4379,-2.4266,-2.4307,-2.4389,-2.4364,-2.4477,-2.4713,-2.5238,-2.5444,-2.5886,-2.6776,-2.7413,-2.7809,-2.7809,-2.8472,-2.8893,-2.8893,-2.9486,-2.981,-2.9826,-2.9913,-2.993,-2.9814,-3.0284,-3.0518,-3.0377,-3.0794,-3.105,-3.1089,-3.1089,-3.101,-3.0885,-3.0885,-3.0788,-3.0666,-3.0551,-3.0344,-3.0048,-2.9597,-2.939,-2.9297,-2.8589,-2.779,-2.6952,-2.6661,-2.6286,-2.5799,0.0,0.0,0.0,0.0,0.0,0.0,0.0,0.0,-0.6209,-0.6209,-0.6314,-0.651,-0.683,-0.6984,-0.7196,-0.7459,-0.7562,-0.7967,-0.8801,-0.9396,-1.0354,-1.1587,-1.2187,-1.2826,-1.352,-1.3535,-1.3535,-1.36,-1.36,-1.4034,-1.4816,-1.4816,-1.5463,-1.6682,-1.6682,-1.695,-1.7373,-1.7442,-1.751,-1.752,-1.7579,-1.792,-1.8395,-1.8412,-1.9145,-2.0226,-2.0226,-2.0613,-2.1123,-2.1118,-2.0807,-2.0415,-2.0361,-2.0122,-2.0031,-2.0476,0.0,-2.1224,-2.1752,-2.1941,-2.2035,-2.2314,-2.2512,-2.2663,0.0,0.0,-2.3201,-2.3112,-2.3436,-2.3724,-2.3681,-2.4074,-2.4364,-2.4328,-2.4837,-2.5222,-2.5053,-2.6047,-2.6794,-2.681,-2.6995,-2.7134,-2.7134,-2.767,-2.8069,-2.8198,-2.8275,-2.8575,-2.9166,-2.9212,-2.9319,-2.9515,-2.9605,-2.9649,-2.9633,-2.9677,-2.981,-3.006,-3.006,-3.0087,-3.014,-3.014,-3.0166,-3.0159,-2.968,-2.9444,-2.9355,-2.8732,-2.8432,-2.8432,-2.8176,-2.778,-2.7237,-2.6372,-2.5923,-2.5617,0.0,0.0,0.0,0.0,0.0,0.0,0.0,0.0,0.0,-0.5313,-0.5392,-0.5537,-0.5809,-0.6002,-0.6331,-0.6789,-0.6793,-0.712,-0.7842,-0.828,-0.8829,-0.9522,-1.0377,-1.1066,-1.1391,-1.1842,-1.2365,-1.2806,-1.2806,-1.3171,-1.3962,-1.3962,-1.4458,-1.5463,-1.5463,-1.5824,-1.6491,-1.6821,-1.695,-1.6959,-1.7304,-1.752,-1.7794,-1.7794,-1.8327,-1.9121,-1.9396,-1.9846,0.0,0.0,-2.0478,-2.0432,-2.0346,-2.0211,-2.0147,-2.0531,-2.0685,0.0,-2.1427,-2.1394,-2.1224,0.0,-2.1894,-2.2095,-2.2402,-2.2586,-2.2678,-2.2843,-2.3068,-2.3304,-2.3716,-2.3955,-2.4209,0.0,-2.4924,-2.5176,-2.5342,-2.581,-2.6247,-2.6477,-2.6506,-2.6745,-2.7473,-2.7731,-2.7898,-2.7997,-2.7981,-2.8094,-2.84,-2.8384,-2.8448,-2.8591,-2.8591,-2.8685,-2.8904,-2.8701,-2.8748,-2.909,-2.8842,-2.8764,-2.8795,-2.8795,-2.8717,-2.8498,-2.834,-2.8051,-2.7728,-2.7369,-2.7129,-2.6946,-2.6678,-2.6518,-2.6396,-2.6719,-2.6122,-2.5078,0.0,0.0,0.0,0.0,0.0,0.0,0.0,0.0,0.0,0.0,-0.4228,-0.4299,-0.4519,-0.4698,-0.5017,-0.547,-0.5672,-0.6133,-0.6785,-0.7185,-0.7564,-0.7981,-0.8771,-0.929,-0.951,-1.0336,-1.1033,-1.1632,-1.1855,-1.2372,-1.3171,-1.3171,-1.36,-1.4314,-1.453,-1.4903,-1.5497,-1.6009,-1.6305,-1.6394,-1.6702,-1.6927,-1.7166,-1.7166,-1.751,-1.8134,-1.8787,-1.9264,0.0,0.0,-2.0096,-2.0289,-2.0061,-2.0059,-2.0186,-2.0382,-2.0543,-2.0795,-2.1207,0.0,0.0,-2.1082,-2.1224,-2.1471,-2.2096,-2.2253,-2.239,-2.2824,-2.3069,-2.3292,-2.3799,-2.4043,-2.4312,-2.4791,-2.4861,-2.4984,-2.5509,-2.5488,-2.5653,-2.6122,-2.6111,-2.6418,-2.7246,-2.7348,-2.7348,-2.7414,-2.7414,-2.7449,-2.7665,-2.7665,-2.77,-2.7799,-2.7799,-2.7913,-2.8207,-2.7963,-2.7963,-2.8319,-2.8061,-2.7849,-2.7799,-2.765,-2.7419,-2.7172,-2.7012,-2.6715,-2.6332,-2.6215,-2.6054,-2.5809,-2.5673,-2.5618,-2.5727,-2.6533,-2.5908,-2.4572,0.0,0.0,0.0,0.0,0.0,0.0,0.0,0.0,0.0,0.0,0.0,0.0,0.0,-0.3282,-0.3282,-0.3282,-0.3951,-0.468,-0.5325,-0.6063,-0.6884,-0.7758,-0.7841,-0.8041,-0.8529,-0.9348,-0.9832,-0.9997,-1.0738,-1.1558,-1.2372,-1.2372,-1.2739,-1.3528,-1.425,-1.4601,-1.4657,-1.5101,-1.5454,-1.5771,-1.5386,-1.579,-1.6603,-1.6603,-1.6959,-1.7579,-1.8499,0.0,0.0,-1.9605,-1.9605,-1.9539,-1.9253,-1.9447,0.0,-1.9823,-2.0488,-2.1176,0.0,0.0,-2.0845,-2.0666,-2.061,-2.0904,-2.1951,-2.2187,-2.2336,-2.2866,-2.3441,-2.3862,-2.389,-2.4369,-2.4771,-2.4785,-2.4722,-2.4857,-2.5346,-2.5296,-2.5398,-2.5839,-2.5893,-2.5893,0.0,-2.5948,-2.6002,-2.6165,-2.6165,-2.6418,-2.7071,-2.7122,-2.721,-2.7515,-2.7515,-2.7515,-2.7515,-2.7515,-2.765,-2.7898,-2.7898,-2.775,-2.75,-2.699,-2.673,-2.6678,-2.6,-2.5673,-2.5618,-2.5508,-2.5453,-2.5453,-2.5563,-2.5618,-2.5563,-2.5481,-2.501,-2.4224,0.0,0.0,0.0,0.0,0.0,0.0,0.0,0.0,0.0,0.0,0.0,0.0,0.0,0.0,0.0,0.0,0.0,0.0,-0.3877,-0.461,-0.5209,-0.5562,-0.6599,-0.7268,-0.752,-0.8312,-0.9,-0.952,-0.9807,-1.0301,-1.0947,-1.0947,-1.1429,-1.2193,-1.2465,-1.2819,-1.3378,-1.3468,-1.4026,-1.4763,-1.4563,-1.5152,-1.607,-1.607,-1.6412,-1.695,0.0,0.0,0.0,-1.9781,-1.9911,-1.9857,-1.9539,-1.9357,-1.9425,-1.9867,-2.0504,-2.1066,-2.1186,0.0,-2.0723,-2.1075,-2.1186,-2.1399,-2.2115,-2.226,-2.2419,-2.2896,-2.3133,-2.3425,-2.3888,-2.4143,-2.4426,-2.4843,-2.4778,-2.475,-2.4777,-2.4673,-2.4624,-2.4667,-2.4667,0.0,0.0,0.0,0.0,-2.5948,-2.5948,-2.6056,-2.6297,-2.6297,-2.6351,-2.6457,-2.6457,-2.6549,-2.6811,-2.6549,-2.6549,-2.6678,-2.6443,-2.596,-2.537,-2.5356,-2.5134,-2.4741,-2.4399,-2.3995,-2.3644,-2.3774,-2.3715,-2.3526,-2.3229,-2.317,-2.311,-2.2676,-2.2371,-2.2221,0.0,0.0,0.0,0.0,0.0,0.0,0.0,0.0,0.0,0.0,0.0,0.0,0.0,0.0,0.0,0.0,0.0,0.0,0.0,-0.3482,-0.3917,-0.4056,-0.5012,-0.5693,-0.6131,-0.69,-0.7706,-0.8498,-0.878,-0.9276,-0.991,-0.991,-1.0321,-1.1067,-1.1334,-1.1819,-1.2301,-1.2504,-1.3097,-1.3816,-1.3747,-1.4385,-1.5355,-1.5355,-1.5771,0.0,0.0,0.0,-1.8633,-1.9365,-1.977,-1.9857,-1.9539,-1.9341,-1.9396,-2.0161,-2.0619,-2.088,-2.1008,-2.0736,-2.0511,-2.0725,-2.0791,-2.1011,-2.1719,-2.1926,-2.2133,-2.2828,-2.3199,-2.3538,-2.3939,-2.416,-2.4392,-2.4896,-2.4597,-2.4368,-2.4452,-2.4163,-2.3975,-2.4034,-2.4021,0.0,0.0,0.0,0.0,-2.5189,-2.5189,-2.5189,-2.5189,-2.5189,-2.5189,-2.5189,-2.5189,-2.53,-2.555,-2.53,-2.5175,-2.5148,-2.4908,-2.4523,-2.4034,-2.4066,-2.3891,-2.3564,-2.3314,-2.2942,-2.2592,-2.2579,-2.2384,-2.2077,-2.1455,-2.1192,-2.1066,-2.0696,-2.0515,-2.0617,0.0,0.0,0.0,0.0,0.0,0.0,0.0,0.0,0.0,0.0,0.0,0.0,0.0,0.0,0.0,0.0,0.0,0.0,0.0,-0.2748,0.0,-0.3149,-0.3149,-0.3596,-0.4389,-0.5208,-0.6037,-0.6903,-0.7747,-0.8459,-0.9174,-0.9243,-0.9592,-1.0215,-1.1028,-1.1431,-1.1431,-1.2102,-1.2643,-1.3027,-1.2895,-1.3509,-1.4601,-1.4601,0.0,0.0,0.0,0.0,0.0,0.0,0.0,0.0,-1.9208,-1.9341,-1.9736,-2.0537,-2.0655,-2.0553,-2.0515,-2.04,-2.0175,-1.9707,-1.9581,-1.9826,-2.0841,-2.1188,-2.1572,-2.2664,-2.3484,-2.4002,0.0,0.0,-2.4697,-2.4838,-2.415,-2.3754,-2.4337,-2.3741,-2.3433,0.0,0.0,0.0,0.0,0.0,0.0,-2.3846,0.0,-2.3962,-2.3962,-2.3962,-2.3962,-2.3962,-2.3962,-2.3904,-2.38,-2.38,-2.3669,-2.3408,-2.3408,-2.3408,-2.3348,-2.3062,-2.2955,-2.2895,-2.2592,-2.2408,-2.2347,-2.1694,-2.1307,-2.1106,-2.0245,-1.9782,-1.9597,-1.9477,-1.9357,-1.9283,0.0,0.0,0.0,0.0,0.0,0.0,0.0,0.0,0.0,0.0,0.0,0.0,0.0,0.0,0.0,0.0,0.0,0.0,0.0,0.0,0.0,0.0,0.0,0.0,0.0,0.0,0.0,-0.5713,-0.6459,-0.7203,-0.7878,-0.8475,-0.8805,-0.9002,-0.967,-0.9996,-1.0003,-1.0192,-1.0929,-1.1937,0.0,-1.295,-1.4601,0.0,0.0,0.0,0.0,0.0,0.0,0.0,0.0,0.0,0.0,-1.9341,-1.9605,-1.9584,-1.9715,-1.989,-2.0136,-2.0167,-2.0273,-2.0591,-2.0682,-2.0779,-2.1031,-2.1128,-2.1401,-2.2151,-2.2482,-2.2786,0.0,0.0,0.0,-2.3424,-2.3005,0.0,-2.2944,-2.2653,0.0,0.0,0.0,-2.2187,-2.1455,-2.1393,0.0,0.0,-2.2797,-2.3657,-2.3657,-2.3657,-2.3657,-2.3657,-2.3657,-2.3598,-2.3598,-2.3374,-2.3088,-2.2665,-2.2482,-2.2103,-2.1495,-2.1135,-2.0819,-2.0621,-2.0117,-1.9933,-1.9933,-1.9596,-1.9465,-1.9399,-1.8736,-1.8469,-1.8412,-1.8085,-1.7512,-1.683,0.0,0.0,0.0,0.0,0.0,0.0,0.0,0.0,0.0,0.0,0.0,0.0,0.0,0.0,0.0,0.0,0.0,0.0,0.0,0.0,0.0,0.0,0.0,0.0,0.0,0.0,0.0,0.0,0.0,0.0,-0.699,-0.7707,-0.8161,-0.8554,-0.9215,-0.9484,-0.949,-0.9604,0.0,0.0,0.0,0.0,0.0,0.0,0.0,0.0,0.0,0.0,0.0,0.0,0.0,-1.824,-1.8317,-1.8664,-1.9008,-1.8808,0.0,-1.9407,-1.9518,-1.9584,-1.9715,-2.0031,-2.0096,-2.0172,-2.0495,-2.0549,-2.0741,-2.1439,-2.1865,0.0,0.0,0.0,0.0,0.0,0.0,0.0,-2.1502,-2.1639,-2.1514,0.0,-2.0921,0.0,-2.0074,-2.0009,-2.0009,0.0,-2.1307,-2.225,-2.225,-2.225,-2.2053,-2.172,-2.172,-2.172,-2.167,-2.1432,-2.1192,-2.0899,-2.0726,-2.0342,-1.9922,-1.9629,-1.9367,-1.9201,0.0,-1.8777,-1.8777,-1.8355,-1.793,-1.7503,-1.6766,-1.6271,-1.5852,-1.5508,-1.5076,-1.4561,0.0,0.0,0.0,0.0,0.0,0.0,0.0,0.0,0.0,0.0,0.0,0.0,0.0,0.0,0.0,0.0,0.0,0.0,0.0,0.0,0.0,0.0,0.0,0.0,0.0,0.0,0.0,0.0,0.0,0.0,0.0,0.0,0.0,0.0,0.0,0.0,0.0,0.0,0.0,0.0,0.0,0.0,0.0,0.0,0.0,0.0,0.0,0.0,0.0,0.0,-1.6201,-1.7166,-1.7304,-1.7647,-1.8056,-1.8202,-1.8529,-1.8865,-1.8808,-1.8875,-1.9008,-1.8808,-1.8741,-1.8942,-1.9605,-1.9726,-1.9911,-2.0635,0.0,-2.1854,-2.1916,0.0,-2.1491,-2.1678,0.0,-2.0996,-2.0333,-2.0632,-2.0632,-1.9803,-1.9607,-1.941,-1.9166,-1.91,-1.9034,-1.8911,-1.9683,-2.0268,-2.0398,-2.0398,-2.0063,-1.9475,-1.9399,-1.9354,-1.9243,-1.9044,-1.89,-1.8824,-1.8546,-1.8412,-1.8267,-1.8007,-1.792,-1.79,0.0,0.0,-1.7872,-1.7179,-1.6401,-1.5545,-1.4728,-1.3882,-1.3164,-1.2938,-1.2792,-1.2645,0.0,0.0,0.0,0.0,0.0,0.0,0.0,0.0,0.0,0.0,0.1545,0.1008,0.0,0.0,0.0,0.0,0.0,0.0,0.0,0.0,0.0,0.0,0.0,0.0,0.0,0.0,0.0,0.0,0.0,0.0,0.0,0.0,0.0,0.0,0.0,0.0,0.0,0.0,0.0,0.0,0.0,0.0,0.0,0.0,0.0,0.0,0.0,0.0,0.0,0.0,-1.5238,-1.5956,-1.6733,-1.6793,-1.6793,-1.7794,-1.791,-1.7823,-1.8405,-1.8549,-1.8617,-1.8549,-1.8549,-1.8607,-1.8942,-1.9008,0.0,0.0,0.0,-2.0333,-2.0887,-2.0771,0.0,-2.059,0.0,0.0,0.0,0.0,-1.9857,0.0,0.0,0.0,0.0,0.0,0.0,0.0,0.0,0.0,-1.9233,-1.9299,-1.9233,-1.91,-1.91,-1.91,-1.9044,-1.89,-1.8469,-1.7813,-1.7005,-1.6305,-1.5738,-1.5051,-1.4775,-1.4775,0.0,0.0,-1.4712,-1.4291,-1.4011,-1.3795,-1.3368,-1.3084,-1.2938,-1.2938,-1.2352,-1.162,0.0,0.0,0.0,0.0,0.0,0.0,0.0,0.3828,0.3894,0.3355,0.2818,0.235,0.1816,0.1277,0.0941,0.0,0.0,0.0,0.0,0.0,0.0,0.0,0.0,0.0,0.0,0.0,0.0,0.0,0.0,0.0,0.0,0.0,0.0,0.0,0.0,0.0,0.0,0.0,0.0,0.0,0.0,0.0,0.0,0.0,0.0,0.0,0.0,0.0,0.0,0.0,-1.4062,-1.4598,-1.5413,-1.5816,-1.5956,-1.6524,-1.6793,-1.7001,-1.7569,-1.7842,-1.7978,-1.8337,-1.8414,-1.8414,-1.8617,0.0,0.0,0.0,-1.9518,-1.9824,-2.0139,0.0,0.0,0.0,0.0,0.0,0.0,0.0,0.0,0.0,0.0,0.0,0.0,0.0,0.0,0.0,0.0,0.0,-1.824,-1.7959,-1.7755,-1.7755,-1.7755,-1.7541,-1.7189,-1.6982,-1.654,-1.5738,-1.5122,-1.4712,-1.4355,-1.3939,-1.3738,-1.3738,-1.3658,0.0,-1.3585,-1.323,-1.2865,-1.2425,-1.1742,-1.1218,-1.0783,-1.0318,-0.9798,-0.9357,0.0,0.0,0.0,0.0,0.0,0.0,0.0,0.43,0.4164,0.3825,0.3825,0.3424,0.249,0.195,0.1546,0.0,0.0,0.0,0.0,0.0,0.0,0.0,0.0,0.0,0.0,0.0,0.0,0.0,0.0,0.0,0.0,0.0,0.0,0.0,0.0,0.0,0.0,0.0,0.0,0.0,0.0,0.0,0.0,0.0,0.0,0.0,0.0,0.0,0.0,0.0,-1.2979,-1.3424,-1.4041,-1.4641,-1.5108,-1.533,-1.5675,-1.6088,-1.6655,-1.6922,-1.7129,-1.7628,-1.7706,-1.7774,-1.792,-1.7988,0.0,0.0,-1.8854,-1.9299,-1.9299,0.0,0.0,0.0,0.0,0.0,0.0,0.0,0.0,0.0,0.0,0.0,0.0,0.0,0.0,0.0,0.0,0.0,0.0,-1.6367,-1.6026,-1.6026,-1.6026,-1.5737,-1.5171,-1.4974,-1.4466,-1.3723,-1.352,-1.331,-1.3084,-1.2945,-1.2872,-1.2872,-1.2498,0.0,0.0,-1.1964,-1.1452,-1.0789,-0.9943,-0.92,-0.8613,-0.777,-0.7464,-0.7387,0.0,0.0,0.0,0.0,0.0,0.0,0.0,0.43,0.4164,0.3825,0.3825,0.3625,0.3159,0.2755,0.2418,0.0,0.0,0.0,0.0,0.0,0.0,0.0,0.0,0.0,0.0,0.0,0.0,0.0,0.0,0.0,0.0,0.0,0.0,0.0,0.0,0.0,0.0,0.0,0.0,0.0,0.0,0.0,0.0,0.0,0.0,0.0,0.0,0.0,0.0,0.0,0.0,-1.2629,-1.3063,-1.3393,-1.392,-1.4911,0.0,0.0,-1.5604,-1.5816,-1.5877,-1.5956,-1.5956,-1.6018,-1.6219,0.0,0.0,-1.7482,-1.7969,-1.8405,-1.8405,-1.8269,0.0,0.0,0.0,-1.7148,0.0,0.0,0.0,0.0,0.0,0.0,0.0,0.0,0.0,0.0,0.0,0.0,0.0,-1.4291,-1.4219,-1.4219,-1.4219,-1.4219,-1.4148,-1.3954,-1.3448,-1.2712,-1.2512,-1.1922,-1.1031,-1.1037,-1.0962,-1.0738,0.0,0.0,0.0,-0.867,-0.8214,-0.8143,-0.7842,-0.7689,-0.7617,-0.754,-0.7387,-0.7007,0.0,0.0,0.0,0.0,0.0,0.0,0.43,0.43,0.4233,0.4097,0.4097,0.3961,0.3627,0.3424,0.3224,0.2824,0.0,0.0,0.0,0.0,0.0,0.0,0.0,0.0,0.0,0.0,0.0,0.0,0.0,0.0,0.0,0.0,0.0,0.0,0.0,0.0,0.0,0.0,0.0,0.0,0.0,0.0,0.0,0.0,0.0,0.0,0.0,0.0,0.0,0.0,0.0,0.0,-1.2237,-1.2733,0.0,0.0,-1.4057,-1.4122,-1.4824,-1.5029,-1.5171,-1.5604,-1.5675,-1.5745,-1.5807,0.0,-1.6306,-1.6367,-1.6585,-1.6724,-1.6724,-1.6664,-1.6594,0.0,0.0,0.0,0.0,0.0,0.0,0.0,0.0,0.0,0.0,0.0,0.0,0.0,0.0,0.0,0.0,-1.2997,-1.3578,-1.3114,-1.3114,-1.2663,-1.1691,-1.1495,-1.0989,-1.0099,-0.9959,-0.9664,-0.9145,-0.9145,-0.9145,-0.8993,0.0,0.0,0.0,-0.7842,-0.7613,-0.7536,-0.6454,-0.5992,-0.5838,-0.475,-0.4285,-0.4053,0.0,0.0,0.0,0.0,0.0,0.43,0.43,0.43,0.43,0.43,0.43,0.4231,0.3961,0.3961,0.3828,0.3563,0.3161,0.0,0.0,0.0,0.0,0.0,0.0,0.0,0.0,0.0,0.0,0.0,0.0,0.0,0.0,0.0,0.0,0.0,0.0,0.0,0.0,0.0,0.0,0.0,0.0,0.0,0.0,0.0,0.0,0.0,0.0,0.0,0.0,0.0,0.0,0.0,0.0,0.0,0.0,0.0,-1.3492,-1.3484,-1.4042,-1.4106,-1.425,-1.4744,-1.4887,-1.4895,0.0,0.0,-1.5321,-1.5392,-1.5534,-1.5675,-1.5675,-1.5675,-1.5604,-1.5525,0.0,-1.4911,0.0,0.0,0.0,0.0,0.0,0.0,0.0,0.0,0.0,0.0,0.0,0.0,0.0,-1.1156,-1.1877,-1.1428,-1.1341,-1.0742,-0.9622,-0.9412,-0.8978,-0.8304,-0.8304,-0.8228,-0.7999,-0.7999,-0.7842,-0.7532,0.0,0.0,0.0,-0.614,-0.5989,-0.5912,-0.4675,-0.4135,-0.3979,-0.2656,-0.2112,-0.1956,0.0,0.0,0.0,0.0,0.0,0.0,0.43,0.43,0.43,0.43,0.43,0.43,0.43,0.43,0.43,0.43,0.3025,0.0,0.0,0.0,0.0,0.0,0.0,0.0,0.0,0.0,0.0,-0.5617,-0.6342,0.0,0.0,0.0,0.0,0.0,0.0,0.0,0.0,0.0,0.0,0.0,0.0,0.0,0.0,0.0,0.0,0.0,0.0,0.0,0.0,0.0,0.0,0.0,0.0,0.0,-1.2658,0.0,-1.3346,-1.32,-1.3193,-1.3046,-1.29,-1.29,-1.29,-1.2973,0.0,0.0,-1.4338,-1.4609,-1.5171,-1.5675,-1.5534,-1.5534,-1.5463,-1.5234,-1.453,0.0,0.0,0.0,0.0,0.0,0.0,0.0,0.0,0.0,0.0,0.0,0.0,0.0,0.0,-0.8537,-0.8537,-0.8699,-0.8537,-0.8456,-0.8456,-0.8232,-0.8084,-0.808,-0.808,-0.7999,-0.7838,-0.7838,-0.7214,0.0,0.0,0.0,0.0,-0.2891,-0.2581,-0.2503,-0.2347,-0.2268,-0.2189,-0.1955,-0.18,-0.1489,0.0,0.0,0.0,0.0,0.0,0.0,0.0,0.43,0.43,0.43,0.43,0.43,0.43,0.43,0.4097,0.362,0.3153,0.0,0.0,0.0,0.0,0.0,0.0,0.0,0.0,0.0,-0.4761,-0.5411,-0.6137,-0.6863,-0.7521,0.0,0.0,0.0,0.0,0.0,0.0,0.0,0.0,0.0,0.0,0.0,0.0,0.0,0.0,0.0,0.0,0.0,0.0,0.0,0.0,0.0,0.0,0.0,0.0,-1.1906,-1.2826,-1.3346,-1.3273,-1.3127,-1.3046,-1.29,-1.29,-1.29,-1.2973,0.0,-1.3331,-1.3397,-1.3608,-1.3753,-1.3753,-1.3753,-1.368,-1.3608,-1.3324,0.0,0.0,0.0,0.0,0.0,0.0,0.0,0.0,0.0,0.0,0.0,0.0,0.0,0.0,0.0,-0.7472,-0.7702,-0.7472,-0.7088,-0.6479,-0.6402,-0.6325,-0.6163,-0.5616,-0.5223,-0.5065,-0.4441,0.0,0.0,0.0,0.0,0.0,-0.2423,-0.2268,-0.2189,-0.1409,-0.1096,-0.1017,-0.0235,0.0078,0.0157,0.0,0.0,0.0,0.0,0.0,0.0,0.0,0.4431,0.4431,0.4431,0.4431,0.4298,0.4028,0.4028,0.3758,0.3086,0.275,0.0,0.0,0.0,0.0,0.0,0.0,0.0,0.0,-0.4298,-0.4758,-0.5411,-0.6075,-0.6802,-0.7521,-0.7917,-0.8117,0.0,0.0,0.0,0.0,0.0,0.0,0.0,0.0,0.0,-0.7521,0.0,0.0,0.0,0.0,0.0,0.0,0.0,0.0,0.0,0.0,0.0,0.0,0.0,-1.1685,-1.2445,0.0,-1.2673,-1.2452,-1.2599,-1.2224,0.0,0.0,0.0,-1.1916,-1.199,-1.199,-1.199,-1.1922,-1.1916,-1.1842,-1.1768,-1.1694,0.0,0.0,0.0,0.0,0.0,0.0,0.0,0.0,0.0,0.0,0.0,0.0,0.0,0.0,0.0,-0.577,-0.5532,-0.6009,-0.586,-0.501,-0.4929,-0.4693,-0.4224,-0.3754,-0.3441,-0.3285,-0.2737,0.0,0.0,0.0,0.0,0.0,-0.1253,-0.1175,-0.1096,-0.0313,0.0157,0.0549,0.1256,0.1726,0.2037,0.0,0.0,0.0,0.0,0.0,0.0,0.0,0.4492,0.4492,0.4492,0.4492,0.4223,0.3487,0.342,0.322,0.2686,0.0,0.0,0.0,0.0,0.0,0.0,0.0,0.0,0.0,-0.4359,-0.496,-0.5697,-0.6168,-0.6832,-0.7569,-0.7555,-0.7545,-0.7545,-0.7531,0.0,0.0,0.0,0.0,0.0,-0.7456,-0.7391,0.0,0.0,0.0,0.0,0.0,0.0,0.0,0.0,0.0,0.0,0.0,0.0,0.0,0.0,0.0,0.0,0.0,-1.1706,-1.1186,-1.1929,-1.1025,-1.0121,-1.1105,0.0,0.0,-1.0415,-1.0484,-1.0415,-1.019,-1.019,-1.0115,-0.9895,-0.9895,0.0,0.0,0.0,0.0,0.0,0.0,0.0,0.0,0.0,0.0,0.0,0.0,0.0,0.0,0.0,-0.3599,-0.2818,-0.4302,-0.4771,-0.399,-0.3832,-0.3285,-0.2503,-0.2425,-0.2426,-0.2348,-0.2347,0.0,0.0,0.0,0.0,0.0,0.0628,0.0785,0.0785,0.1021,0.1569,0.2352,0.251,0.3132,0.383,0.0,0.0,0.0,0.0,0.0,0.0,0.0,0.0,0.0,0.0,0.3155,0.3088,0.2885,0.2887,0.2619,0.0,0.0,0.0,0.0,0.0,0.0,0.0,0.0,0.0,0.0,-0.4558,-0.5209,-0.6407,-0.6547,-0.7027,-0.7855,-0.7705,-0.763,-0.7625,-0.7532,0.0,0.0,0.0,0.0,0.0,-0.6745,-0.6679,0.0,0.0,0.0,0.0,-0.6679,-0.6679,0.0,0.0,0.0,0.0,0.0,0.0,0.0,0.0,-0.911,-0.9296,-1.0271,0.0,-1.0421,-1.0496,-1.0196,-0.997,0.0,0.0,0.0,0.0,0.0,-1.0045,-0.9965,-0.997,-0.9895,-0.9669,-0.9669,0.0,0.0,0.0,0.0,0.0,0.0,0.0,0.0,0.0,0.0,0.0,0.0,0.0,0.0,0.0,-0.2815,-0.2582,-0.2973,-0.3051,-0.2895,-0.2817,-0.2737,-0.2503,-0.1879,-0.1488,-0.1253,-0.0627,0.0,0.0,0.0,0.0,0.1568,0.1725,0.2193,0.2737,0.3051,0.3207,0.3443,0.3443,0.3599,0.383,0.0,0.0,0.0,0.0,0.0,0.0,0.0,0.0,0.0,0.0,0.0,0.2686,0.2353,0.2353,0.0,0.0,0.0,0.0,0.0,0.0,0.0,0.0,0.0,0.0,-0.4295,-0.4684,-0.5294,-0.6337,-0.6692,-0.7061,-0.7513,-0.7408,-0.7364,-0.7355,-0.7229,-0.7092,0.0,0.0,0.0,0.0,-0.6486,0.0,0.0,0.0,0.0,0.0,-0.642,-0.642,0.0,-0.642,-0.642,-0.6465,0.0,0.0,0.0,0.0,-0.8103,-0.8246,-0.8689,-0.9145,-0.9599,-0.982,-0.9367,-0.8917,-0.9296,0.0,0.0,0.0,0.0,-0.8765,-0.8689,-0.83,0.0,-0.8304,-0.7681,0.0,0.0,0.0,0.0,0.0,0.0,0.0,0.0,0.0,0.0,0.0,0.0,0.0,0.0,0.0,-0.1801,-0.1332,-0.1332,-0.1567,-0.1957,-0.1957,-0.1722,-0.1332,-0.0392,0.0078,0.0313,0.1175,0.0,0.0,0.0,0.0,0.2582,0.2818,0.3209,0.3595,0.3752,0.4093,0.4451,0.4451,0.4798,0.5322,0.0,0.0,0.0,0.0,0.0,0.0,0.0,0.0,0.0,0.0,0.0,0.0,0.0,0.0,0.0,0.0,0.0,0.0,0.0,0.0,0.0,0.0,0.0,-0.377,-0.4188,-0.4828,-0.553,-0.6069,-0.6706,-0.7081,-0.7105,-0.7081,-0.7052,-0.7019,-0.6802,-0.6631,0.0,0.0,0.0,0.0,-0.642,0.0,0.0,0.0,0.0,0.0,0.0,0.0,0.0,-0.635,-0.637,-0.6489,-0.6664,0.0,0.0,0.0,0.0,0.0,-0.7484,-0.7863,-0.8466,-0.9291,-0.8466,-0.7638,-0.8241,0.0,0.0,0.0,0.0,0.0,0.0,0.0,0.0,0.0,0.0,0.0,0.0,0.0,0.0,0.0,0.0,0.0,0.0,0.0,0.0,0.0,0.0,0.0,0.0,0.0,0.0,0.0235,0.0392,0.0078,-0.0626,-0.0783,-0.047,0.0314,0.1333,0.188,0.188,0.2735,0.3202,0.0,0.0,0.0,0.3673,0.3923,0.4086,0.4245,0.4261,0.4798,0.5456,0.5537,0.6339,0.7353,0.0,0.0,0.0,0.0,0.0,0.0,0.0,0.0,0.0,0.0,0.0,0.0,0.0,0.0,0.0,0.0,0.0,0.0,0.0,0.0,0.0,0.0,-0.3894,-0.4274,-0.4921,-0.55,-0.6202,-0.6996,-0.7094,-0.7261,-0.7399,-0.7253,-0.7102,-0.7023,-0.6995,-0.6814,-0.6652,0.0,0.0,-0.642,-0.642,0.0,0.0,0.0,0.0,0.0,0.0,0.0,0.0,-0.6214,-0.6451,-0.6684,-0.6855,0.0,0.0,0.0,0.0,0.0,-0.7257,-0.6784,-0.6542,-0.7403,-0.7407,-0.7257,-0.7173,0.0,0.0,0.0,0.0,0.0,0.0,0.0,0.0,0.0,0.0,0.0,0.0,0.0,0.0,0.0,0.0,0.0,0.0,0.0,0.0,0.0,0.0,0.0,0.0,0.0,0.0,0.1333,0.2036,0.2425,0.2421,0.1565,0.1333,0.1646,0.2503,0.2969,0.3125,0.3281,0.3515,0.0,0.0,0.4142,0.4776,0.4954,0.5396,0.6125,0.6491,0.6719,0.6826,0.6998,0.7663,0.8664,0.0,0.0,0.0,0.0,0.0,0.0,0.0,0.0,0.0,0.0,0.0,0.0,0.0,0.0,0.0,0.0,0.0,0.0,0.0,0.0,0.0,-0.3961,-0.4289,-0.4748,-0.5507,-0.5867,-0.6452,-0.7224,-0.7322,-0.7407,-0.748,-0.7327,-0.7119,-0.6948,-0.6803,-0.6637,-0.6479,-0.6479,-0.6433,-0.6356,0.0,0.0,0.0,0.0,0.0,0.0,0.0,0.0,0.0,0.0,-0.634,-0.651,-0.6752,0.0,0.0,0.0,0.0,0.0,-0.6325,-0.5696,-0.5148,-0.5464,-0.5622,-0.5696,-0.5538,0.0,0.0,0.0,0.0,0.0,0.0,0.0,0.0,0.0,0.0,0.0,0.0,0.0,0.0,0.0,0.0,0.0,0.0,0.0,0.0,0.0,0.0,0.0,0.0,0.0,0.0,0.0,0.2735,0.3047,0.3279,0.3283,0.3049,0.2581,0.3515,0.3984,0.4139,0.4688,0.5002,0.5165,0.0,0.5492,0.5823,0.6124,0.6427,0.6926,0.7734,0.7741,0.7498,0.8264,0.8891,0.939,0.0,0.0,0.0,0.0,0.0,0.0,0.0,0.0,0.0,0.0,0.0,0.0,0.0,0.0,0.0,0.0,0.0,0.0,0.0,0.0,-0.356,-0.4095,-0.4651,-0.5203,-0.5839,-0.6168,-0.6546,-0.7135,-0.7263,-0.7326,-0.7326,-0.718,-0.703,-0.6903,-0.6757,-0.6589,-0.636,-0.636,-0.6338,-0.6301,0.0,0.0,0.0,0.0,0.0,0.0,0.0,0.0,0.0,0.0,0.0,0.0,0.0,0.0,0.0,-0.6283,-0.5851,-0.5309,-0.5231,-0.4686,-0.3984,-0.3756,0.0,-0.4295,-0.4295,0.0,0.0,0.0,0.0,0.0,0.0,0.0,0.0,0.0,0.0,0.0,0.0,0.0,0.0,0.0,0.0,0.0,0.0,0.0,0.0,0.0,0.0,0.0,0.0,0.0,0.0,0.0,0.3669,0.3826,0.4062,0.4766,0.453,0.3593,0.4608,0.5079,0.5079,0.5944,0.6278,0.6318,0.6424,0.6491,0.6539,0.6936,0.7083,0.717,0.845,0.872,0.861,0.9871,1.0361,1.0448,0.0,0.0,0.0,0.0,0.0,0.0,0.0,0.0,0.0,0.0,0.0,0.0,0.0,0.0,0.0,0.0,0.0,0.0,0.0,0.0,-0.4025,-0.4558,-0.5012,-0.5424,-0.5783,-0.6301,-0.6683,-0.6923,-0.6934,-0.6938,-0.6938,-0.6942,-0.6934,-0.6923,-0.6923,-0.6757,-0.6611,-0.6611,-0.6445,-0.6301,-0.6301,0.0,0.0,0.0,0.0,0.0,0.0,0.0,0.0,0.0,0.0,0.0,0.0,0.0,-0.4595,-0.4603,-0.4528,-0.445,-0.4222,-0.3599,-0.2896,-0.2666,-0.3368,0.0,-0.3908,-0.3673,0.0,0.0,0.0,0.0,0.0,0.0,0.0,0.0,0.0,0.0,0.0,0.0,0.0,0.0,0.0,0.0,0.0,0.0,0.0,0.0,0.0,0.0,0.0,0.0,0.0,0.0,0.0,0.586,0.6103,0.618,0.5709,0.4846,0.5786,0.618,0.6183,0.6261,0.6332,0.6458,0.6468,0.6552,0.6695,0.6848,0.6912,0.7093,0.8611,0.9894,1.1128,1.2095,1.2443,1.2613,0.0,0.0,0.0,0.0,0.0,0.0,0.0,0.0,0.0,0.0,0.0,0.0,0.0,0.0,0.0,0.0,0.0,0.0,0.0,0.0,-0.3892,-0.4888,-0.516,-0.5514,-0.5946,-0.6412,-0.6716,-0.6865,-0.6865,-0.6865,-0.6865,-0.6788,-0.6714,-0.6714,-0.6563,-0.6458,-0.6402,-0.6402,-0.6366,-0.6314,-0.6314,-0.625,0.0,0.0,0.0,0.0,0.0,0.0,0.0,0.0,-0.4589,-0.4392,-0.4392,-0.4264,-0.4062,-0.4062,-0.3675,-0.321,-0.3134,-0.2352,-0.1648,-0.1727,-0.1961,0.0,0.0,0.0,0.0,0.0,0.0,0.0,0.0,0.0,0.0,0.0,0.0,0.0,0.0,0.0,0.0,0.0,0.0,0.0,0.0,0.0,0.0,0.0,0.0,0.0,0.0,0.0,0.0,0.0,0.0,0.618,0.6261,0.6338,0.6409,0.6553,0.6409,0.6338,0.6338,0.6795,0.7192,0.743,0.8015,0.8332,0.8606,0.9055,0.9221,0.9316,1.0163,1.123,1.2186,1.2534,1.2705,1.279,0.0,0.0,0.0,0.0,0.0,0.0,0.0,0.0,0.0,0.0,0.0,0.0,0.0,0.0,0.0,0.0,0.0,0.0,-0.3558,-0.3627,-0.4108,-0.5017,-0.5293,-0.5651,-0.6092,-0.6325,-0.6608,-0.6714,-0.6714,-0.6714,-0.6714,-0.6563,-0.6486,-0.6486,-0.6338,-0.6338,-0.6338,-0.6338,-0.6338,-0.6338,-0.6338,-0.6196,0.0,0.0,0.0,0.0,0.0,0.0,0.0,0.0,-0.3599,-0.3365,-0.3365,-0.3209,-0.2974,-0.2974,-0.2508,-0.1961,-0.1961,-0.1413,-0.0864,0.0,0.0,0.0,0.0,0.0,0.0,0.0,0.0,0.0,0.0,0.0,0.0,0.0,0.0,0.0,0.0,0.0,0.0,0.0,0.0,0.0,0.0,0.0,0.0,0.0,0.0,0.0,0.0,0.0,0.0,0.0,0.0,0.6416,0.6644,0.6644,0.7099,0.7863,0.733,0.7026,0.7103,0.7638,0.8074,0.8471,0.9161,0.9625,0.9984,1.0393,1.0799,1.1144,1.1488,1.2266,1.3137,1.3137,1.3137,1.3222,0.0,0.0,0.0,0.0,0.0,0.0,0.0,0.0,0.0,0.0,0.0,0.0,0.0,0.0,0.0,0.0,0.0,0.0,-0.4287,-0.4628,-0.4889,-0.5017,-0.5509,-0.5874,-0.6027,-0.6179,-0.6338,-0.6338,-0.6338,-0.6338,-0.6338,-0.6338,-0.6338,-0.6338,-0.6338,-0.6338,-0.6338,-0.6338,-0.6338,-0.6261,-0.6261,-0.6261,-0.6183,0.0,0.0,0.0,0.0,0.0,0.0,0.0,-0.321,-0.251,-0.251,-0.1962,-0.1335,-0.1335,-0.11,-0.0864,-0.0864,-0.0707,-0.055,0.0,0.0,0.0,0.0,0.0,0.0,0.0,0.0,0.0,0.0,0.0,0.0,0.0,0.0,0.0,0.0,0.0,0.0,0.0,0.0,0.0,0.0,0.0,0.0,0.0,0.0,0.0,0.0,0.0,0.0,0.0,0.0,0.0,0.748,0.7484,0.794,0.8703,0.8703,0.8703,0.8703,0.8703,0.9077,0.971,0.9705,1.0035,1.0611,1.0611,1.13,1.2328,1.2328,1.3027,1.4088,1.4088,1.4088,1.4088,0.0,0.0,0.0,0.0,0.0,0.0,0.0,0.0,0.0,0.0,0.0,0.0,0.0,0.0,0.0,0.0,0.0,0.0,-0.4287,-0.4504,-0.4849,-0.5375,-0.5755,-0.5983,-0.6027,-0.6179,-0.6338,-0.6338,-0.6338,-0.6338,-0.6338,-0.6338,-0.6338,-0.6338,-0.6338,-0.6338,-0.6338,-0.6338,-0.6338,-0.6261,-0.5631,-0.5395,-0.5318,0.0,0.0,0.0,0.0,0.0,0.0,0.0,0.0,0.0,-0.1649,-0.1492,-0.1335,-0.1335,-0.11,-0.0864,-0.0864,-0.0235,0.0,0.0,0.0,0.0,0.0,0.0,0.0,0.0,0.0,0.0,0.0,0.0,0.0,0.0,0.0,0.0,0.0,0.0,0.0,0.0,0.0,0.0,0.0,0.0,0.0,0.0,0.0,0.0,0.0,0.0,0.0,0.0,0.0,0.0,0.6644,0.7253,0.794,0.8927,0.9458,0.9458,0.8922,0.9533,1.0164,1.0847,1.1502,1.2046,1.2607,1.2693,1.3124,1.3561,1.3561,1.3822,1.4088,1.4088,1.4088,1.4088,0.0,0.0,0.0,0.0,0.0,0.0,0.0,0.0,0.0,0.0,-0.4356,-0.422,0.0,0.0,0.0,0.0,0.0,0.0,-0.4833,-0.4915,-0.5218,-0.5759,-0.5935,-0.6057,-0.6122,-0.6213,-0.6338,-0.6338,-0.6338,-0.6338,-0.6338,-0.6338,-0.6338,-0.6338,-0.6338,-0.6338,-0.6261,-0.5944,-0.5789,-0.5709,-0.4846,-0.4455,-0.4297,0.0,0.0,0.0,0.0,0.0,0.0,0.0,0.0,0.0,-0.1021,-0.1021,-0.1021,-0.1021,-0.0628,-0.0157,-0.0157,0.0627,0.0,0.0,0.0,0.0,0.0,0.0,0.0,0.0,0.0,0.0,0.0,0.0,0.0,0.0,0.0,0.0,0.0,0.0,0.0,0.0,0.0,0.0,0.0,0.0,0.0,0.0,0.0,0.0,0.0,0.0,0.0,0.0,0.0,0.0,0.7859,0.8389,0.914,1.0051,1.0582,1.0582,1.0201,1.0582,1.1171,1.2,1.28,1.3341,1.3659,1.3828,1.3913,1.4088,1.4088,1.4088,1.4088,1.4088,1.4334,1.4664,0.0,0.0,-0.4353,-0.4353,0.0,0.0,0.0,0.0,0.0,0.0,-0.442,-0.4287,0.0,0.0,0.0,-0.442,-0.5036,-0.544,-0.5583,-0.5613,-0.5749,-0.6017,-0.6044,-0.6115,-0.6257,-0.6261,-0.6261,-0.6261,-0.6261,-0.6338,-0.6338,-0.6338,-0.6261,-0.6261,-0.6261,-0.618,-0.6103,-0.5315,-0.4924,-0.4768,-0.3986,-0.3519,-0.3205,-0.235,0.0,0.0,0.0,0.0,0.0,0.0,0.0,0.0,-0.0628,-0.0628,-0.0628,-0.0628,0.0078,0.0862,0.0862,0.0,0.0,0.0,0.0,0.0,0.0,0.0,0.0,0.0,0.0,0.0,0.0,0.0,0.0,0.0,0.0,0.0,0.0,0.0,0.0,0.0,0.0,0.0,0.0,0.0,0.0,0.0,0.0,0.0,0.0,0.0,0.0,0.0,0.0,0.0,1.0067,1.0351,1.087,0.0,1.1706,1.1855,1.2003,1.1855,1.2177,1.3002,1.3718,1.4062,1.4088,1.4088,1.4088,1.4088,1.4088,1.4088,1.4088,1.4088,1.458,1.5311,0.0,0.0,-0.4954,-0.4954,0.0,0.0,0.0,0.0,0.0,0.0,0.0,0.0,0.0,0.0,0.0,-0.516,-0.5403,-0.5555,-0.5589,-0.5806,-0.5962,-0.6027,-0.6146,-0.6146,-0.6018,-0.6018,-0.5944,-0.5715,-0.6106,-0.6338,-0.6338,-0.6338,-0.618,-0.6018,-0.6018,-0.5547,-0.4763,-0.4606,-0.4137,-0.3437,-0.266,-0.2272,-0.2116,-0.1256,-0.0942,0.0,0.0,0.0,0.0,0.0,0.0,0.0,-0.0628,-0.0628,-0.0628,-0.0628,0.0078,0.0862,0.0862,0.219,0.0,0.0,0.0,0.0,0.0,0.0,0.0,0.0,0.0,0.0,0.0,0.0,0.0,0.0,0.0,0.0,0.0,0.0,0.0,0.0,0.0,0.0,0.0,0.0,0.0,0.0,0.0,0.0,0.0,0.0,0.0,0.8475,0.847,0.8699,0.9003,0.9836,1.0426,0.0,1.1552,1.2003,1.2224,1.2003,1.2405,1.3154,1.3506,1.3874,1.4088,1.4088,1.4088,1.4088,1.4088,1.4088,1.4088,1.4088,1.4257,1.4419,0.0,0.0,0.0,0.0,0.0,0.0,0.0,0.0,0.0,0.0,0.0,0.0,0.0,-0.5426,0.0,0.0,-0.5606,-0.5722,-0.5796,-0.5942,-0.5986,-0.598,-0.606,-0.6022,-0.5789,-0.5789,-0.5712,-0.5637,-0.587,-0.5951,0.0,0.0,-0.587,-0.5712,-0.5392,-0.4919,-0.4373,-0.3517,-0.2971,-0.2425,-0.1646,-0.1256,-0.1098,-0.0628,-0.0393,0.0,0.0,0.0,0.0,0.0,0.0,0.0,0.0,0.0,-0.0314,-0.0314,0.0627,0.1644,0.1644,0.0,0.0,0.0,0.0,0.0,0.0,0.0,0.0,0.0,0.0,0.0,0.0,0.0,0.0,0.0,0.0,0.0,0.0,0.0,0.0,0.0,0.0,0.0,0.0,0.0,0.0,0.0,0.0,0.0,0.0,0.8703,0.8856,0.9236,0.9453,0.975,1.0126,1.0881,1.1254,1.1391,1.1922,1.2224,1.2305,1.2377,1.2689,1.3227,1.3514,1.3814,1.4088,1.4088,1.4088,1.4088,1.4088,1.4334,1.4741,1.4741,1.5235,1.5966,0.0,0.0,0.0,0.0,0.0,0.0,0.0,0.0,0.0,0.0,0.0,0.0,0.0,-0.5583,-0.5599,0.0,0.0,0.0,-0.5946,-0.5904,-0.5894,-0.586,-0.5864,-0.5786,-0.5559,-0.5559,-0.5559,-0.5482,0.0,0.0,0.0,0.0,0.0,-0.5323,-0.4455,-0.4059,-0.3748,-0.2349,-0.1725,-0.149,-0.0785,-0.0393,-0.0236,0.0,0.0,0.0,0.0,0.0,0.0,0.0,0.0,0.0,0.0,0.0,0.0392,0.0392,0.1488,0.2737,0.2737,0.0,0.5018,0.0,0.0,0.0,0.0,0.0,0.0,0.0,0.0,0.0,0.0,0.0,0.0,0.0,0.0,0.0,0.0,0.0,0.0,0.0,0.0,0.0,0.0,0.0,0.0,0.0,0.0,0.0,0.9079,0.9155,0.9458,1.0143,1.0501,1.1019,1.1706,1.2077,1.2231,1.2231,1.2305,1.2325,1.2385,1.2632,1.2919,1.3227,1.3514,1.3814,1.4088,1.425,1.4334,1.4334,1.4496,1.4985,1.5643,1.5643,1.6535,1.7755,0.0,0.0,0.0,0.0,0.0,0.0,0.0,0.0,0.0,0.0,-0.6793,-0.6394,-0.6415,-0.5917,-0.564,-0.5762,-0.5911,-0.5932,-0.5722,0.0,0.0,-0.5634,-0.5637,-0.5556,-0.5321,-0.5321,-0.5246,-0.5096,0.0,0.0,0.0,0.0,0.0,-0.4224,0.0,0.0,-0.1722,-0.1488,-0.0941,-0.0236,-0.0157,-0.0079,0.0,0.0,0.0,0.0,0.0,0.0,0.0,0.0,0.0471,0.0,0.0,0.0,0.0,0.2192,0.2893,0.3597,0.0,0.0,0.5018,0.0,0.0,0.0,0.0,0.0,0.0,0.0,0.0,0.0,0.0,0.0,0.0,0.0,0.0,0.0,0.0,0.0,0.0,0.0,0.0,0.0,0.0,0.0,0.0,0.0,0.0,0.0,1.0738,1.0956,1.1105,1.1186,1.1403,1.1558,1.1706,1.1929,1.2003,1.2003,1.2231,1.2438,1.2761,1.2802,1.2919,1.3227,1.3514,1.3814,1.4166,1.4901,1.5235,1.5318,1.6049,1.6453,1.6535,1.6535,1.6698,1.6862,0.0,0.0,0.0,0.0,0.0,0.0,0.0,0.0,0.0,0.0,0.0,-0.765,-0.7342,-0.7136,-0.7081,-0.7159,-0.6734,-0.6225,-0.5695,-0.5604,-0.5559,-0.5401,-0.5401,-0.5323,-0.5171,-0.5171,-0.5093,0.0,0.0,0.0,0.0,-0.3832,-0.3517,0.0,0.0,0.0,0.0,0.0,-0.0314,0.0,0.0,0.0,0.0,0.0,0.0,0.0,0.0,0.0,0.0,0.0,0.0,0.1957,0.1957,0.0,0.0,0.0,0.3127,0.0,0.4457,0.4929,0.5168,0.0,0.0,0.0,0.0,0.0,0.0,0.0,0.0,0.0,0.0,0.0,0.0,0.0,0.0,0.0,0.0,0.0,0.0,0.0,0.0,0.0,0.0,0.0,0.0,0.0,0.0,1.0887,1.126,1.1484,1.1558,1.1558,1.1781,1.1855,1.1855,1.2077,1.215,1.2157,1.2472,1.2921,1.3514,1.386,1.3791,1.346,1.3587,1.3814,1.4173,1.4496,1.4985,1.5477,1.5801,1.6535,1.7423,1.7423,1.7755,1.8158,0.0,0.0,0.0,0.0,0.0,0.0,0.0,0.0,0.0,0.0,0.0,-0.8816,-0.8186,0.0,0.0,0.0,-0.7399,-0.6479,-0.5559,-0.5482,-0.5404,-0.5246,-0.5246,-0.5168,-0.5018,-0.5018,-0.5018,0.0,0.0,0.0,-0.4698,-0.3209,-0.2737,0.0,-0.1644,0.0,0.0,0.0,0.0,0.0,0.0,0.0,0.0,0.0,0.0,0.0,0.0,0.0,0.0,0.0,0.0,0.0,0.0,0.0,0.0,0.0,0.0,0.0,0.0,0.0,0.5246,0.0,0.0,0.0,0.0,0.0,0.0,0.0,0.0,0.0,0.0,0.0,0.0,0.0,0.0,0.0,0.0,0.0,0.0,0.0,0.0,0.0,0.0,0.0,0.0,0.0,0.0,1.1409,1.1484,1.1706,1.1781,1.1781,1.2003,1.2077,1.2077,1.2224,1.2486,1.279,1.3017,1.366,1.4675,1.5087,1.4955,1.4398,1.4398,1.4524,1.4741,1.4985,1.5477,1.6041,1.6288,1.7188,1.8327,1.8327,1.8727,1.9301,0.0,0.0,0.0,0.0,0.0,0.0,0.0,0.0,0.0,0.0,0.0,-0.9276,-0.913,-0.8592,-0.8171,-0.8129,-0.7391,-0.6479,-0.5398,-0.5171,-0.5015,-0.5015,-0.5015,0.0,-0.5018,-0.5018,0.0,0.0,0.0,0.0,-0.383,-0.2895,-0.2113,-0.141,-0.0471,-0.0079,-0.0079,0.0,0.0,0.0,0.0,0.0,0.0,0.0,0.0,0.0,0.0,0.0,0.0,0.0,0.0,0.0,0.0,0.0,0.0,0.0,0.0,0.0,0.0,0.0,0.0,0.0,0.0,0.0,0.0,0.0,0.0,0.0,0.0,0.0,0.0,0.0,0.0,0.0,0.0,0.0,0.0,0.0,0.0,0.0,0.0,0.0,0.0,0.0,0.0,0.0,0.0,1.1484,1.1706,1.1855,1.2003,1.2003,1.215,1.2305,1.2305,1.2298,1.2885,1.4013,1.4028,1.4812,1.6213,1.6245,1.6365,1.6503,1.6503,1.6519,1.6617,1.7432,1.7836,1.7917,1.8807,1.9143,1.9222,1.9222,1.9222,1.9301,0.0,0.0,0.0,0.0,0.0,0.0,0.0,0.0,0.0,0.0,0.0,0.0,0.0,-0.9247,-0.8689,-0.8685,-0.7314,-0.6089,-0.5168,-0.5015,-0.5018,-0.5018,-0.5018,-0.5018,-0.5018,-0.5018,0.0,0.0,0.0,-0.4068,-0.3752,-0.2348,-0.1567,-0.1254,-0.0392,0.0,0.0,0.0,0.0,0.0,0.0,0.0,0.0,0.0,0.0,0.0,0.0,0.0,0.0,0.0,0.0,0.0,0.0,0.0,0.0,0.0,0.0,0.0,0.0,0.0,0.0,0.0,0.0,0.0,0.0,0.0,0.0,0.0,0.0,0.0,0.0,0.0,0.0,0.0,0.0,0.0,0.0,0.0,0.0,0.0,0.0,0.0,0.0,0.0,0.0,0.0,0.0,0.0,1.1855,1.2077,1.2157,1.2157,1.2224,1.2305,1.2305,1.2492,1.2866,1.3279,1.3604,1.4692,1.6269,1.6493,1.7227,1.8407,1.8407,1.7755,1.6698,1.7017,1.7513,1.7997,1.8318,1.8816,1.9301,1.9301,1.9301,1.9301,0.0,0.0,0.0,0.0,0.0,0.0,0.0,0.0,0.0,0.0,0.0,0.0,0.0,0.0,-0.877,-0.808,-0.693,-0.586,-0.5018,-0.5018,-0.5018,-0.5018,-0.5018,-0.5018,-0.5018,0.0,0.0,0.0,0.0,0.0,0.0,-0.1801,-0.1176,-0.0863,-0.0235,0.0,0.0,0.0,0.0,0.0079,0.0,0.0,0.2582,0.0,0.0,0.0,0.0,0.0,0.0,0.0,0.0,0.0,0.0,0.0,0.0,0.0,0.0,0.0,0.0,0.0,0.0,0.0,0.0,0.0,0.0,0.0,0.0,0.0,0.0,0.0,0.0,0.0,0.0,0.0,0.0,0.0,0.0,0.0,0.0,0.0,0.0,0.0,0.0,0.0,0.0,0.0,0.0,0.0,1.2077,1.2224,1.2305,1.2305,1.2305,1.2351,1.2452,1.2948,1.3453,1.3966,1.4627,1.5767,1.7321,1.7476,1.8158,1.9301,1.9301,1.8647,1.7594,1.7594,1.7917,1.8407,1.8407,1.8816,1.9301,1.9301,1.9301,1.9301,0.0,0.0,0.0,0.0,0.0,0.0,0.0,0.0,0.0,0.0,0.0,0.0,0.0,0.0,0.0,-0.6395,-0.6163,-0.5857,-0.5018,-0.5018,-0.5018,-0.5018,-0.5018,-0.5018,-0.5018,0.0,0.0,0.0,0.0,0.0,0.0,0.0,-0.0784,0.0,0.0,0.0,0.0,0.0,0.0,0.0157,0.0,0.2503,0.2738,0.0,0.0,0.0,0.5243,0.5321,0.0,0.0,0.0,0.0,0.0,0.0,0.0,0.0,0.0,0.0,0.0,0.0,0.0,0.0,0.0,0.0,0.0,0.0,0.0,0.0,0.0,0.0,0.0,0.0,0.0,0.0,0.0,0.0,0.0,0.0,0.0,0.0,0.0,0.0,0.0,0.0,0.0,0.0,0.0,1.2077,1.2298,1.2305,1.2305,1.2305,1.2311,1.2533,1.2822,1.3748,1.4912,1.6348,1.7145,1.8205,1.9222,1.9222,1.9301,1.9301,1.9301,1.9301,1.9301,1.9301,1.9301,1.9301,1.9301,1.9301,1.9301,1.9301,1.9301,1.9301,0.0,0.0,0.0,0.0,0.0,0.0,0.0,0.0,0.0,0.0,0.0,0.0,0.0,0.0,-0.7464,-0.6318,-0.5705,-0.5246,-0.5018,-0.5018,-0.5018,-0.5018,-0.5018,-0.5018,-0.5018,0.0,0.0,0.0,0.0,0.0,0.0,0.0,0.0,0.0,0.0,0.0314,0.0862,0.0235,0.0,0.0,0.2113,0.2973,0.0,0.0,0.0,0.0,0.0,0.5479,0.0,0.0,0.5637,0.5559,0.0,0.0,0.0,0.0,0.0,0.0,0.5637,0.0,0.0,0.0,0.0,0.0,0.0,0.7706,0.0,0.0,0.0,0.0,0.0,0.0,0.0,0.0,0.0,0.0,0.0,0.0,0.0,0.0,0.0,0.0,0.0,0.0,0.0,0.0,1.2231,1.2224,1.2305,1.2305,1.2305,1.2305,1.3184,1.364,1.3733,1.5034,1.5921,1.6348,1.6758,1.7413,1.8318,1.8318,1.8727,1.9301,1.9301,1.9301,1.9301,1.9301,1.9301,1.9301,1.9301,1.9301,1.9301,1.9301,1.939,1.9594,0.0,0.0,-1.3192,-1.2175,0.0,0.0,0.0,0.0,0.0,0.0,0.0,0.0,0.0,0.0,0.0,-0.624,-0.5476,-0.5018,-0.5018,-0.5018,-0.5018,-0.5018,-0.5018,-0.5018,-0.5018,0.0,0.0,0.0,0.0,0.0,0.0,0.0,0.0,0.0,0.0392,0.0,0.0,0.0,0.0,0.0,0.2817,0.0,0.0,0.5087,0.5479,0.0,0.0,0.0,0.5867,0.6633,0.6633,0.0,0.0,0.0,0.0,0.0,0.0,0.0,0.0,0.0,0.0,0.0,0.0,0.0,0.8461,0.8618,0.8851,0.0,0.0,0.0,0.0,0.0,0.0,0.0,0.0,0.0,0.0,0.0,0.0,0.0,0.0,0.0,0.0,0.0,0.0,1.2298,1.2305,1.2305,1.2305,1.2305,1.2506,1.3007,1.3708,1.4388,1.505,1.6218,1.6888,1.7037,1.7574,1.8078,1.8567,1.8567,1.8816,1.9301,1.9301,1.9301,1.9301,1.9301,1.9301,1.9301,1.9301,1.9301,1.9301,1.9301,1.939,1.9701,0.0,0.0,-1.2746,-1.2599,-1.1558,-1.0663,0.0,0.0,0.0,0.0,0.0,0.0,0.0,0.0,0.0,0.0,-0.5476,-0.5018,-0.5018,-0.5018,-0.5018,-0.5018,-0.5018,-0.4937,-0.4859,-0.4068,0.0,0.0,0.0,0.0,0.0,0.0,0.0,0.0,0.0941,0.141,0.0,0.0,0.0,0.2893,0.3754,0.4146,0.0,0.0,0.5792,0.0,0.7011,0.6857,0.6475,0.8165,0.8084,0.0,0.0,0.0,0.0,0.0,0.7702,0.0,0.0,0.0,0.0,0.0,0.0,0.0,0.9448,0.976,1.0143,0.0,0.0,0.0,0.0,0.0,0.0,0.0,0.0,0.0,0.0,0.0,0.0,0.0,0.0,0.0,0.0,1.2305,1.2305,1.2305,1.2305,1.2305,1.2305,1.2305,1.281,1.3953,1.414,1.4912,1.6261,1.7248,1.7917,1.8158,1.8895,1.9301,1.9301,1.9301,1.9301,1.9301,1.9301,1.9301,1.9301,1.9301,1.9301,1.9301,1.9301,1.9301,1.9301,1.9301,1.9497,1.9767,-1.4482,-1.4378,-1.3833,-1.2572,-1.2131,-1.1539,0.0,0.0,0.0,0.0,0.0,0.0,0.0,0.0,0.0,0.0,-0.5476,-0.5018,-0.5018,-0.5018,-0.5018,-0.5018,-0.5018,-0.4701,-0.4068,-0.3207,-0.2347,0.0,0.0,0.0,0.0,0.0,0.0,0.0,0.1254,0.2035,0.0,0.0,0.0,0.4693,0.4302,0.0,0.5398,0.6475,0.7015,0.7249,0.8089,0.8318,0.8241,0.0,0.8466,0.8228,0.0,0.0,0.0,0.0,0.0,0.0,0.0,0.0,0.0,0.0,0.0,0.0,0.969,0.9841,1.0143,0.0,0.0,0.0,0.0,0.0,0.0,0.0,0.0,0.0,0.0,0.0,0.0,0.0,0.0,0.0,0.0,1.2305,1.2305,1.2305,1.2305,1.2305,1.2305,1.2305,1.2513,1.3044,1.4653,1.5761,1.6261,1.8057,1.8982,1.9054,1.9222,1.9301,1.9301,1.9301,1.9301,1.9301,1.9301,1.9301,1.9301,1.9301,1.9301,1.9301,1.9301,1.9301,1.9301,1.9301,1.9592,2.0186,-1.3585,-1.3098,-1.2432,-1.1687,-1.1316,-1.0801,0.0,0.0,0.0,0.0,0.0,0.0,0.0,0.0,0.0,0.0,0.0,0.0,0.0,0.0,-0.4857,-0.4384,-0.4384,-0.399,-0.3207,-0.2348,-0.1723,-0.1332,0.0,0.0,0.0,0.0,0.0,0.0,0.0,0.0,0.0,0.0,0.4774,0.5318,0.5467,0.0,0.6475,0.7548,0.8012,0.8169,0.9008,0.9533,0.983,0.9463,0.9231,0.0,0.0,0.9231,0.915,0.0,0.9836,1.0438,0.0,0.0,0.0,0.9986,0.0,0.0,0.0,1.0513,1.0588,1.1037,0.0,0.0,0.0,0.0,0.0,0.0,0.0,0.0,0.0,0.0,0.0,0.0,0.0,0.0,0.0,1.2305,1.2305,1.2305,1.2305,1.2305,1.2305,1.2666,1.3312,1.4241,1.5639,1.685,1.7794,1.8797,1.9301,1.9301,1.9301,1.9301,1.9301,1.9301,1.9301,1.9301,1.9301,1.9301,1.9301,1.9301,1.9301,1.9301,1.9301,1.9301,1.9301,1.939,1.9888,2.0461,-1.2445,-1.1632,-1.0962,-1.0812,-1.0363,-0.9992,-0.9916,0.0,0.0,0.0,0.0,0.0,0.0,0.0,0.0,0.0,0.0,0.0,0.0,0.0,0.0,-0.383,-0.383,-0.3285,-0.227,-0.1644,-0.1254,-0.1019,0.0,0.0,0.0,0.0,0.0,0.0,0.0,0.0,0.0,0.0,0.0,0.555,0.0,0.7088,0.7088,0.8241,0.8703,0.8856,0.9765,1.0513,1.1037,1.0368,0.0,1.0143,1.0143,1.0143,0.0,0.0,0.0,0.0,0.0,0.0,0.0,0.0,0.0,1.1111,0.0,0.0,0.0,1.1111,0.0,0.0,0.0,0.0,0.0,0.0,0.0,0.0,0.0,0.0,0.0,0.0,0.0,0.0,0.0,1.2305,1.2305,1.2305,1.2305,1.2372,1.2519,1.3171,1.42,1.571,1.659,1.7637,1.9045,1.9222,1.9301,1.9301,1.9301,1.9301,1.9301,1.9301,1.9301,1.9301,1.9301,1.9301,1.9301,1.9301,1.9301,1.9301,1.9301,1.9381,1.9399,1.9729,2.0179,2.0828,-1.1706,-1.1706,-1.1409,-1.0887,-1.0738,-1.0513,-0.9992,0.0,0.0,0.0,0.0,0.0,0.0,0.0,0.0,0.0,0.0,0.0,-0.4937,0.0,0.0,-0.383,-0.383,-0.3051,-0.1488,-0.1332,-0.0941,-0.0157,0.0157,0.0,0.0,0.0,0.0,0.0,0.3906,0.0,0.0,0.0,0.5634,0.0,0.7621,0.7391,0.0,0.8008,0.8703,0.8927,1.0432,1.1037,1.1111,0.0,1.0962,1.0962,0.0,1.0962,0.0,0.0,0.0,0.0,0.0,0.0,0.0,0.0,1.1111,0.0,0.0,0.0,1.1111,1.1111,0.0,0.0,0.0,0.0,0.0,0.0,0.0,0.0,0.0,0.0,0.0,0.0,0.0,0.0,0.0,0.0,1.2305,1.2305,1.2305,1.2592,1.3317,1.3462,1.42,1.565,1.6514,1.7329,1.8158,1.8895,1.9301,1.9301,1.9301,1.9301,1.9301,1.9301,1.9301,1.9301,1.9301,1.9301,1.9301,1.9301,1.9301,1.9301,1.9478,1.9557,1.9604,2.0287,2.0756,2.1256,-1.1186,-1.0887,-1.0588,-1.0293,-1.0293,-1.0218,0.0,0.0,0.0,0.0,0.0,0.0,0.0,0.0,0.0,0.0,0.0,-0.391,0.0,0.0,0.0,0.0,-0.3051,0.0,-0.0392,-0.0392,-0.0157,0.0314,0.0471,0.0,0.0,0.0,0.0,0.0,0.4535,0.0,0.5786,0.0,0.0,0.0,0.0,0.0,0.0,0.9221,1.0056,1.0207,1.0887,1.1111,1.1111,0.0,1.1111,0.0,0.0,0.0,0.0,0.0,0.0,0.0,0.0,0.0,0.0,0.0,0.0,0.0,0.0,0.0,1.1111,0.0,0.0,0.0,0.0,0.0,0.0,0.0,0.0,0.0,0.0,0.0,0.0,0.0,0.0,0.0,0.0,0.0,0.0,0.0,0.0,1.331,1.4106,1.4609,1.53,1.6421,1.7203,1.8029,1.8727,1.9134,1.9301,1.9301,1.9301,1.9301,1.9301,1.9301,1.9301,1.9301,1.9301,1.9301,1.9301,1.9301,1.9301,1.9301,1.9557,1.9566,1.9692,2.0344,2.0914,2.1489,-1.0663,0.0,0.0,0.0,0.0,0.0,0.0,0.0,0.0,0.0,0.0,0.0,-0.5914,-0.5165,0.0,0.0,0.0,-0.319,0.0,0.0,-0.2844,0.0,0.0,0.0,0.0,0.0,0.0471,0.0628,0.0629,0.0,0.0,0.0,0.0,0.0,0.0,0.587,0.6022,0.0,0.0,0.6402,0.7472,0.8192,0.8784,1.0307,1.0994,1.1226,1.1226,1.1226,1.1214,1.1135,1.1111,0.0,1.1111,0.0,0.0,0.0,0.0,0.0,1.1111,0.0,0.0,0.0,0.0,0.0,0.0,0.0,0.0,0.0,0.0,0.0,0.0,0.0,0.0,0.0,0.0,0.0,0.0,0.0,0.0,0.0,0.0,0.0,0.0,0.0,0.0,0.0,0.0,0.0,1.4895,1.5471,1.6258,1.7261,1.7821,1.8504,1.9292,1.9301,1.9301,1.9301,1.9301,1.9301,1.9301,1.9301,1.9301,1.9301,1.9301,1.9301,1.9301,1.9301,1.9301,1.939,1.9636,1.9715,1.986,2.0628,2.1081,2.1582,-1.0218,-1.0067,0.0,0.0,0.0,0.0,0.0,0.0,0.0,0.0,0.0,0.0,0.0,0.0,0.0,0.0,0.0,-0.1676,-0.2511,0.0,-0.1378,0.0,0.0,-0.0549,0.0,0.0,0.0,0.0628,0.0786,0.0,0.0,0.0,0.0,0.0,0.0,0.6261,0.6338,0.7099,0.7407,0.7561,0.916,1.0444,1.1283,0.0,1.0806,1.1516,1.1516,0.0,0.0,1.1202,1.1111,0.0,0.0,0.0,0.0,0.0,0.0,0.0,0.0,0.0,0.0,1.1111,0.0,0.0,0.0,0.0,1.1111,0.0,0.0,0.0,0.0,0.0,0.0,0.0,0.0,0.0,0.0,0.0,0.0,0.0,0.0,0.0,0.0,0.0,0.0,0.0,0.0,0.0,1.5692,1.5762,1.6482,1.8026,1.8128,1.8504,1.9292,1.9301,1.9301,1.9301,1.9301,1.9301,1.9301,1.9301,1.9301,1.9301,1.9301,1.9301,1.9301,1.9301,1.939,1.9636,1.9794,2.0029,2.0361,2.1178,2.1486,2.162,-1.0443,0.0,0.0,0.0,0.0,0.0,0.0,-0.7927,0.0,0.0,0.0,0.0,0.0,0.0,-0.3439,0.0,0.0,-0.1428,-0.168,-0.1251,0.0,0.0,0.0,-0.0321,0.0,0.0,0.0,0.0,0.0,0.0,0.0,0.0,0.0,0.0,0.0,0.6338,0.0,0.0,0.0,0.0,0.0,1.0846,1.169,0.0,0.0,1.1787,1.1787,1.1787,0.0,1.1679,1.1534,1.1389,1.1389,1.1262,1.1111,1.1111,1.1111,0.0,0.0,0.0,1.1111,1.1111,0.0,0.0,0.0,0.0,0.0,0.0,0.0,0.0,0.0,0.0,0.0,0.0,0.0,0.0,0.0,0.0,0.0,0.0,0.0,0.0,0.0,0.0,0.0,0.0,0.0,0.0,0.0,1.6551,1.6991,1.81,1.8128,1.8504,1.9292,1.9301,1.9301,1.9301,1.9301,1.9301,1.9301,1.9301,1.9301,1.9301,1.9301,1.9301,1.9301,1.9469,1.9557,1.9645,1.9784,2.0112,2.0585,2.124,2.1617,2.1909,-1.0207,0.0,0.0,0.0,0.0,0.0,0.0,0.0,0.0,0.0,-0.5502,0.0,-0.4026,0.0,-0.2527,0.0,-0.1049,-0.087,-0.087,-0.0687,0.0,-0.0851,-0.0416,0.0,0.0,0.0,0.0,0.0,0.0,0.2666,0.0,0.0,0.0,0.0,0.0,0.0,0.0,0.0,0.8132,0.0,0.0,1.134,0.0,0.0,1.1914,1.2065,0.0,1.2065,1.2047,1.1956,1.1811,1.1673,1.1673,1.1546,1.1401,1.1401,1.1401,1.1401,1.1401,1.1478,0.0,1.1554,1.1554,0.0,1.163,0.0,0.0,0.0,0.0,0.0,0.0,0.0,0.0,0.0,0.0,0.0,0.0,1.4394,0.0,0.0,0.0,0.0,0.0,0.0,0.0,0.0,0.0,0.0,0.0,0.0,1.7284,1.81,1.8128,1.8504,1.9292,1.9301,1.9301,1.9301,1.9301,1.9301,1.9301,1.9301,1.9301,1.9301,1.9381,1.939,1.939,1.9636,1.9794,1.9872,2.0029,2.0366,2.0876,2.1288,2.181,2.2412,-0.9593,-0.8613,0.0,0.0,-0.9231,0.0,0.0,0.0,-0.6314,0.0,-0.4982,-0.4029,-0.3935,-0.2465,-0.1398,-0.133,-0.0562,0.0,0.0,0.0,0.0,0.0,0.0427,0.0675,0.0675,0.0,0.0,0.0,0.0,0.0,0.0,0.0,0.0,0.0,0.6338,0.0,0.7561,0.8408,0.9381,1.0477,1.1517,1.2095,1.233,1.233,1.233,1.233,1.233,1.233,1.2294,1.2047,1.195,1.1944,1.1944,1.1932,1.192,1.192,1.192,1.192,1.1926,1.2086,1.2332,1.2332,0.0,0.0,0.0,0.0,1.2876,0.0,0.0,0.0,0.0,0.0,0.0,0.0,0.0,0.0,0.0,0.0,0.0,0.0,0.0,0.0,0.0,0.0,0.0,0.0,0.0,0.0,0.0,0.0,1.7284,1.81,1.8128,1.8504,1.9292,1.9301,1.9301,1.9301,1.9301,1.9301,1.9301,1.9301,1.9301,1.9301,1.9557,1.9645,1.9645,1.9872,2.0098,2.0264,2.0371,2.0731,2.1267,2.1482,2.2233,2.3135,-0.9079,-0.8466,-0.7931,0.0,-0.7169,-0.6821,0.0,0.0,0.0,0.0,-0.4363,-0.358,-0.2284,-0.1679,-0.1136,-0.0381,-0.0095,0.0,0.0,0.0,0.0,0.0273,0.0704,0.095,0.095,0.1183,0.0,0.1303,0.0,0.0,0.383,0.0,0.0,0.0,0.0,0.0,0.7569,0.8554,1.0094,1.1787,1.2104,1.2367,0.0,0.0,1.2602,1.2602,1.2602,1.2602,1.2596,1.2524,1.2373,1.221,1.221,1.2077,1.192,1.192,1.192,1.192,1.2166,1.2252,1.2332,1.2492,1.2571,1.2571,0.0,0.0,0.0,0.0,0.0,0.0,0.0,0.0,0.0,0.0,0.0,0.0,0.0,0.0,0.0,0.0,0.0,0.0,0.0,0.0,0.0,0.0,0.0,0.0,0.0,0.0,0.0,1.81,1.8128,1.8504,1.9292,1.9301,1.9301,1.9301,1.9301,1.9301,1.9301,1.9301,1.9381,1.9557,1.9566,1.9715,1.9863,2.0108,2.0264,2.0371,2.0779,2.1442,2.2197,2.2211,2.259,2.3135,-0.8246,0.0,0.0,-0.627,0.0,0.0,-0.5824,0.0,0.0,-0.4816,-0.4119,0.0,-0.2172,-0.1341,-0.0581,0.0,0.0,0.0,0.0,0.0,0.0,0.0375,0.0728,0.1073,0.1609,0.1821,0.0,0.2591,0.0,0.0,0.4446,0.0,0.0,0.0,0.0,0.6754,0.0,0.9232,1.0561,1.1738,1.2266,0.0,0.0,1.2705,1.2705,1.2705,1.2705,1.2705,1.2705,1.2705,1.2608,1.2481,1.2481,1.2379,1.2264,1.2264,1.2264,1.2346,1.2599,1.2688,1.2852,1.3016,1.3179,1.3267,1.3267,1.3662,1.4135,0.0,0.0,0.0,0.0,0.0,0.0,0.0,0.0,0.0,0.0,0.0,0.0,0.0,0.0,0.0,0.0,0.0,0.0,0.0,0.0,0.0,0.0,0.0,0.0,1.81,1.8128,1.8504,1.9292,1.9301,1.9301,1.9301,1.9301,1.9381,1.939,1.939,1.9548,1.9715,1.9872,1.9951,2.0098,2.0342,2.0527,2.0769,2.1471,2.209,2.2539,2.2715,2.2939,2.3135,-0.7316,0.0,0.0,0.0,0.0,0.0,0.0,-0.5099,0.0,-0.5112,0.0,-0.2639,-0.2634,-0.1081,0.0,0.0,0.0,0.0,0.0,0.0,0.0191,0.0479,0.0751,0.1483,0.2495,0.2853,0.0,0.0,0.0,0.0,0.0,0.0,0.0,0.0,0.0,0.0,0.0,1.0053,1.0993,0.0,1.2269,1.2705,1.2705,1.2705,1.2705,1.2705,1.2705,1.2705,1.2705,1.2705,1.2705,1.2705,1.2705,1.2705,1.2705,1.2705,1.2705,1.279,1.3052,1.3307,1.3483,1.3652,1.3913,1.4088,1.4088,1.4173,1.4496,1.5228,1.5249,1.5373,0.0,0.0,0.0,0.0,0.0,0.0,0.0,0.0,0.0,0.0,0.0,0.0,0.0,0.0,0.0,0.0,0.0,0.0,0.0,0.0,0.0,1.81,1.8174,0.0,1.9292,0.0,1.9301,1.9301,1.9301,1.939,1.9557,1.9557,1.9636,1.9863,2.0108,2.0264,2.0352,2.0557,2.0947,2.1475,2.2217,2.2549,2.2637,2.2998,2.3135,2.3135,0.0,0.0,0.0,0.0,0.0,-0.4157,-0.4303,-0.3634,-0.296,-0.2288,-0.1896,-0.1362,-0.0588,-0.0199,0.0,0.0,0.0,0.0,0.0,0.0,0.0,0.0684,0.1818,0.2535,0.2866,0.3756,0.4214,0.0,0.0,0.0,0.0,0.0,0.0,0.0,0.0,0.0,0.9438,1.0439,0.0,1.2383,1.2601,1.2705,1.2705,1.2705,1.2705,1.2705,1.2705,1.2705,1.2705,1.2705,1.2705,1.2705,1.2705,1.2705,1.2705,1.2705,1.2705,1.279,1.3222,1.3398,1.3483,1.3913,1.4088,1.4088,1.4088,1.4657,1.5235,1.5394,1.5913,1.6195,1.5636,0.0,0.0,0.0,0.0,0.0,0.0,0.0,0.0,0.0,0.0,0.0,0.0,0.0,0.0,0.0,0.0,0.0,0.0,0.0,0.0,0.0,1.844,0.0,0.0,0.0,1.9301,1.9301,1.9301,1.9301,1.9381,1.9381,1.9469,1.9636,1.9715,1.9951,2.0293,2.0709,2.1399,2.2305,2.2451,2.2725,2.3037,2.3105,2.3135,2.3135,0.0,0.0,0.0,0.0,0.0,0.0,0.0,-0.1866,0.0,-0.2187,-0.1743,-0.1279,-0.0895,-0.0301,0.0,0.0,0.0,0.0,0.0,0.0301,0.0797,0.1592,0.2341,0.0,0.4567,0.503,0.5471,0.5899,0.0,0.0,0.0,0.0,0.0,0.0,0.0,0.8026,0.0,0.0,0.0,1.2015,1.2534,1.2705,1.2705,1.2705,1.2705,1.2705,1.2705,1.2705,1.2705,1.2705,1.2705,1.2705,1.2705,1.2705,1.2705,1.2705,1.279,1.2966,1.3307,1.3476,1.3652,1.3997,1.4088,1.4088,1.4088,1.4412,1.4741,1.4741,1.5394,1.5884,1.5477,1.5666,0.0,0.0,0.0,0.0,0.0,0.0,0.0,0.0,0.0,0.0,0.0,0.0,0.0,0.0,0.0,0.0,0.0,0.0,0.0,0.0,0.0,0.0,0.0,0.0,0.0,1.9301,1.9301,1.9381,1.9478,1.9478,1.9548,1.9803,2.0019,2.0273,2.063,2.1448,2.2045,2.2539,2.2754,2.2959,2.3135,2.3135,2.3135,2.3135,0.0,-0.5758,0.0,0.0,-0.3257,0.0,-0.1531,-0.0583,-0.0589,-0.2154,-0.1671,-0.119,-0.1209,-0.0505,0.0,0.0,0.0,0.0,0.0,0.0505,0.1311,0.2315,0.3174,0.4417,0.6158,0.6253,0.6685,0.0,0.0,0.0,0.0,0.0,0.0,0.0,0.0,0.0,0.0,0.0,1.1413,1.1671,1.2363,1.2705,1.2705,1.2705,1.2705,1.2705,1.2705,1.2705,1.2705,1.2705,1.2705,1.2705,1.2705,1.2705,1.2705,1.279,1.2966,1.3155,1.3468,1.3658,1.3841,1.417,1.4275,1.4275,1.4275,1.4275,1.4255,1.4195,1.4706,1.5235,1.5636,1.6206,0.0,0.0,0.0,0.0,0.0,0.0,0.0,0.0,0.0,0.0,0.0,0.0,0.0,0.0,0.0,0.0,0.0,0.0,0.0,0.0,0.0,1.899,1.9292,0.0,1.9301,0.0,1.9301,1.9381,1.9557,1.9566,1.9762,2.0023,2.0424,2.0833,2.1216,2.2142,2.2568,2.2676,2.3008,2.3135,2.3135,2.3135,2.3135,2.3135,0.0,0.0,0.0,0.0,0.0,0.0,0.0,-0.0588,-0.0098,-0.0294,-0.0199,-0.0101,-0.0101,-0.0101,0.0,0.0,0.0,0.0,0.0,0.1411,0.2316,0.2416,0.4718,0.6069,0.6158,0.7102,0.7543,0.0,0.0,0.0,0.0,0.0,0.0,0.0,0.0,0.0,0.0,1.1225,1.1757,1.2619,1.2619,1.2705,1.2705,1.2705,1.2705,1.2705,1.2705,1.2705,1.2705,1.2705,1.2705,1.2705,1.2705,1.2705,1.279,1.2966,1.3052,1.3278,1.397,1.4128,1.4281,1.4816,1.4883,1.4883,1.4883,1.4883,1.4803,1.4536,1.4354,1.4741,1.6288,1.6617,1.7172,0.0,0.0,0.0,0.0,0.0,0.0,0.0,0.0,0.0,0.0,0.0,0.0,0.0,0.0,0.0,0.0,0.0,0.0,1.866,0.0,1.9265,1.9301,1.9301,1.9301,1.9301,1.9301,1.9301,1.9301,1.9557,1.9851,2.0286,2.0476,2.1177,2.2072,2.2395,2.2734,2.3086,2.3125,2.3135,2.3135,2.3135,2.3135,2.3135,0.0,0.0,0.0,0.0,0.0,0.0,0.0,-0.02,0.0,0.0,0.0,0.0,0.0,0.0,0.0,0.0,0.0,0.0101,0.0202,0.1612,0.2716,0.3518,0.5427,0.6714,0.7254,0.7664,0.7753,0.0,0.0,0.0,0.0,0.0,0.0,0.0,0.0,1.0631,1.1327,1.1929,1.2357,1.2705,1.2705,1.2705,1.2723,1.2892,1.2958,1.2976,1.3133,1.3194,1.3194,1.3194,1.3085,1.2958,1.2958,1.3155,1.3465,1.3554,1.3812,1.4096,1.4389,1.4606,1.4728,1.4937,1.4963,1.4963,1.4963,1.4963,1.493,1.481,1.5203,1.5648,1.6047,1.71,1.8026,0.0,0.0,0.0,0.0,0.0,0.0,0.0,0.0,0.0,0.0,0.0,0.0,0.0,0.0,0.0,0.0,0.0,0.0,1.8715,0.0,1.9301,1.9301,1.9301,1.9301,1.9301,1.9301,1.951,1.9928,2.0009,2.0454,2.1249,2.1417,2.192,2.2553,2.2804,2.2988,2.3135,2.3135,2.3135,2.3135,2.3135,2.3135,2.3135,-0.2803,0.0,-0.2272,0.0,-0.11,-0.0908,-0.0101,0.0,0.0,0.0,0.0,0.0,0.0,0.0,0.0,0.0,0.0,0.0202,0.0807,0.2115,0.3518,0.4822,0.6132,0.0,0.7939,0.7933,0.7858,0.7811,0.76,0.0,0.0,0.0,0.0,0.0,1.0279,1.123,1.1763,1.2531,1.2825,1.2831,1.291,1.2946,1.2964,1.3163,1.3236,1.3266,1.3447,1.3513,1.3513,1.3513,1.3441,1.3338,1.3355,1.3644,1.3888,1.4063,1.4327,1.4611,1.4786,1.4993,1.511,1.5197,1.5217,1.5217,1.5217,1.5217,1.5197,1.511,1.5542,1.6015,1.5966,1.7125,1.8145,1.8121,0.0,0.0,0.0,0.0,0.0,0.0,0.0,1.8966,1.8966,0.0,0.0,0.0,0.0,0.0,0.0,0.0,0.0,0.0,0.0,0.0,0.0,1.9381,1.9445,1.9565,1.9565,1.9938,2.0602,2.0733,2.1277,2.2007,2.2303,2.2611,2.2882,2.3057,2.3135,2.3135,2.3135,2.3135,2.3135,2.3135,2.3135,2.3222,-0.1807,-0.1613,-0.131,-0.0202,0.0,0.0,0.0,0.0,0.0,0.0,0.0,0.0,0.0,0.0,0.0,0.0,0.0,0.0605,0.1913,0.3215,0.4618,0.0,0.0,0.7939,0.8038,0.8038,0.7963,0.7811,0.0,0.0,0.7366,0.0,0.8097,0.9923,0.9923,1.0966,1.2723,1.3,1.3121,1.3139,1.3399,1.3507,1.3507,1.3507,1.3513,1.3513,1.3513,1.3513,1.3513,1.3513,1.3682,1.3851,1.3872,1.3882,1.3973,1.4501,1.4591,1.4746,1.5219,1.5391,1.5464,1.5745,1.5818,1.5818,1.5818,1.5818,1.5738,1.5451,1.5164,1.5315,1.6176,1.6766,1.7375,1.8287,0.0,0.0,0.0,0.0,0.0,0.0,1.9557,1.9557,1.9557,0.0,0.0,0.0,0.0,0.0,0.0,0.0,0.0,1.9292,1.9301,0.0,1.9301,1.9478,1.9851,2.0261,2.0242,2.0529,2.1191,2.1882,2.2254,2.2539,2.2949,2.3135,2.3135,2.3135,2.3135,2.3135,2.3135,2.3135,2.3135,2.3135,2.3135,2.3135,-0.0615,-0.0514,-0.0413,-0.0105,0.0,0.0,0.0,0.0,0.0,0.0,0.0,0.0,0.0,0.0,0.0303,0.0,0.111,0.1713,0.0,0.4422,0.5422,0.6234,0.7338,0.8038,0.8038,0.8038,0.8014,0.7967,0.0,0.0,0.0,0.8838,0.9808,1.0443,1.1801,1.2713,1.326,1.335,1.3393,1.3399,1.3483,1.3513,1.3538,1.3713,1.3779,1.3803,1.3984,1.4051,1.4051,1.4051,1.4105,1.4159,1.4364,1.4528,1.4722,1.491,1.5184,1.5478,1.5665,1.5691,1.5712,1.5805,1.5832,1.5832,1.5832,1.5832,1.5805,1.5712,1.6171,1.6586,1.6538,1.73,1.8033,1.8744,1.8797,0.0,0.0,0.0,0.0,0.0,0.0,1.939,0.0,1.9557,0.0,0.0,0.0,0.0,0.0,0.0,0.0,0.0,1.939,0.0,1.9975,1.9975,2.0261,2.0671,2.0495,2.0792,2.1447,2.2053,2.233,2.2427,2.2736,2.2891,2.2882,2.3057,2.3135,2.3135,2.3135,2.3135,2.3135,2.3135,2.3135,2.3222,0.0,0.0,0.0,0.0,0.0,0.0,0.0,0.0,0.0,0.0,0.0426,0.0639,0.0639,0.1044,0.0,0.1646,0.2057,0.2972,0.4573,0.528,0.6073,0.6939,0.7637,0.8038,0.8038,0.0,0.0,0.8038,0.7943,0.7821,0.7678,0.8985,0.9694,1.0089,1.166,1.2586,1.2962,1.3433,1.3664,1.367,1.3767,1.3809,1.3827,1.399,1.4051,1.4075,1.4238,1.4298,1.4298,1.4298,1.4298,1.4298,1.4496,1.479,1.5083,1.5172,1.5452,1.573,1.5737,1.5832,1.5832,1.5832,1.5832,1.5832,1.5832,1.5832,1.5832,1.5832,1.6298,1.6706,1.6408,1.7098,1.785,1.8608,1.8692,1.9037,1.998,0.0,0.0,0.0,0.0,0.0,0.0,1.9557,0.0,0.0,0.0,0.0,0.0,0.0,0.0,1.9531,1.9629,0.0,2.0402,2.0393,2.0671,2.109,2.1324,2.154,2.1966,2.2494,2.2696,2.2706,2.2882,2.2882,2.2882,2.3047,2.3135,2.3135,2.3135,2.3135,2.3135,2.3135,2.3135,2.3135,0.0,0.0,0.0,0.0,0.0,0.0,0.0,0.0107,0.0107,0.0107,0.1175,0.192,0.192,0.2986,0.3305,0.2133,0.0,0.0,0.0,0.5899,0.6567,0.7962,0.8055,0.8052,0.8038,0.8038,0.8038,0.8038,0.8038,0.7967,0.7828,0.7921,0.8321,0.9202,1.0315,1.1241,1.2189,1.3356,1.393,1.3954,1.4201,1.4298,1.4298,1.4298,1.4298,1.4298,1.4298,1.4298,1.4298,1.4298,1.4298,1.4298,1.4298,1.4688,1.5077,1.5356,1.554,1.554,1.5737,1.5832,1.5832,1.5832,1.5832,1.5832,1.5832,1.5832,1.5832,1.5832,1.5832,1.5832,1.5832,1.6337,1.7047,1.8041,1.8729,1.9444,2.0389,0.0,0.0,0.0,0.0,0.0,0.0,1.965,1.9641,0.0,0.0,0.0,0.0,0.0,1.9968,1.9962,1.9971,2.0163,2.0558,2.0717,2.109,2.1509,2.2339,2.2794,2.2803,2.2969,2.3047,2.3047,2.3057,2.3047,2.3047,2.3047,2.3135,2.3135,2.3135,2.3135,2.3135,2.3135,2.3154,2.3184,0.0,0.0,0.0,0.0,0.0,0.0,0.0,0.0775,0.1328,0.1328,0.2434,0.3206,0.3206,0.42,0.4863,0.4533,0.4747,0.5512,0.7072,0.7177,0.7538,0.8221,0.8214,0.816,0.8041,0.8038,0.8038,0.8038,0.8038,0.8021,0.7984,0.8765,0.9714,1.0734,1.1793,1.2756,1.3726,1.4082,1.4208,1.4208,1.4268,1.4298,1.4298,1.4298,1.4298,1.4298,1.4298,1.4298,1.4298,1.4298,1.4298,1.4298,1.4496,1.4688,1.4885,1.5077,1.5452,1.573,1.5825,1.5832,1.5832,1.5832,1.5832,1.5832,1.5832,1.5832,1.5832,1.5832,1.5832,1.5832,1.5832,1.6518,1.7487,1.8485,1.919,1.9922,2.0798,2.0622,0.0,0.0,2.0375,2.032,2.032,2.0393,2.0393,0.0,0.0,0.0,0.0,2.0532,2.0523,2.0374,2.0541,2.081,2.1228,2.1237,2.1451,2.1947,2.2306,2.253,2.253,2.253,2.253,2.2618,2.2794,2.2882,2.2882,2.3057,2.3135,2.3135,2.3135,2.3135,2.3135,2.3135,2.335,2.3633,0.0,0.0,0.0,0.0,0.0448,0.0784,0.0784,0.1791,0.2573,0.2573,0.3692,0.4475,0.4475,0.5481,0.6262,0.6262,0.6155,0.6609,0.7633,0.7736,0.7886,0.8374,0.8306,0.8231,0.8147,0.8075,0.8038,0.8038,0.8038,0.8038,0.8038,0.9118,0.9899,1.0489,1.2047,1.3022,1.3607,1.41,1.4298,1.4298,1.4298,1.4298,1.4298,1.4298,1.4298,1.4298,1.4298,1.4298,1.4298,1.4298,1.4298,1.4394,1.4592,1.479,1.4981,1.5172,1.5452,1.5635,1.5737,1.5832,1.5832,1.5832,1.5832,1.5832,1.5832,1.5832,1.5832,1.5832,1.5832,1.592,1.6393,1.6951,1.7785,1.9247,1.9726,2.0314,2.1216,2.1044,0.0,2.0787,2.0631,2.0521,2.0521,2.0596,2.0596,2.0521,0.0,0.0,2.0787,2.1047,2.1151,2.0967,2.1042,2.1409,2.1917,2.1839,2.2048,2.2451,2.253,2.2618,2.2706,2.2706,2.2706,2.2696,2.2882,2.2969,2.2969,2.3047,2.3135,2.3135,2.3135,2.3262,2.3437,2.3437,2.3711,2.4072,0.0,0.0,0.0112,0.0224,0.112,0.1903,0.2015,0.3134,0.3916,0.3916,0.4921,0.5706,0.5706,0.6596,0.7154,0.7154,0.7154,0.7332,0.7768,0.7871,0.8025,0.8523,0.8381,0.8292,0.8272,0.8119,0.8038,0.8038,0.8038,0.8038,0.8233,0.9217,0.9805,1.0194,1.195,1.2829,1.3022,1.3908,1.4298,1.4298,1.4298,1.4298,1.4298,1.4298,1.4298,1.4298,1.4298,1.4298,1.4298,1.4298,1.4298,1.4394,1.4694,1.4981,1.5178,1.5452,1.554,1.554,1.5737,1.5832,1.5832,1.5832,1.5832,1.5832,1.5832,1.5832,1.5832,1.5832,1.592,1.6298,1.7138,1.7505,1.8334,1.9977,2.0439,2.0808,2.1553,0.0,2.12,2.12,2.0906,2.0704,2.0704,2.0704,2.0704,2.0704,2.1016,2.12,2.12,2.1539,2.1664,2.1565,2.1556,2.1811,2.2432,2.2441,2.253,2.2715,2.2803,2.2882,2.3057,2.3057,2.3135,2.3135,2.3135,2.3135,2.3135,2.3135,2.3184,2.3242,2.3242,2.3506,2.3887,2.3887,2.415,2.4521,0.0,0.0,0.0336,0.1344,0.1679,0.2127,0.3132,0.4364,0.5146,0.5146,0.6151,0.6932,0.6932,0.7043,0.7154,0.7154,0.7154,0.7368,0.7904,0.8014,0.8172,0.8682,0.853,0.8394,0.8272,0.8119,0.8038,0.8038,0.8038,0.8432,0.9312,0.9509,1.0583,1.2242,1.2533,1.3216,1.41,1.4202,1.4298,1.4298,1.4298,1.4298,1.4298,1.4298,1.4298,1.4298,1.4298,1.4298,1.4298,1.4298,1.449,1.4688,1.4987,1.5267,1.5452,1.5737,1.5737,1.573,1.5825,1.5832,1.5832,1.5832,1.5832,1.5832,1.5832,1.5832,1.5832,1.5832,1.6487,1.7138,1.7232,1.8696,1.9977,2.0249,2.0988,2.1553,2.1651,0.0,2.164,2.164,2.1585,2.1548,2.1548,2.1548,2.1548,2.1548,2.1603,2.164,2.164,2.1704,2.1793,2.2003,2.1994,2.211,2.2441,2.2441,2.2441,2.2441,2.2706,2.2803,2.2891,2.3057,2.3135,2.3135,2.3135,2.3135,2.3135,2.3135,2.3359,2.3691,2.3691,2.3945,2.4316,2.4316,2.46,2.4971,0.0896,0.1009,0.1344,0.2574,0.3357,0.3916,0.4475,0.5592,0.6374,0.6374,0.6821,0.7154,0.7154,0.7154,0.7154,0.7154,0.7379,0.7601,0.7934,0.8045,0.8238,0.8835,0.8686,0.8499,0.8275,0.8119,0.8038,0.8038,0.8531,0.9118,0.9608,1.0779,1.1755,1.2727,1.3318,1.3806,1.4298,1.4298,1.4298,1.4298,1.4298,1.4298,1.4298,1.4298,1.4298,1.4298,1.4298,1.4298,1.4298,1.4298,1.4496,1.479,1.4987,1.5267,1.554,1.573,1.5832,1.5832,1.5832,1.5832,1.5832,1.5832,1.5832,1.5832,1.5832,1.5832,1.592,1.6487,1.6951,1.7606,1.8703,1.9704,2.0439,2.0988,2.1454,0.0,0.0,2.1741,2.1741,2.1741,2.1741,2.1741,2.1741,2.1741,2.1741,2.1741,2.1741,2.1741,2.1741,2.1741,2.1741,2.1919,2.2097,2.2353,2.2441,2.2441,2.2441,2.2441,2.253,2.2618,2.2618,2.2696,2.2706,2.2696,2.2882,2.3095,2.3299,2.3397,2.374,2.4121,2.4121,2.4385,2.4766,2.4766,2.5049,2.543,0.2015,0.2239,0.2574,0.3804,0.481,0.5483,0.5817,0.6596,0.7154,0.7154,0.7154,0.7154,0.7154,0.7154,0.7154,0.7154,0.7493,0.7715,0.7934,0.8045,0.8377,0.8826,0.8794,0.8587,0.8326,0.8201,0.8223,0.8389,0.9275,0.9842,1.0391,1.195,1.2829,1.3125,1.3972,1.4395,1.4395,1.4461,1.4485,1.4485,1.4485,1.4485,1.4485,1.4485,1.4485,1.4485,1.4485,1.4485,1.4485,1.4485,1.4686,1.4977,1.5177,1.5461,1.584,1.5936,1.6032,1.6019,1.5952,1.5985,1.6032,1.6032,1.6032,1.6032,1.6032,1.5979,1.6211,1.7254,1.7564,1.8149,1.9977,2.0439,2.0898,2.1553,0.0,0.0,0.0,2.1741,2.1741,2.1741,2.1741,2.1741,2.1741,2.1741,2.1741,2.1741,2.1741,2.1741,2.1741,2.1741,2.1741,2.1741,2.2087,2.2353,2.2441,2.2353,2.2353,2.2353,2.2353,2.2353,2.2353,2.2353,2.2489,2.2672,2.285,2.3178,2.3654,2.3845,2.4189,2.457,2.457,2.4834,2.5225,2.5225,2.5439,2.5742,0.3245,0.3469,0.3804,0.5035,0.5371,0.5817,0.693,0.7154,0.7154,0.7154,0.7154,0.7154,0.7154,0.7154,0.7154,0.7154,0.7493,0.7715,0.7934,0.8263,0.8598,0.8937,0.8794,0.8632,0.8469,0.8455,0.8895,0.9657,0.9758,1.0666,1.2436,1.263,1.3221,1.4208,1.457,1.4684,1.4702,1.4944,1.5046,1.5046,1.5046,1.5046,1.5046,1.5046,1.5046,1.5046,1.5046,1.5046,1.5046,1.5046,1.5349,1.5846,1.5846,1.6247,1.664,1.664,1.664,1.658,1.6313,1.644,1.664,1.664,1.664,1.664,1.664,1.6433,1.6531,1.7587,1.8277,1.9063,2.0068,2.0997,2.1642,2.1731,0.0,0.0,2.1741,2.1741,2.1741,2.1741,2.1741,2.1741,2.1741,2.1741,2.1741,2.1741,2.1741,2.1741,2.1741,2.1741,2.1741,2.1741,2.2008,2.2185,2.2441,2.2185,2.2097,2.2097,2.2097,2.2097,2.2097,2.2353,2.2739,2.3371,2.3371,2.3702,2.4365,2.4365,2.4629,2.5019,2.5019,2.5293,2.5684,2.5684,2.5713,2.5742,0.4475,0.4698,0.5144,0.6262,0.6485,0.6707,0.7154,0.7154,0.7154,0.7154,0.7154,0.7154,0.7154,0.7154,0.7268,0.7382,0.7715,0.7934,0.8263,0.8598,0.8826,0.8937,0.8794,0.8682,0.8625,0.926,0.9696,1.0042,1.1373,1.2451,1.3179,1.3885,1.4395,1.4805,1.4914,1.4956,1.4962,1.5065,1.5107,1.5107,1.5107,1.5107,1.5107,1.5107,1.5107,1.5107,1.5107,1.5107,1.5107,1.5297,1.5601,1.591,1.6117,1.6413,1.6707,1.6707,1.6834,1.6961,1.6847,1.676,1.6707,1.6707,1.6707,1.6707,1.6707,1.7209,1.7898,1.8857,1.9644,2.0432,2.1352,2.1617,2.1741,2.1741,0.0,2.1741,2.1741,2.1741,2.1741,2.1741,2.1741,2.1741,2.1741,2.1741,2.1741,2.1741,2.1741,2.1741,2.1741,2.1741,2.1741,2.1741,2.206,2.2159,2.1998,2.1919,2.183,2.183,2.183,2.1959,2.2189,2.2469,2.2866,2.3343,2.3721,2.4146,2.4627,2.473,2.5078,2.5478,2.5478,2.5586,2.5742,2.5742,2.5742,2.583,0.5704,0.5929,0.6262,0.7043,0.7154,0.7154,0.7154,0.7154,0.7154,0.7154,0.7154,0.7154,0.7154,0.7154,0.7268,0.7607,0.7826,0.8156,0.8484,0.8712,0.894,0.894,0.8838,0.8889,0.9313,0.9949,1.0699,1.1372,1.2827,1.3729,1.397,1.4796,1.5107,1.5113,1.5191,1.5234,1.5234,1.5318,1.5354,1.5354,1.5354,1.5354,1.5354,1.5354,1.5354,1.5354,1.5354,1.5354,1.5354,1.5651,1.5959,1.6164,1.6484,1.6784,1.6981,1.6981,1.7128,1.7288,1.7288,1.7134,1.6981,1.6981,1.6981,1.6981,1.6981,1.7507,1.8423,1.9685,2.0295,2.0908,2.2242,2.23,2.2116,2.2116,2.2116,2.2116,2.2116,2.2116,2.2116,2.2116,2.2116,2.2116,2.2116,2.2116,2.2116,2.2116,2.2116,2.2116,2.2116,2.2116,2.2116,2.2116,2.2382,2.2392,2.2126,2.2116,2.2116,2.2116,2.2116,2.2263,2.252,2.2714,2.3112,2.3589,2.3975,2.4496,2.4986,2.5178,2.5459,2.5742,2.5742,2.5742,2.5742,2.5742,2.5742,2.582,0.6932,0.7154,0.7154,0.7154,0.7154,0.7154,0.7154,0.7154,0.7154,0.7154,0.7154,0.7154,0.7154,0.7154,0.7268,0.7607,0.7826,0.8156,0.8484,0.8712,0.894,0.894,0.894,0.9482,1.0672,1.0672,1.1769,1.3798,1.3798,1.4308,1.5113,1.5113,1.5113,1.5125,1.5384,1.5499,1.5517,1.5777,1.5891,1.5891,1.5891,1.5891,1.5891,1.5891,1.5891,1.5891,1.5891,1.5891,1.5891,1.6217,1.653,1.6736,1.7067,1.7384,1.7582,1.7582,1.7582,1.7582,1.7582,1.7582,1.7582,1.7582,1.7582,1.7582,1.7582,1.7361,1.7756,1.9845,2.0059,2.0401,2.2564,2.2857,2.2857,2.2857,2.2857,2.2857,2.2857,2.2857,2.2857,2.2857,2.2857,2.2857,2.2857,2.2857,2.2857,2.2857,2.2857,2.2857,2.2857,2.2857,2.2857,2.2857,2.2866,2.2866,2.2866,2.2857,2.2857,2.2857,2.2857,2.2857,2.2866,2.2866,2.3465,2.4326,2.4335,2.4861,2.5742,2.5742,2.5742,2.5742,2.5742,2.5742,2.5742,2.5742,2.5742,2.582,0.7154,0.7154,0.7154,0.7154,0.7154,0.7154,0.7154,0.7154,0.7154,0.7154,0.7154,0.7154,0.7154,0.7154,0.7376,0.7823,0.7934,0.8266,0.8712,0.8826,0.9265,1.0131,1.0131,1.0347,1.0672,1.2309,1.3475,1.4056,1.491,1.5411,1.5656,1.5656,1.5656,1.5656,1.5734,1.5771,1.5777,1.5855,1.5891,1.5891,1.5891,1.5891,1.5891,1.5891,1.5891,1.5891,1.5891,1.5998,1.6211,1.653,1.6743,1.7067,1.7378,1.7582,1.7582,1.7582,1.7582,1.7582,1.7582,1.7582,1.7582,1.7582,1.7582,1.7582,1.7582,1.813,1.8986,2.0413,2.1039,2.1667,2.3066,2.3048,2.2857,2.2857,2.2857,2.2857,2.2857,2.2857,2.2857,2.2857,2.2857,2.2857,2.2857,2.2857,2.2857,2.2857,2.2857,2.2857,2.2857,2.2857,2.2857,2.2857,2.3121,2.3363,2.3363,2.3003,2.2857,2.2857,2.2857,2.3003,2.3373,2.3755,2.4172,2.4752,2.515,2.5421,2.5742,2.5742,2.5742,2.5742,2.5742,2.5742,2.5742,2.5742,2.5742,2.582,0.7154,0.7154,0.7154,0.7154,0.7154,0.7154,0.7154,0.7154,0.7154,0.7154,0.7154,0.7154,0.7154,0.7268,0.749,0.7934,0.8269,0.8491,0.8826,0.894,0.9482,1.0672,1.1109,1.1651,1.2091,1.3511,1.4385,1.4922,1.5565,1.5891,1.5891,1.5891,1.5891,1.5891,1.5891,1.5891,1.5891,1.5891,1.5891,1.5891,1.5891,1.5891,1.5891,1.5891,1.5891,1.5891,1.5891,1.6105,1.6324,1.663,1.6948,1.7384,1.7589,1.7582,1.7582,1.7582,1.7582,1.7582,1.7582,1.7582,1.7582,1.7582,1.7582,1.7582,1.7582,1.8408,1.9539,2.068,2.1527,2.2472,2.3581,2.3593,2.3428,2.3428,2.3428,2.3428,2.3428,2.3428,2.3428,2.3428,2.3428,2.3428,2.3428,2.3428,2.3428,2.3428,2.3428,2.3428,2.3428,2.3428,2.3428,2.3428,2.3657,2.3785,2.3785,2.3547,2.3428,2.3428,2.3428,2.3547,2.3785,2.4175,2.4598,2.4932,2.5333,2.5635,2.5742,2.5742,2.5742,2.5742,2.5742,2.5742,2.5742,2.5742,2.5742,2.582,0.7154,0.7154,0.7154,0.7154,0.7154,0.7154,0.7154,0.7154,0.7154,0.7154,0.7154,0.7154,0.7265,0.7493,0.7715,0.8045,0.8605,0.894,0.894,0.894,0.9482,1.0781,1.1869,1.296,1.4272,1.4385,1.4815,1.5891,1.5891,1.5891,1.5891,1.5891,1.5891,1.5891,1.5891,1.5891,1.5891,1.5891,1.5891,1.5891,1.5891,1.5891,1.5891,1.5891,1.5891,1.5891,1.5891,1.6105,1.643,1.663,1.7153,1.7582,1.7582,1.7582,1.7582,1.7582,1.7582,1.7582,1.7582,1.7582,1.7582,1.7582,1.7582,1.7582,1.7687,1.8513,1.9539,2.0783,2.181,2.2837,2.3954,2.4152,2.4152,2.4152,2.4152,2.4152,2.4152,2.4152,2.4152,2.4152,2.4152,2.4152,2.4152,2.4152,2.4152,2.4152,2.4152,2.4152,2.4152,2.4152,2.4152,2.4152,2.4152,2.4152,2.4152,2.4152,2.4152,2.4152,2.4152,2.4152,2.4251,2.444,2.4627,2.4833,2.5137,2.544,2.5635,2.5635,2.5635,2.5645,2.5732,2.5742,2.5742,2.5742,2.5742,2.582,0.7154,0.7154,0.7154,0.7154,0.7154,0.7154,0.7154,0.7154,0.7154,0.7154,0.7154,0.7268,0.7493,0.7607,0.7826,0.8374,0.8712,0.894,0.894,0.894,0.9809,1.1978,1.2309,1.3393,1.5458,1.5565,1.5672,1.5891,1.5891,1.5891,1.5891,1.5891,1.5891,1.5891,1.5891,1.5891,1.5891,1.5891,1.5891,1.5891,1.5891,1.5891,1.5891,1.5891,1.5891,1.5891,1.5891,1.6205,1.673,1.7265,1.7477,1.7582,1.7582,1.7582,1.7582,1.7582,1.7582,1.7582,1.7582,1.7582,1.7582,1.7582,1.7582,1.7786,1.861,1.902,1.9738,2.17,2.2325,2.2837,2.3954,2.4152,2.4152,2.4152,2.4152,2.4152,2.4152,2.4152,2.4152,2.4152,2.4152,2.4152,2.4152,2.4152,2.4152,2.4152,2.4152,2.4152,2.4152,2.4152,2.4152,2.4152,2.4152,2.4152,2.4152,2.4152,2.4152,2.4152,2.4152,2.4152,2.4251,2.444,2.4529,2.4637,2.4833,2.503,2.5137,2.5333,2.544,2.544,2.5635,2.5742,2.5742,2.5742,2.5742,2.582,0.7154,0.7154,0.7154,0.7154,0.7154,0.7154,0.7154,0.7154,0.7154,0.7154,0.7268,0.7493,0.7607,0.7826,0.8159,0.8602,0.8826,0.894,0.894,0.9482,1.0566,1.2309,1.2965,1.4051,1.5891,1.5891,1.5891,1.5891,1.5891,1.5891,1.5891,1.5891,1.5891,1.5891,1.5891,1.5891,1.5891,1.5891,1.5891,1.5891,1.5891,1.5891,1.5891,1.5891,1.5891,1.5891,1.5998,1.6424,1.706,1.7477,1.7582,1.7582,1.7582,1.7582,1.7582,1.7582,1.7582,1.7582,1.7582,1.7582,1.7582,1.7582,1.7996,1.8506,1.902,1.9642,2.0467,2.2114,2.2937,2.3538,2.4053,2.4152,2.4152,2.4152,2.4152,2.4152,2.4152,2.4152,2.4152,2.4152,2.4152,2.4152,2.4152,2.4152,2.4152,2.4152,2.4152,2.4152,2.4152,2.4152,2.4152,2.4152,2.4152,2.4152,2.4152,2.4152,2.4152,2.4152,2.4152,2.4152,2.4251,2.444,2.4529,2.4529,2.4735,2.4932,2.4932,2.503,2.5137,2.5137,2.5235,2.5333,2.5333,2.544,2.5538,2.5625,0.7154,0.7154,0.7154,0.7154,0.7154,0.7154,0.7154,0.7154,0.7265,0.7265,0.7493,0.7607,0.7718,0.8266,0.8709,0.8826,0.9047,0.9154,0.9154,1.0351,1.1542,1.2635,1.3619,1.4702,1.5891,1.5891,1.5891,1.5891,1.5891,1.5891,1.5891,1.5891,1.5891,1.5891,1.5891,1.5891,1.5891,1.5891,1.5891,1.5891,1.5891,1.5891,1.5891,1.5891,1.5891,1.5891,1.6111,1.6643,1.7173,1.7483,1.7582,1.7582,1.7582,1.7582,1.7582,1.7582,1.7582,1.7582,1.7582,1.7582,1.7687,1.7786,1.8506,1.9332,1.9642,2.0467,2.1497,2.2526,2.3538,2.4152,2.4152,2.4152,2.4152,2.4152,2.4152,2.4152,2.4152,2.4152,2.4152,2.4152,2.4152,2.4152,2.4152,2.4152,2.4152,2.4152,2.4152,2.4152,2.4152,2.4152,2.4152,2.4152,2.4152,2.4152,2.4152,2.4152,2.4152,2.4152,2.4152,2.4152,2.4251,2.4341,2.443,2.444,2.4637,2.4735,2.4735,2.4833,2.4833,2.4833,2.4833,2.4932,2.4932,2.5137,2.5235,2.5235,0.7154,0.7154,0.7154,0.7154,0.7154,0.7154,0.7154,0.7154,0.7268,0.7493,0.7607,0.7826,0.8377,0.8712,0.8826,0.894,0.9805,1.0457,1.0457,1.1546,1.2743,1.3948,1.4056,1.4702,1.5891,1.5891,1.5891,1.5891,1.5891,1.5891,1.5891,1.5891,1.5891,1.5891,1.5891,1.5891,1.5891,1.5891,1.5891,1.5891,1.5891,1.5891,1.5891,1.5891,1.5891,1.5891,1.5891,1.6311,1.6842,1.7371,1.7582,1.7582,1.7582,1.7582,1.7582,1.7582,1.7582,1.7582,1.7582,1.7582,1.7786,1.8715,1.9124,1.9746,2.1599,2.2215,2.2627,2.3746,2.4053,2.4152,2.4152,2.4152,2.4152,2.4152,2.4152,2.4152,2.4152,2.4152,2.4152,2.4152,2.4152,2.4152,2.4152,2.4152,2.4152,2.4152,2.4152,2.4152,2.4152,2.4152,2.4152,2.4152,2.4152,2.4152,2.4152,2.4152,2.4152,2.4152,2.4152,2.4152,2.4152,2.4251,2.4251,2.4251,2.4251,2.4251,2.435,2.444,2.4529,2.4529,2.4833,2.4932,2.4932,2.4932,2.4932,2.4932,0.7154,0.7154,0.7154,0.7154,0.7154,0.7154,0.7154,0.7154,0.7268,0.7607,0.7715,0.8045,0.8484,0.8712,0.9154,0.9805,1.0347,1.1,1.1655,1.2748,1.3619,1.4169,1.4815,1.5351,1.5891,1.5891,1.5891,1.5891,1.5891,1.5891,1.5891,1.5891,1.5891,1.5891,1.5891,1.5891,1.5891,1.5891,1.5891,1.5891,1.5891,1.5891,1.5891,1.5891,1.5891,1.5891,1.6205,1.663,1.706,1.7477,1.7582,1.7582,1.7582,1.7582,1.7582,1.7582,1.7582,1.7582,1.7582,1.7996,1.861,1.9124,2.0158,2.1285,2.2316,2.3038,2.3546,2.4053,2.4152,2.4152,2.4152,2.4152,2.4152,2.4152,2.4152,2.4152,2.4152,2.4152,2.4152,2.4152,2.4152,2.4152,2.4152,2.4152,2.4152,2.4152,2.4152,2.4152,2.4152,2.4152,2.4152,2.4152,2.4152,2.4152,2.4152,2.4152,2.4152,2.4152,2.4152,2.4152,2.4152,2.4152,2.4152,2.4152,2.4152,2.4152,2.4251,2.435,2.4341,2.4341,2.4449,2.4538,2.4637,2.4637,2.4637,2.4735]},{"header":{"parameterUnit":"m.s-1","parameterCategory":1,"la1":30.6,"la2":28.766,"lo1":-90.7593,"lo2":-88.6598,"dy":0.0162,"dx":0.0183,"nx":116,"ny":114,"refTime":"2024-03-07T06:00:00:Z","depth":0,"parameterNumber":3,"parameterNumberName":"V-component_of_WINDS"},"data":[0.0,0.0,0.0,0.0,0.0,0.0,0.0,0.0,0.0,0.0,0.0,0.0,0.0,0.0,0.0,0.0,0.0,0.0,0.0,0.0,0.0,0.0,0.0,0.0,0.0,0.0,0.0,0.0,0.0,0.0,0.0,0.0,0.0,0.0,0.0,0.0,0.0,0.0,0.0,0.0,0.0,0.0,0.0,0.0,0.0,0.0,0.0,0.0,0.0,0.0,0.0,0.0,0.0,0.0,0.0,0.0,0.0,0.0,0.0,0.0,0.0,0.0,0.0,0.0,0.0,0.0,0.0,0.0,0.0,0.0,0.0,0.0,0.0,0.0,0.0,0.0,0.0,0.0,0.0,0.0,0.0,0.0,0.0,0.0,0.0,0.0,0.0,0.0,0.0,0.0,0.0,0.0,0.0,0.0,0.0,0.0,0.0,0.0,0.0,0.0,0.0,0.0,0.0,0.0,0.0,0.0,0.0,0.0,0.0,0.0,0.0,0.0,0.0,0.0,0.0,0.0,0.0,0.0,0.0,0.0,0.0,0.0,0.0,0.0,0.0,0.0,0.0,0.0,0.0,0.0,0.0,0.0,0.0,0.0,0.0,0.0,0.0,0.0,0.0,0.0,0.0,0.0,0.0,0.0,0.0,0.0,0.0,0.0,0.0,0.0,0.0,0.0,0.0,0.0,0.0,0.0,0.0,0.0,0.0,0.0,0.0,0.0,0.0,0.0,0.0,0.0,0.0,0.0,0.0,0.0,0.0,0.0,0.0,0.0,0.0,0.0,0.0,0.0,0.0,0.0,0.0,0.0,0.0,0.0,0.0,0.0,0.0,0.0,0.0,0.0,0.0,0.0,0.0,0.0,0.0,0.0,0.0,0.0,0.0,0.0,0.0,0.0,0.0,0.0,0.0,0.0,0.0,0.0,0.0,0.0,0.0,0.0,0.0,0.0,0.0,0.0,0.0,0.0,0.0,0.0,0.0,0.0,0.0,0.0,0.0,0.0,0.0,0.0,0.0,0.0,0.0,0.0,0.0,0.0,0.0,0.0,0.0,0.0,0.0,0.0,0.0,0.0,0.0,0.0,0.0,0.0,0.0,0.0,0.0,0.0,0.0,0.0,0.0,0.0,0.0,0.0,0.0,0.0,0.0,0.0,0.0,0.0,0.0,0.0,0.0,0.0,0.0,0.0,0.0,0.0,0.0,0.0,0.0,0.0,0.0,0.0,0.0,0.0,0.0,0.0,0.0,0.0,0.0,0.0,0.0,0.0,0.0,0.0,0.0,0.0,0.0,0.0,0.0,0.0,0.0,0.0,0.0,0.0,0.0,0.0,0.0,0.0,0.0,0.0,0.0,0.0,0.0,0.0,0.0,0.0,0.0,0.0,0.0,0.0,0.0,0.0,0.0,0.0,0.0,0.0,0.0,0.0,0.0,0.0,0.0,0.0,0.0,0.0,0.0,0.0,0.0,0.0,0.0,0.0,0.0,0.0,0.0,0.0,0.0,0.0,0.0,0.0,0.0,0.0,0.0,0.0,0.0,0.0,0.0,0.0,0.0,0.0,0.0,0.0,0.0,0.0,0.0,0.0,0.0,0.0,0.0,0.0,0.0,0.0,0.0,0.0,0.0,0.0,0.0,0.0,0.0,0.0,0.0,0.0,0.0,0.0,0.0,0.0,0.0,0.0,0.0,0.0,0.0,0.0,0.0,0.0,0.0,0.0,0.0,0.0,0.0,0.0,0.0,0.0,0.0,0.0,0.0,0.0,0.0,0.0,0.0,0.0,0.0,0.0,0.0,0.0,0.0,0.0,0.0,0.0,0.0,0.0,0.0,0.0,0.0,0.0,0.0,0.0,0.0,0.0,0.0,0.0,0.0,0.0,0.0,0.0,0.0,0.0,0.0,0.0,0.0,0.0,0.0,0.0,0.0,0.0,0.0,0.0,0.0,0.0,0.0,0.0,0.0,0.0,0.0,0.0,0.0,0.0,0.0,0.0,0.0,0.0,0.0,0.0,0.0,0.0,0.0,0.0,0.0,0.0,0.0,0.0,0.0,0.0,0.0,0.0,0.0,0.0,0.0,0.0,0.0,0.0,0.0,0.0,0.0,0.0,0.0,0.0,0.0,0.0,0.0,0.0,0.0,0.0,0.0,0.0,0.0,0.0,0.0,0.0,0.0,0.0,0.0,0.0,0.0,0.0,0.0,0.0,0.0,0.0,0.0,0.0,0.0,0.0,0.0,0.0,0.0,0.0,0.0,0.0,0.0,0.0,0.0,0.0,0.0,0.0,0.0,0.0,0.0,0.0,0.0,0.0,0.0,0.0,0.0,0.0,0.0,0.0,0.0,0.0,0.0,0.0,0.0,0.0,0.0,0.0,0.0,0.0,0.0,0.0,0.0,0.0,0.0,0.0,0.0,0.0,0.0,0.0,0.0,0.0,0.0,0.0,0.0,0.0,0.0,0.0,0.0,0.0,0.0,0.0,0.0,0.0,0.0,0.0,0.0,0.0,0.0,0.0,0.0,0.0,0.0,0.0,0.0,0.0,0.0,0.0,0.0,0.0,0.0,0.0,0.0,0.0,0.0,0.0,0.0,0.0,0.0,0.0,0.0,0.0,0.0,0.0,0.0,0.0,0.0,0.0,0.0,0.0,0.0,0.0,0.0,0.0,0.0,0.0,0.0,0.0,0.0,0.0,0.0,0.0,0.0,0.0,0.0,0.0,0.0,0.0,0.0,0.0,0.0,0.0,0.0,0.0,0.0,0.0,0.0,0.0,0.0,0.0,0.0,0.0,0.0,0.0,0.0,0.0,0.0,0.0,0.0,0.0,0.0,0.0,0.0,0.0,0.0,0.0,0.0,0.0,0.0,0.0,0.0,0.0,0.0,0.0,0.0,0.0,0.0,0.0,0.0,0.0,0.0,0.0,0.0,0.0,0.0,0.0,0.0,0.0,0.0,0.0,0.0,0.0,0.0,0.0,0.0,0.0,0.0,0.0,0.0,0.0,0.0,0.0,0.0,0.0,0.0,0.0,0.0,0.0,0.0,0.0,0.0,0.0,0.0,0.0,0.0,0.0,0.0,0.0,0.0,0.0,0.0,0.0,0.0,0.0,0.0,0.0,0.0,0.0,0.0,0.0,0.0,0.0,0.0,0.0,0.0,0.0,0.0,0.0,0.0,0.0,0.0,0.0,0.0,0.0,0.0,0.0,0.0,0.0,0.0,0.0,0.0,0.0,0.0,0.0,0.0,0.0,0.0,0.0,0.0,0.0,0.0,0.0,0.0,0.0,0.0,0.0,0.0,0.0,0.0,0.0,0.0,0.0,0.0,0.0,0.0,0.0,0.0,0.0,0.0,0.0,0.0,0.0,0.0,0.0,0.0,0.0,0.0,0.0,0.0,0.0,0.0,0.0,0.0,0.0,0.0,0.0,0.0,0.0,0.0,0.0,0.0,0.0,0.0,0.0,0.0,0.0,0.0,0.0,0.0,0.0,0.0,0.0,0.0,0.0,0.0,0.0,0.0,0.0,0.0,0.0,0.0,0.0,0.0,0.0,0.0,0.0,0.0,0.0,0.0,0.0,0.0,0.0,0.0,0.0,0.0,0.0,0.0,0.0,0.0,0.0,0.0,0.0,0.0,0.0,0.0,0.0,0.0,0.0,0.0,0.0,0.0,0.0,0.0,0.0,0.0,0.0,0.0,0.0,0.0,0.0,0.0,0.0,0.0,0.0,0.0,0.0,0.0,0.0,0.0,0.0,0.0,0.0,0.0,0.0,0.0,0.0,0.0,0.0,0.0,0.0,0.0,0.0,0.0,0.0,0.0,0.0,0.0,0.0,0.0,0.0,0.0,0.0,0.0,0.0,0.0,0.0,0.0,0.0,0.0,0.0,0.0,0.0,0.0,0.0,0.0,0.0,0.0,0.0,0.0,0.0,0.0,0.0,0.0,0.0,0.0,0.0,0.0,0.0,0.0,0.0,0.0,0.0,0.0,0.0,0.0,0.0,0.0,0.0,0.0,0.0,0.0,0.0,0.0,0.0,0.0,0.0,0.0,0.0,0.0,0.0,0.0,0.0,0.0,0.0,0.0,0.0,0.0,0.0,0.0,0.0,0.0,0.0,0.0,0.0,0.0,0.0,0.0,0.0,0.0,0.0,0.0,0.0,0.0,0.0,0.0,0.0,0.0,0.0,0.0,0.0,0.0,0.0,0.0,0.0,0.0,0.0,0.0,0.0,0.0,0.0,0.0,0.0,0.0,0.0,0.0,0.0,0.0,0.0,0.0,0.0,0.0,0.0,0.0,0.0,0.0,0.0,0.0,0.0,0.0,0.0,0.0,0.0,0.0,0.0,0.0,0.0,0.0,0.0,0.0,0.0,0.0,0.0,0.0,0.0,0.0,0.0,0.0,0.0,0.0,0.0,0.0,0.0,0.0,0.0,0.0,0.0,0.0,0.0,0.0,0.0,0.0,0.0,0.0,0.0,0.0,0.0,0.0,0.0,0.0,0.0,0.0,0.0,0.0,0.0,0.0,0.0,0.0,0.0,0.0,0.0,0.0,0.0,0.0,0.0,0.0,0.0,0.0,0.0,0.0,0.0,0.0,0.0,0.0,0.0,0.0,0.0,0.0,0.0,0.0,0.0,0.0,0.0,0.0,0.0,0.0,0.0,0.0,0.0,0.0,0.0,0.0,0.0,0.0,0.0,0.0,0.0,0.0,0.0,0.0,0.0,0.0,0.0,0.0,0.0,0.0,0.0,0.0,0.0,0.0,0.0,0.0,0.0,0.0,0.0,0.0,0.0,0.0,0.0,0.0,0.0,0.0,0.0,0.0,0.0,0.0,0.0,0.0,0.0,0.0,0.0,0.0,0.0,0.0,0.0,0.0,0.0,0.0,0.0,0.0,0.0,0.0,0.0,0.0,0.0,0.0,0.0,0.0,0.0,0.0,0.0,0.0,0.0,0.0,0.0,0.0,0.0,0.0,0.0,0.0,0.0,0.0,0.0,0.0,0.0,0.0,0.0,0.0,0.0,0.0,0.0,0.0,0.0,0.0,0.0,0.0,0.0,0.0,0.0,0.0,0.0,0.0,0.0,0.0,0.0,0.0,0.0,0.0,0.0,0.0,0.0,0.0,0.0,0.0,0.0,0.0,0.0,0.0,0.0,0.0,0.0,0.0,0.0,0.0,0.0,0.0,0.0,0.0,0.0,0.0,0.0,0.0,0.0,0.0,0.0,0.0,0.0,0.0,0.0,0.0,0.0,0.0,0.0,0.0,0.0,0.0,0.0,0.0,0.0,0.0,0.0,0.0,0.0,0.0,0.0,0.0,0.0,0.0,0.0,0.0,0.0,0.0,0.0,0.0,0.0,0.0,0.0,0.0,0.0,0.0,0.0,0.0,0.0,0.0,0.0,0.0,0.0,0.0,0.0,0.0,0.0,0.0,0.0,0.0,0.0,0.0,0.0,0.0,0.0,0.0,0.0,0.0,0.0,0.0,0.0,0.0,0.0,0.0,0.0,0.0,0.0,0.0,0.0,0.0,0.0,0.0,0.0,0.0,0.0,0.0,0.0,0.0,0.0,0.0,0.0,0.0,0.0,0.0,0.0,0.0,0.0,0.0,0.0,0.0,0.0,0.0,0.0,0.0,0.0,0.0,0.0,0.0,0.0,0.0,0.0,0.0,0.0,0.0,0.0,0.0,0.0,0.0,0.0,0.0,0.0,0.0,0.0,0.0,0.0,0.0,0.0,0.0,0.0,0.0,0.0,0.0,0.0,0.0,0.0,0.0,0.0,0.0,0.0,0.0,0.0,0.0,0.0,0.0,0.0,0.0,0.0,0.0,0.0,0.0,0.0,0.0,0.0,0.0,0.0,0.0,0.0,0.0,0.0,0.0,0.0,0.0,0.0,0.0,0.0,0.0,0.0,0.0,0.0,0.0,0.0,0.0,0.0,0.0,0.0,0.0,0.0,0.0,0.0,0.0,0.0,0.0,0.0,0.0,0.0,0.0,0.0,0.0,0.0,0.0,0.0,0.0,0.0,0.0,0.0,0.0,0.0,0.0,0.0,0.0,0.0,0.0,0.0,0.0,0.0,0.0,0.0,0.0,0.0,0.0278,0.0,0.0,0.0,0.0,0.0,0.0,0.0,0.0,0.0,0.0,0.0,0.0,0.0,0.0,0.0,0.0,0.0,0.0,0.0,0.0,0.0,0.0,0.0,0.0,0.0,0.0,0.0,1.4743,1.4605,1.4362,1.4301,1.4382,1.4627,1.49,1.5394,1.6192,1.6173,1.6409,1.6969,1.6693,1.6868,1.7436,1.6385,1.5184,0.0,0.0,0.0,0.0,0.0,0.0,0.0,0.0,0.0,0.0,0.0,0.0,0.0,0.0,0.0,0.0,0.0,0.0,0.0,0.0,0.0,0.0,0.0,0.0,0.0,0.0,0.0,0.0,0.0,0.0,0.0,0.0,0.0,0.0,0.0,0.0,0.0,0.0,0.0,0.0,0.0,0.0,0.0,0.0,0.0,0.0,0.0,0.0,0.0,0.0,0.0,0.0,0.0,0.0,0.0,0.0,0.0,0.0,0.0,0.0,0.0,0.0,0.0,0.0,0.0,0.0,0.0,0.0,0.0,0.0,0.0,0.0,0.0223,0.0,0.0,0.0,0.0,0.0,0.0,0.0,0.0,0.0,0.0,0.0,0.0,0.0,0.0,0.0,0.0,0.0,0.0,0.0,0.0,0.0,0.0,0.0,1.617,1.592,1.5412,1.5322,1.5312,1.5223,1.5637,1.5984,1.6169,1.6573,1.7085,1.767,1.7578,1.7827,1.8405,1.8489,1.8555,1.8471,1.8578,0.0,0.0,0.0,0.0,0.0,0.0,0.0,0.0,0.0,0.0,0.0,0.0,0.0,0.0,0.0,0.0,0.0,0.0,0.0,0.0,0.0,0.0,0.0,0.0,0.0,0.0,0.0,0.0,0.0,0.0,0.0,0.0,0.0,0.0,0.0,0.0,0.0,0.0,0.0,0.0,0.0,0.0,0.0,0.0,0.0,0.0,0.0,0.0,0.0,0.0,0.0,0.0,0.0,0.0,0.0,0.0,0.0,0.0,0.0,0.0,0.0,0.0,0.0,0.0,0.0,0.0,0.0,0.3712,0.3874,0.3874,0.4316,0.4925,0.2104,0.1556,0.2395,0.0,0.0,0.0,0.0,0.0,0.0,0.0,0.0,0.0,0.0,0.0,0.0,0.0,0.0,0.0,0.0,0.0,0.0,0.0,0.0,0.0,0.0,1.7612,1.7201,1.6386,1.6299,1.6191,1.5834,1.588,1.6307,1.7145,1.7249,1.7786,1.8761,1.827,1.8472,1.9505,1.9633,1.9218,1.834,1.8992,1.8833,1.7961,1.7841,0.0,0.0,0.0,0.0,0.0,0.0,0.0,0.0,0.0,0.0,0.0,0.0,0.0,0.0,0.0,0.0,0.0,0.0,0.0,0.0,0.0,0.0,0.0,0.0,0.0,0.0,0.0,0.0,0.0,0.0,0.0,0.0,0.0,0.0,0.0,0.0,0.0,0.0,0.0,0.0,0.0,0.0,0.0,0.716,0.7171,0.0,0.0,0.0,0.0,0.0,0.0,0.0,0.0,0.0,0.0,0.0,0.0,0.0,0.0,0.3895,0.4271,0.4488,0.4488,0.5386,0.5618,0.5336,0.5336,0.5171,0.4893,0.4718,0.0,0.3715,0.3492,0.0,0.0,0.0,0.0,0.0,0.0,0.0,0.0,0.0,0.0,0.0,0.0,0.0,0.0,0.0,0.0,0.0,0.0,0.0,0.0,0.0,1.8324,1.809,1.7706,1.7504,1.7439,1.7599,1.7901,1.8405,1.9188,1.9506,1.985,2.032,2.0143,2.0332,2.0926,2.0988,2.0828,2.0468,2.0521,2.0383,2.0131,1.9734,1.9162,1.8471,1.8081,0.0,0.0,0.0,0.0,0.0,0.0,0.0,0.0,0.0,0.0,0.0,0.0,0.0,0.0,0.0,0.0,0.0,0.0,0.0,0.0,0.0,0.0,0.0,0.0,0.0,0.0,0.0,0.0,0.0,0.0,0.0,0.0,0.0,0.0,0.0,0.0,0.0,0.0,0.0,0.7781,0.7593,0.7384,0.7381,0.7172,0.0,0.0,0.0,0.0,0.0,0.0,0.0,0.0,0.0,0.6213,0.6143,0.6143,0.6209,0.6377,0.6492,0.6492,0.6969,0.7146,0.7136,0.7136,0.7074,0.7068,0.7182,0.6887,0.6221,0.4664,0.344,0.25,0.0,0.0,0.0,0.0,0.0,-0.0166,0.0,0.0,0.0,0.0,0.0,0.0,0.0,0.0,0.0,0.0,0.0,0.0,1.9367,1.9185,1.9038,1.8912,1.8836,1.8973,1.9432,1.992,2.044,2.0969,2.1281,2.1452,2.1582,2.1866,2.1974,2.1833,2.2035,2.2081,2.2035,2.1732,2.1602,2.1541,2.1118,2.0194,1.9056,1.8845,1.8673,0.0,0.0,0.0,0.0,0.0,0.0,0.0,0.0,0.0,0.0,0.0,0.0,0.0,0.0,0.0,0.0,0.0,0.0,0.0,0.0,0.0,0.0,0.0,0.0,0.0,0.0,0.0,0.0,0.0,0.0,0.0,0.0,0.0,0.0,0.0,0.0,0.0,0.0,0.8805,0.8476,0.792,0.8427,0.8363,0.0,0.0,0.0,0.0,0.0,0.0,0.7299,0.7071,0.7016,0.725,0.7483,0.7666,0.7747,0.7747,0.7747,0.7747,0.7747,0.7919,0.8204,0.8204,0.8322,0.8504,0.8557,0.8434,0.8041,0.5949,0.499,0.4706,0.3747,0.3241,0.3131,0.33,0.2667,0.1925,0.0,0.0,0.0,0.0,0.0,0.0,0.0,0.0,0.0,0.0,0.0,2.0465,2.0514,2.0431,2.0215,1.9793,2.037,2.0805,2.099,2.1211,2.1579,2.2112,2.1649,2.1629,2.2122,2.2788,2.2667,2.1697,2.2346,2.242,2.1894,2.2035,2.2081,2.2081,2.2035,2.1479,2.0549,1.9695,1.9411,1.9451,0.0,0.0,0.0,0.0,0.0,0.0,0.0,0.0,0.0,0.0,0.0,0.0,0.0,0.0,0.0,0.0,0.0,0.0,0.0,0.0,0.0,0.0,0.0,0.0,0.0,0.0,0.0,0.0,0.0,0.0,0.0,0.0,0.0,0.0,0.0,0.0,0.0,0.0,0.0,0.9755,0.9711,0.0,0.0,0.0,0.0,0.8657,0.7601,0.7255,0.8032,0.8032,0.8086,0.8198,0.8257,0.7968,0.7439,0.7439,0.7439,0.7439,0.7439,0.7623,0.7925,0.7925,0.7925,0.7925,0.8204,0.8316,0.8257,0.81,0.7597,0.6919,0.6611,0.607,0.5478,0.5255,0.5146,0.516,0.0,0.0,0.0,0.0,0.0,0.0,0.0,0.0,2.1462,2.1277,2.1339,2.1415,2.1446,2.1413,2.1451,2.1665,2.1722,2.2043,2.274,2.2851,2.3132,2.3731,2.3548,2.3576,2.3815,2.4055,2.4013,2.3746,2.4472,2.4744,2.4557,2.4716,2.4656,2.4347,2.4036,2.3297,2.222,2.1469,2.0953,2.062,2.0307,2.0117,0.0,0.0,0.0,0.0,0.0,0.0,0.0,0.0,0.0,0.0,0.0,0.0,0.0,0.0,0.0,0.0,0.0,0.0,0.0,0.0,0.0,0.0,0.0,0.0,0.0,0.0,0.0,0.0,0.0,0.0,0.0,0.0,0.0,0.0,0.0,0.0,0.0,1.0408,1.0898,0.0,0.0,1.0078,1.0268,1.0085,0.9771,0.9648,0.9846,0.9605,0.9482,0.9414,0.9172,0.9054,0.906,0.8623,0.8566,0.876,0.876,0.8822,0.8953,0.9258,0.9439,0.9501,1.0091,1.0451,1.0648,1.0397,0.9373,0.7865,0.7393,0.721,0.72,0.7328,0.7333,0.722,0.0,0.0,0.0,0.0,0.0,0.0,0.0,0.0,2.2061,2.1932,2.2032,2.2101,2.2101,2.2315,2.2635,2.2973,2.3272,2.3719,2.4389,2.4351,2.4512,2.4973,2.4926,2.4808,2.4712,2.5108,2.5314,2.5266,2.6002,2.635,2.6366,2.6491,2.6388,2.6061,2.5758,2.5101,2.4174,2.3487,2.253,2.1513,2.1465,2.1417,2.1338,0.0,0.0,0.0,0.0,0.0,0.0,0.0,0.0,0.0,0.0,0.0,0.0,0.0,0.0,0.0,0.0,0.0,0.0,0.0,0.0,0.0,0.0,0.0,0.0,0.0,0.0,0.0,0.0,0.0,0.0,0.0,0.0,0.0,0.0,0.0,1.1533,1.0838,1.1598,1.16,1.0249,1.1017,1.1476,1.1094,1.0899,1.0836,1.0843,1.0654,1.0465,1.0338,1.0148,1.0028,1.0161,0.9588,0.9444,0.9734,0.9545,0.9545,0.9681,0.9999,1.0264,1.0478,1.1024,1.1524,1.1973,1.1849,1.097,0.9741,0.9035,0.886,0.8981,0.8981,0.8981,0.8957,0.0,0.0,0.0,0.0,0.0,0.0,0.0,2.2515,2.2515,2.2515,2.2515,2.2515,2.2515,2.3175,2.363,2.3648,2.5022,2.5911,2.5945,2.5706,2.5635,2.5819,2.5577,2.5253,2.4823,2.6021,2.6469,2.6075,2.6814,2.7164,2.7164,2.7195,2.7211,2.7195,2.7195,2.6895,2.6408,2.5759,2.4238,2.2217,2.2002,2.1969,2.2019,0.0,0.0,0.0,0.0,0.0,0.0,0.0,0.0,0.0,0.0,0.0,0.0,0.0,0.0,0.0,0.0,0.0,0.0,0.0,0.0,0.0,0.0,0.0,0.0,0.0,0.0,0.0,0.0,0.0,0.0,0.0,0.0,0.0,1.3191,1.2536,1.1919,1.1205,1.1849,1.2035,1.1205,1.1267,1.1469,1.1685,1.1031,1.0717,1.1059,1.1066,1.1066,1.108,1.108,1.0877,1.0541,1.011,0.9993,1.0255,0.9728,0.9673,0.9952,1.0013,1.032,1.0863,1.0926,1.1358,1.2104,1.2297,1.2482,1.2482,1.1677,1.1178,1.08,1.0275,1.0212,1.0292,0.0,0.0,0.0,0.0,0.0,0.0,0.0,2.2712,2.2659,2.2515,2.2649,2.2712,2.2712,2.3545,2.4259,2.4603,2.554,2.6272,2.6664,2.6639,2.659,2.6674,2.6607,2.6636,2.6882,2.7408,2.7684,2.7732,2.8659,2.9022,2.8796,2.9321,2.9398,2.9038,2.9038,2.8547,2.763,2.7441,2.6748,2.5551,2.345,2.2975,2.342,0.0,0.0,0.0,0.0,0.0,0.0,0.0,0.0,0.0,0.0,0.0,0.0,0.0,0.0,0.0,0.0,0.0,0.0,0.0,0.0,0.0,0.0,0.0,0.0,0.0,0.0,0.0,0.0,0.0,0.0,0.0,0.0,1.4154,1.4103,1.4034,1.3897,1.3597,1.3837,1.3897,1.3545,1.3606,1.3666,1.3683,1.3061,1.2755,1.3019,1.2544,1.2345,1.2519,1.2049,1.1836,1.2028,1.1436,1.1276,1.156,1.1425,1.1425,1.1499,1.1829,1.2114,1.2292,1.3202,1.3655,1.3922,1.3995,1.4123,1.4192,1.2905,1.2466,1.2528,1.1919,1.1545,1.1344,0.0,0.0,0.0,0.0,0.0,0.0,0.0,2.3212,2.3188,2.3067,2.314,2.3206,2.3102,2.4293,2.5151,2.5314,2.6367,2.7134,2.7452,2.7276,2.7208,2.7351,0.0,2.7759,2.8352,2.8851,2.9119,2.9244,3.0121,3.0398,3.0082,3.0533,3.051,3.0113,3.0113,2.961,2.8814,2.851,2.8072,2.7336,2.5431,2.4806,2.497,2.4859,2.5135,2.5537,2.5424,2.4791,2.3865,2.2937,0.0,0.0,0.0,0.0,0.0,0.0,0.0,0.0,0.0,0.0,0.0,0.0,0.0,0.0,0.0,0.0,0.0,0.0,0.0,0.0,0.0,0.0,0.0,0.0,1.5748,1.5332,1.5342,1.4923,1.4569,1.4529,1.4579,1.4569,1.4529,1.4676,1.4777,1.4777,1.4567,1.4568,1.4736,1.4298,1.4143,1.441,1.3627,1.3294,1.3627,1.2624,1.223,1.2571,1.2365,1.2365,1.2495,1.277,1.3172,0.0,1.4238,1.4772,1.5163,1.5292,1.5357,0.0,0.0,0.0,0.0,0.0,1.3009,1.287,0.0,0.0,0.0,0.0,0.0,0.0,0.0,2.3795,2.3795,2.3795,2.3795,2.3768,2.3679,2.5185,2.6128,2.5989,2.7298,2.8156,2.8156,2.7742,2.7621,2.793,2.8134,2.8579,2.9453,3.0139,3.048,3.0529,3.1233,3.1389,3.1055,3.1055,3.0895,3.0568,3.0568,3.0284,2.9848,2.9258,2.8769,2.8315,2.7615,2.7044,2.6576,2.644,2.6176,2.5894,2.6607,2.5959,2.4679,2.4147,0.0,0.0,0.0,0.0,0.0,0.0,0.0,0.0,0.0,0.0,0.0,0.0,0.0,0.0,0.0,0.0,0.0,0.0,0.0,0.0,0.0,0.0,0.0,0.0,1.6694,1.6751,1.6637,1.5566,1.4812,1.4765,1.4803,1.4831,1.4831,1.5196,1.543,1.543,1.5776,1.6064,1.6294,0.0,0.0,0.0,0.0,1.509,1.5278,1.3939,1.3431,1.3677,1.3256,1.3179,1.3459,1.3459,1.3913,1.4637,1.4703,1.5239,1.6104,1.6205,1.6251,1.6111,1.4475,1.397,1.4231,1.4228,1.4314,0.0,0.0,0.0,0.0,0.0,0.0,0.0,0.0,2.3795,2.3795,2.3795,2.3795,2.4031,2.4643,2.5602,2.6434,2.7043,2.7904,2.841,2.841,2.8156,2.8262,2.8971,2.8829,2.9288,3.0473,3.0871,3.1115,3.1298,3.166,3.1691,3.1389,3.1389,3.1196,3.0895,3.0895,3.0675,3.0384,3.0236,3.0128,2.9978,2.9256,2.8488,2.7753,2.7737,2.7736,2.7765,2.7951,2.7244,2.6085,2.5488,2.4482,2.3378,2.2707,0.0,0.0,0.0,0.0,0.0,0.0,0.0,0.0,0.0,0.0,0.0,0.0,0.0,0.0,0.0,0.0,0.0,0.0,0.0,0.0,1.6705,1.6694,1.6694,1.6761,1.6827,1.6794,1.6384,1.6848,1.7126,1.6929,1.7345,1.7615,1.7615,1.7255,1.7143,1.7427,1.6983,0.0,1.7148,1.6964,1.6896,1.6964,1.6683,1.6515,1.6597,0.0,0.0,1.5922,1.5922,1.5817,1.5548,1.5835,1.618,1.6515,1.6856,1.7254,1.7506,1.5851,1.5065,1.4878,1.4667,1.4688,1.4787,0.0,0.0,0.0,0.0,0.0,0.0,0.0,2.4352,2.4352,2.4352,2.4352,2.4614,2.5319,2.6247,2.7063,2.7779,2.8463,2.8759,2.8529,2.8781,2.9296,3.0078,3.0395,3.1016,3.2016,3.2179,3.2228,3.2144,3.2283,3.2127,3.1691,3.1691,3.1542,3.1252,3.1252,3.1157,3.0998,3.0797,3.0773,3.0683,3.0153,2.9699,2.9227,2.8656,2.8548,2.8685,2.8685,2.8326,2.7718,2.6763,2.6016,2.5265,2.4022,2.3212,2.2602,0.0,0.0,0.0,0.0,0.0,0.0,0.0,0.0,0.0,0.0,0.0,0.0,0.0,0.0,1.7984,1.8027,0.0,1.76,1.771,1.7776,1.7867,1.8171,1.8464,1.8294,1.7284,1.7621,1.7969,1.7839,1.8265,1.8541,1.8541,1.8501,1.8604,1.8822,1.844,1.841,1.8767,1.823,1.8017,1.8085,1.7609,1.7404,1.7404,1.7404,1.7345,1.7285,1.7285,1.7285,1.7139,1.7354,1.7628,1.8027,1.8479,1.8878,1.9126,1.8041,1.7134,1.6317,1.6266,1.6103,1.5911,0.0,0.0,0.0,0.0,0.0,0.0,0.0,2.4902,2.4902,2.4902,2.5053,2.539,2.6026,2.704,2.7922,2.8565,2.9064,2.9159,2.8753,2.932,3.0072,3.0939,3.1619,3.2389,3.3273,3.3291,3.3154,3.2908,3.2908,3.2601,3.2056,3.2056,3.1894,3.1579,3.1579,3.1542,3.1466,3.1213,3.1095,3.1095,3.0797,3.0634,3.0485,2.9543,2.9189,2.9212,2.9212,2.9166,2.8949,2.8,2.7581,2.7195,2.5727,2.4701,2.3917,2.324,2.2477,0.0,0.0,0.0,0.0,0.0,0.0,0.0,0.0,0.0,1.9331,1.9004,1.8845,1.8792,1.8874,1.8821,1.8715,1.878,1.8952,1.9222,1.9629,1.9968,1.9684,1.8489,1.8665,1.8846,1.8846,1.9295,1.958,1.958,1.9888,2.0107,2.0118,1.9987,1.9998,2.0205,1.9386,1.8977,1.9166,1.8412,1.8017,1.7949,1.7949,1.8085,1.8375,1.8375,1.8499,1.87,1.8813,1.9145,1.9607,2.0246,2.0579,2.061,2.0393,1.9459,1.8265,1.8068,1.7647,1.732,0.0,0.0,0.0,0.0,0.0,0.0,0.0,0.0,2.4902,2.4902,2.556,2.6356,2.7142,2.801,2.8862,2.9642,2.9777,2.9732,2.9476,2.9353,2.9857,3.1199,3.1137,3.1745,3.3255,3.3291,3.3291,3.3243,3.3243,3.3063,3.2699,3.2699,3.2419,3.1875,3.1875,3.1711,3.1504,3.1466,3.1428,3.1445,3.1389,3.1196,3.0918,3.0794,3.0344,2.9705,2.9705,2.9438,2.9074,2.8933,2.8507,2.7971,2.7769,2.6582,2.507,2.4403,0.0,2.2267,2.1752,2.1561,2.1465,2.1175,2.0993,2.0858,0.0,0.0,2.0347,2.0448,2.0016,1.9643,1.9695,1.915,1.878,1.8922,1.9318,1.9617,1.9928,2.0811,2.1409,2.1421,2.1281,2.1199,2.1199,2.1813,2.2128,2.1932,2.1992,2.1729,2.0996,2.0933,2.0816,2.0571,2.0442,2.0377,2.0366,2.0302,2.0107,1.9802,1.9802,1.9726,1.9573,1.9573,1.9497,1.9399,2.0019,2.0331,2.0459,2.1455,2.1916,2.1916,2.2212,2.1704,2.0618,1.916,1.8748,1.8869,0.0,0.0,0.0,0.0,0.0,0.0,0.0,0.0,0.0,2.5826,2.6209,2.6917,2.8237,2.9174,2.9784,3.0003,3.0022,2.9946,2.9786,3.0113,3.079,3.189,3.2177,3.2834,3.4043,3.391,3.3743,3.3578,3.3578,3.3437,3.3093,3.3093,3.2858,3.2419,3.2419,3.2266,3.2018,3.1802,3.1711,3.1728,3.1542,3.1445,3.1291,3.1291,3.0958,3.0452,3.03,2.9984,0.0,0.0,2.9246,2.8777,2.8262,2.7564,2.6736,2.5696,2.5093,0.0,2.3281,2.2644,2.2267,0.0,2.1609,2.1431,2.1166,2.097,2.0871,2.0749,2.0498,2.0437,2.0707,2.055,2.0494,0.0,2.11,2.1407,2.1933,2.2437,2.2917,2.3425,2.345,2.3147,2.2247,2.2456,2.2592,2.247,2.2457,2.2347,2.199,2.1978,2.1928,2.1741,2.1741,2.1616,2.1388,2.1628,2.1565,2.1135,2.1439,2.1479,2.1404,2.1404,2.1444,2.1572,2.1844,2.2213,2.2554,2.317,2.3479,2.3631,2.4021,2.3877,2.3251,2.0969,1.9954,1.977,0.0,0.0,0.0,0.0,0.0,0.0,0.0,0.0,0.0,0.0,2.7074,2.7933,2.9361,3.0085,3.0389,3.0251,3.0234,3.0144,2.9984,3.0513,3.1206,3.2008,3.2449,3.3217,3.4292,3.4072,3.3956,3.4023,3.3947,3.3762,3.3437,3.3437,3.3243,3.2921,3.2827,3.2702,3.2489,3.1935,3.1828,3.2002,3.1578,3.1502,3.1617,3.1617,3.1428,3.1095,3.0658,3.0384,0.0,0.0,2.9793,2.952,2.8918,2.8515,2.804,2.7047,2.6531,2.591,2.4395,0.0,0.0,2.2509,2.2267,2.2137,2.1904,2.1773,2.1716,2.1659,2.1512,2.1531,2.1903,2.1839,2.189,2.2322,2.2681,2.3095,2.3477,2.3872,2.4238,2.4681,2.4778,2.4421,2.3374,2.3255,2.3255,2.3207,2.3207,2.3135,2.2907,2.2907,2.2834,2.2713,2.2713,2.2604,2.2237,2.2543,2.2543,2.2125,2.2421,2.2652,2.2713,2.2895,2.311,2.331,2.3585,2.3949,2.4341,2.4553,2.4724,2.4924,2.5119,2.5175,2.4953,2.3065,2.1933,2.136,0.0,0.0,0.0,0.0,0.0,0.0,0.0,0.0,0.0,0.0,0.0,0.0,0.0,3.0586,3.0586,3.0586,3.0527,3.0404,3.0198,3.0138,3.0422,3.1118,3.1157,3.1953,3.3582,3.3424,3.3733,3.458,3.4316,3.4049,3.3762,3.3762,3.3625,3.3273,3.297,3.2795,3.2727,3.1661,3.1686,3.2335,3.1545,3.1498,3.1894,3.1894,3.1728,3.1389,3.0788,0.0,0.0,3.0189,3.0189,3.0231,3.0368,2.9522,0.0,2.8442,2.7188,2.5574,0.0,0.0,2.4192,2.3154,2.2889,2.2913,2.3031,2.3076,2.3231,2.3886,2.3543,2.3144,2.3171,2.2724,2.2402,2.2415,2.346,2.4109,2.3739,2.475,2.5398,2.5061,2.5005,2.5005,0.0,2.4948,2.4892,2.4721,2.4721,2.4421,2.3636,2.3577,2.3446,2.3088,2.3088,2.3088,2.3088,2.3088,2.2895,2.2592,2.2592,2.2774,2.3075,2.3669,2.3962,2.4021,2.4781,2.5119,2.5175,2.5287,2.5342,2.5342,2.5231,2.5175,2.5231,2.5259,2.4901,2.4224,0.0,0.0,0.0,0.0,0.0,0.0,0.0,0.0,0.0,0.0,0.0,0.0,0.0,0.0,0.0,0.0,0.0,0.0,3.0477,3.0394,3.0714,3.1545,3.1384,3.1797,3.2901,3.273,3.273,3.2929,3.2844,3.2672,3.2482,3.2482,3.2274,3.1973,3.1847,3.1727,3.1516,3.1159,3.1319,3.1841,3.159,3.1767,3.2232,3.2232,3.2037,3.1711,0.0,0.0,0.0,3.0027,2.9941,3.0,3.0231,3.0093,2.977,2.9453,2.8221,2.6842,2.6397,0.0,2.5591,2.4894,2.4697,2.4616,2.4346,2.4293,2.4253,2.4127,2.3955,2.3942,2.4309,2.4249,2.4214,2.4627,2.5105,2.5406,2.5434,2.5887,2.6176,2.6108,2.6108,0.0,0.0,0.0,0.0,2.4948,2.4948,2.4835,2.4523,2.4523,2.4465,2.435,2.435,2.4221,2.393,2.4221,2.4221,2.4021,2.4337,2.4851,2.537,2.5356,2.5577,2.5957,2.6279,2.6649,2.696,2.6872,2.6923,2.7063,2.7318,2.7369,2.7419,2.7754,2.775,2.7319,0.0,0.0,0.0,0.0,0.0,0.0,0.0,0.0,0.0,0.0,0.0,0.0,0.0,0.0,0.0,0.0,0.0,0.0,0.0,3.0564,3.0787,3.134,3.1202,3.1482,3.2294,3.2119,3.2096,3.2279,3.2203,3.2084,3.1915,3.1915,3.1764,3.147,3.1354,3.1195,3.1029,3.0948,3.1232,3.1775,3.1805,3.2121,3.2557,3.2557,3.2335,0.0,0.0,0.0,3.0707,3.0251,3.0011,3.0,3.0231,3.0359,3.03,2.975,2.8907,2.8089,2.7627,2.7269,2.6851,2.629,2.6138,2.6062,2.5884,2.5786,2.5686,2.5465,2.5207,2.5132,2.5559,2.5459,2.548,2.5781,2.6147,2.6361,2.6336,2.6602,2.6745,2.6692,2.6678,0.0,0.0,0.0,0.0,2.5632,2.5632,2.5632,2.5632,2.5632,2.5632,2.5632,2.5632,2.5522,2.5217,2.5522,2.5618,2.5591,2.5906,2.6297,2.6692,2.6611,2.6768,2.7108,2.7297,2.7585,2.7898,2.7883,2.8015,2.8258,2.8732,2.8903,2.8995,2.9284,2.9435,2.9173,0.0,0.0,0.0,0.0,0.0,0.0,0.0,0.0,0.0,0.0,0.0,0.0,0.0,0.0,0.0,0.0,0.0,0.0,0.0,3.0639,0.0,3.06,3.06,3.0964,3.1729,3.1546,3.1795,3.2477,3.2267,3.2128,3.1992,3.1972,3.1869,3.1675,3.136,3.1194,3.1194,3.0919,3.1292,3.2043,3.2117,3.2415,3.2795,3.2795,0.0,0.0,0.0,0.0,0.0,0.0,0.0,0.0,3.0443,3.0359,3.0103,2.9467,2.9361,2.9217,2.8237,2.8079,2.8025,2.7375,2.72,2.7288,2.7532,2.7489,2.7487,2.7739,2.7255,2.6774,0.0,0.0,2.6026,2.5946,2.6587,2.6967,2.6443,2.6953,2.7195,0.0,0.0,0.0,0.0,0.0,0.0,2.6834,0.0,2.673,2.673,2.673,2.673,2.673,2.673,2.6782,2.6901,2.6901,2.699,2.7166,2.7166,2.7166,2.7217,2.7485,2.76,2.765,2.7898,2.8046,2.8094,2.8529,2.8794,2.8917,2.9456,2.9745,2.9891,2.9992,3.0093,2.9978,0.0,0.0,0.0,0.0,0.0,0.0,0.0,0.0,0.0,0.0,0.0,0.0,0.0,0.0,0.0,0.0,0.0,0.0,0.0,0.0,0.0,0.0,0.0,0.0,0.0,0.0,0.0,3.0823,3.0715,3.0589,3.0463,3.0302,3.0208,3.0149,2.9983,2.9876,2.9894,2.981,3.0441,3.1506,0.0,3.2053,3.2795,0.0,0.0,0.0,0.0,0.0,0.0,0.0,0.0,0.0,0.0,3.0359,3.0189,3.0156,3.007,2.9908,2.9436,2.9343,2.9223,2.8735,2.8598,2.86,2.8682,2.8683,2.8529,2.8225,2.8012,2.7765,0.0,0.0,0.0,2.7306,2.766,0.0,2.771,2.7974,0.0,0.0,0.0,2.8271,2.8732,2.8779,0.0,0.0,2.7655,2.6975,2.6975,2.6975,2.6975,2.6975,2.6975,2.7027,2.7027,2.7246,2.7515,2.7864,2.7887,2.8163,2.8654,2.8824,2.9053,2.9313,2.9685,2.9832,2.9832,3.0031,3.0117,3.0159,3.0575,3.0737,3.0794,3.101,3.127,3.1487,0.0,0.0,0.0,0.0,0.0,0.0,0.0,0.0,0.0,0.0,0.0,0.0,0.0,0.0,0.0,0.0,0.0,0.0,0.0,0.0,0.0,0.0,0.0,0.0,0.0,0.0,0.0,0.0,0.0,0.0,2.9977,2.9801,2.968,2.9589,2.9451,2.9407,2.9425,2.9779,0.0,0.0,0.0,0.0,0.0,0.0,0.0,0.0,0.0,0.0,0.0,0.0,0.0,3.0965,3.0942,3.0757,3.0568,3.0692,0.0,3.0316,3.0199,3.0156,3.007,2.9837,2.9793,2.9766,2.9544,2.9483,2.9348,2.8842,2.8496,0.0,0.0,0.0,0.0,0.0,0.0,0.0,2.8795,2.8716,2.8811,0.0,2.9196,0.0,2.9761,2.9805,2.9805,0.0,2.8794,2.8097,2.8097,2.8097,2.8227,2.8435,2.8435,2.8435,2.8497,2.8701,2.8903,2.9164,2.9191,2.946,2.9816,2.994,3.011,3.0285,0.0,3.0642,3.0642,3.0851,3.1055,3.1253,3.1699,3.1933,3.2144,3.2332,3.2515,3.2706,0.0,0.0,0.0,0.0,0.0,0.0,0.0,0.0,0.0,0.0,0.0,0.0,0.0,0.0,0.0,0.0,0.0,0.0,0.0,0.0,0.0,0.0,0.0,0.0,0.0,0.0,0.0,0.0,0.0,0.0,0.0,0.0,0.0,0.0,0.0,0.0,0.0,0.0,0.0,0.0,0.0,0.0,0.0,0.0,0.0,0.0,0.0,0.0,0.0,0.0,3.1289,3.1617,3.1542,3.1351,3.1117,3.1055,3.0838,3.0634,3.0692,3.0651,3.0568,3.0692,3.0733,3.0609,3.0189,3.0087,2.9941,2.947,0.0,2.848,2.8432,0.0,2.8779,2.8638,0.0,2.9166,2.9585,2.9329,2.9329,2.9919,3.0048,3.0175,3.0377,3.0418,3.046,3.0559,3.0021,2.9629,2.954,2.954,2.9745,3.0133,3.0159,3.0234,3.0351,3.0477,3.0543,3.0567,3.0714,3.0794,3.0858,3.1033,3.1038,3.1004,0.0,0.0,3.1111,3.1476,3.1845,3.2228,3.2695,3.3105,3.3419,3.3486,3.3542,3.3597,0.0,0.0,0.0,0.0,0.0,0.0,0.0,0.0,0.0,0.0,3.0762,3.0804,0.0,0.0,0.0,0.0,0.0,0.0,0.0,0.0,0.0,0.0,0.0,0.0,0.0,0.0,0.0,0.0,0.0,0.0,0.0,0.0,0.0,0.0,0.0,0.0,0.0,0.0,0.0,0.0,0.0,0.0,0.0,0.0,0.0,0.0,0.0,0.0,0.0,0.0,3.1769,3.2179,3.1804,3.175,3.175,3.1291,3.1179,3.1184,3.0935,3.0871,3.0831,3.0871,3.0871,3.0814,3.0609,3.0568,0.0,0.0,0.0,2.9585,2.9148,2.9255,0.0,2.9406,0.0,0.0,0.0,0.0,2.9859,0.0,0.0,0.0,0.0,0.0,0.0,0.0,0.0,0.0,3.0335,3.0293,3.0335,3.0418,3.0418,3.0418,3.0477,3.0543,3.0737,3.1009,3.1482,3.1828,3.2091,3.2462,3.261,3.261,0.0,0.0,3.266,3.2867,3.3009,3.31,3.3296,3.3429,3.3486,3.3486,3.3707,3.3986,0.0,0.0,0.0,0.0,0.0,0.0,0.0,3.0621,3.0613,3.0637,3.0671,3.0711,3.0786,3.0794,3.0806,0.0,0.0,0.0,0.0,0.0,0.0,0.0,0.0,0.0,0.0,0.0,0.0,0.0,0.0,0.0,0.0,0.0,0.0,0.0,0.0,0.0,0.0,0.0,0.0,0.0,0.0,0.0,0.0,0.0,0.0,0.0,0.0,0.0,0.0,0.0,3.1217,3.2218,3.2313,3.2248,3.2179,3.1913,3.175,3.164,3.1372,3.1218,3.114,3.0975,3.0952,3.0952,3.0831,0.0,0.0,0.0,3.0199,2.9951,2.9717,0.0,0.0,0.0,0.0,0.0,0.0,0.0,0.0,0.0,0.0,0.0,0.0,0.0,0.0,0.0,0.0,0.0,3.0965,3.1106,3.1223,3.1223,3.1223,3.1321,3.1493,3.1605,3.1773,3.2091,3.2429,3.266,3.2818,3.3039,3.3166,3.3166,3.3178,0.0,3.3207,3.3372,3.3514,3.368,3.3862,3.4018,3.42,3.4282,3.4454,3.4617,0.0,0.0,0.0,0.0,0.0,0.0,0.0,3.0598,3.0597,3.0602,3.0602,3.0649,3.0778,3.0778,3.0781,0.0,0.0,0.0,0.0,0.0,0.0,0.0,0.0,0.0,0.0,0.0,0.0,0.0,0.0,0.0,0.0,0.0,0.0,0.0,0.0,0.0,0.0,0.0,0.0,0.0,0.0,0.0,0.0,0.0,0.0,0.0,0.0,0.0,0.0,0.0,3.0391,3.1624,3.2486,3.2692,3.2586,3.2504,3.2317,3.2092,3.1823,3.166,3.1548,3.1317,3.1295,3.1257,3.1196,3.1157,0.0,0.0,3.0617,3.0293,3.0293,0.0,0.0,0.0,0.0,0.0,0.0,0.0,0.0,0.0,0.0,0.0,0.0,0.0,0.0,0.0,0.0,0.0,0.0,3.195,3.2144,3.2144,3.2144,3.2265,3.2535,3.2669,3.2876,3.313,3.3255,3.3361,3.3429,3.3504,3.3532,3.3532,3.3652,0.0,0.0,3.3784,3.3981,3.4218,3.4392,3.4639,3.487,3.5047,3.5114,3.513,0.0,0.0,0.0,0.0,0.0,0.0,0.0,3.0598,3.0597,3.0602,3.0602,3.0626,3.0697,3.0716,3.0725,0.0,0.0,0.0,0.0,0.0,0.0,0.0,0.0,0.0,0.0,0.0,0.0,0.0,0.0,0.0,0.0,0.0,0.0,0.0,0.0,0.0,0.0,0.0,0.0,0.0,0.0,0.0,0.0,0.0,0.0,0.0,0.0,0.0,0.0,0.0,0.0,3.0116,3.1733,3.2737,3.3196,3.2719,0.0,0.0,3.2351,3.2248,3.2196,3.2179,3.2179,3.2127,3.2004,0.0,0.0,3.1376,3.1123,3.0935,3.0935,3.1015,0.0,0.0,0.0,3.1582,0.0,0.0,0.0,0.0,0.0,0.0,0.0,0.0,0.0,0.0,0.0,0.0,0.0,3.2867,3.2898,3.2898,3.2898,3.2898,3.2929,3.3075,3.3284,3.3552,3.3689,3.3902,3.4203,3.4221,3.4245,3.4316,0.0,0.0,0.0,3.4775,3.4886,3.4923,3.5011,3.5045,3.5081,3.5098,3.513,3.5228,0.0,0.0,0.0,0.0,0.0,0.0,3.0598,3.0598,3.0607,3.0606,3.0606,3.0604,3.0645,3.0649,3.0671,3.073,0.0,0.0,0.0,0.0,0.0,0.0,0.0,0.0,0.0,0.0,0.0,0.0,0.0,0.0,0.0,0.0,0.0,0.0,0.0,0.0,0.0,0.0,0.0,0.0,0.0,0.0,0.0,0.0,0.0,0.0,0.0,0.0,0.0,0.0,0.0,0.0,3.1265,3.2119,0.0,0.0,3.3117,3.3068,3.2716,3.2601,3.2535,3.2351,3.2317,3.2283,3.2231,0.0,3.2003,3.195,3.186,3.1787,3.1787,3.1841,3.1877,0.0,0.0,0.0,0.0,0.0,0.0,0.0,0.0,0.0,0.0,0.0,0.0,0.0,0.0,0.0,0.0,3.3421,3.3189,3.3291,3.3291,3.3424,3.3714,3.3864,3.4073,3.4367,3.4449,3.4553,3.4734,3.4734,3.4734,3.4774,0.0,0.0,0.0,3.5011,3.5062,3.5078,3.5254,3.5335,3.5361,3.5484,3.5543,3.5571,0.0,0.0,0.0,0.0,0.0,3.0598,3.0598,3.0598,3.0598,3.0598,3.0598,3.0588,3.0604,3.0604,3.0621,3.0673,3.0717,0.0,0.0,0.0,0.0,0.0,0.0,0.0,0.0,0.0,0.0,0.0,0.0,0.0,0.0,0.0,0.0,0.0,0.0,0.0,0.0,0.0,0.0,0.0,0.0,0.0,0.0,0.0,0.0,0.0,0.0,0.0,0.0,0.0,0.0,0.0,0.0,0.0,0.0,0.0,3.3393,3.3375,3.3081,3.3032,3.297,3.2731,3.2666,3.2684,0.0,0.0,3.2486,3.2453,3.2385,3.2317,3.2317,3.2317,3.2351,3.2368,0.0,3.2719,0.0,0.0,0.0,0.0,0.0,0.0,0.0,0.0,0.0,0.0,0.0,0.0,0.0,3.408,3.3773,3.3907,3.3895,3.4069,3.4402,3.4521,3.4717,3.4925,3.4925,3.4943,3.4996,3.4996,3.5011,3.5059,0.0,0.0,0.0,3.527,3.5316,3.5329,3.5514,3.56,3.5618,3.5741,3.5817,3.5825,0.0,0.0,0.0,0.0,0.0,0.0,3.0598,3.0598,3.0598,3.0598,3.0598,3.0598,3.0598,3.0598,3.0598,3.0598,3.0711,0.0,0.0,0.0,0.0,0.0,0.0,0.0,0.0,0.0,0.0,3.0304,3.0161,0.0,0.0,0.0,0.0,0.0,0.0,0.0,0.0,0.0,0.0,0.0,0.0,0.0,0.0,0.0,0.0,0.0,0.0,0.0,0.0,0.0,0.0,0.0,0.0,0.0,3.1329,0.0,3.3452,3.3509,3.3491,3.3549,3.3605,3.3605,3.3605,3.3577,0.0,0.0,3.2975,3.2813,3.2535,3.2317,3.2385,3.2385,3.2419,3.2484,3.2827,0.0,0.0,0.0,0.0,0.0,0.0,0.0,0.0,0.0,0.0,0.0,0.0,0.0,0.0,3.4889,3.4889,3.4889,3.4889,3.4888,3.4888,3.4962,3.5016,3.4997,3.4997,3.4996,3.4992,3.4992,3.5066,0.0,0.0,0.0,0.0,3.5743,3.5786,3.5791,3.5802,3.5807,3.5792,3.5806,3.5834,3.5907,0.0,0.0,0.0,0.0,0.0,0.0,0.0,3.0598,3.0598,3.0598,3.0598,3.0598,3.0598,3.0598,3.0606,3.0587,3.0639,0.0,0.0,0.0,0.0,0.0,0.0,0.0,0.0,0.0,3.049,3.0302,3.0163,3.0026,2.9888,0.0,0.0,0.0,0.0,0.0,0.0,0.0,0.0,0.0,0.0,0.0,0.0,0.0,0.0,0.0,0.0,0.0,0.0,0.0,0.0,0.0,0.0,0.0,0.0,3.339,3.3633,3.3452,3.3481,3.3538,3.3549,3.3605,3.3605,3.3605,3.3577,0.0,3.3415,3.3368,3.3262,3.3202,3.3202,3.3202,3.3232,3.3262,3.3397,0.0,0.0,0.0,0.0,0.0,0.0,0.0,0.0,0.0,0.0,0.0,0.0,0.0,0.0,0.0,3.5152,3.5102,3.5152,3.5232,3.5388,3.5402,3.5416,3.5405,3.5456,3.5477,3.548,3.5524,0.0,0.0,0.0,0.0,0.0,3.5777,3.5807,3.5792,3.5851,3.5862,3.5864,3.5917,3.5957,3.5976,0.0,0.0,0.0,0.0,0.0,0.0,0.0,3.0559,3.0559,3.0559,3.0559,3.0578,3.0595,3.0595,3.061,3.0646,3.0658,0.0,0.0,0.0,0.0,0.0,0.0,0.0,0.0,3.0578,3.0471,3.0302,3.0196,3.006,2.9888,2.9806,2.9773,0.0,0.0,0.0,0.0,0.0,0.0,0.0,0.0,0.0,2.9888,0.0,0.0,0.0,0.0,0.0,0.0,0.0,0.0,0.0,0.0,0.0,0.0,0.0,3.3696,3.3734,0.0,3.3671,3.3753,3.3698,3.3815,0.0,0.0,0.0,3.3884,3.3858,3.3858,3.3858,3.3902,3.3884,3.391,3.3935,3.3961,0.0,0.0,0.0,0.0,0.0,0.0,0.0,0.0,0.0,0.0,0.0,0.0,0.0,0.0,0.0,3.5432,3.543,3.5432,3.5496,3.5646,3.5637,3.5649,3.5688,3.5721,3.5733,3.5748,3.5774,0.0,0.0,0.0,0.0,0.0,3.5876,3.5879,3.5882,3.5917,3.5918,3.5914,3.5955,3.5935,3.588,0.0,0.0,0.0,0.0,0.0,0.0,0.0,3.0511,3.0511,3.0511,3.0511,3.053,3.0603,3.061,3.0632,3.0703,0.0,0.0,0.0,0.0,0.0,0.0,0.0,0.0,0.0,3.053,3.0458,3.0369,3.0316,3.0194,3.0078,3.0021,2.9983,2.9983,2.9926,0.0,0.0,0.0,0.0,0.0,2.9905,2.9921,0.0,0.0,0.0,0.0,0.0,0.0,0.0,0.0,0.0,0.0,0.0,0.0,0.0,0.0,0.0,0.0,0.0,3.3998,3.4173,3.3921,3.4184,3.4442,3.4179,0.0,0.0,3.4334,3.4292,3.4334,3.4401,3.4401,3.4423,3.4508,3.4508,0.0,0.0,0.0,0.0,0.0,0.0,0.0,0.0,0.0,0.0,0.0,0.0,0.0,0.0,0.0,3.5737,3.5807,3.5679,3.5639,3.5715,3.5713,3.5748,3.5791,3.5797,3.5816,3.5821,3.5802,0.0,0.0,0.0,0.0,0.0,3.5991,3.5987,3.5987,3.5982,3.5942,3.588,3.5889,3.5801,3.5693,0.0,0.0,0.0,0.0,0.0,0.0,0.0,0.0,0.0,0.0,3.0658,3.0665,3.0665,3.0685,3.0709,0.0,0.0,0.0,0.0,0.0,0.0,0.0,0.0,0.0,0.0,3.0501,3.0714,3.1145,3.1135,3.1371,3.1798,3.1191,3.0888,3.0869,3.0208,0.0,0.0,0.0,0.0,0.0,3.0113,3.0128,0.0,0.0,0.0,0.0,3.0128,3.0128,0.0,0.0,0.0,0.0,0.0,0.0,0.0,0.0,3.4602,3.4694,3.4398,0.0,3.4353,3.433,3.442,3.4486,0.0,0.0,0.0,0.0,0.0,3.4464,3.4467,3.4486,3.4508,3.4572,3.4572,0.0,0.0,0.0,0.0,0.0,0.0,0.0,0.0,0.0,0.0,0.0,0.0,0.0,0.0,0.0,3.5768,3.5805,3.5775,3.5768,3.5781,3.5788,3.5774,3.5791,3.5849,3.5887,3.5876,3.5932,0.0,0.0,0.0,0.0,3.5923,3.5916,3.5851,3.5774,3.5768,3.5755,3.5753,3.5753,3.5737,3.5693,0.0,0.0,0.0,0.0,0.0,0.0,0.0,0.0,0.0,0.0,0.0,3.0703,3.075,3.075,0.0,0.0,0.0,0.0,0.0,0.0,0.0,0.0,0.0,0.0,3.0559,3.0877,3.1214,3.1498,3.1824,3.2184,3.2542,3.2086,3.1895,3.1857,3.1004,3.0415,0.0,0.0,0.0,0.0,3.019,0.0,0.0,0.0,0.0,0.0,3.0204,3.0204,0.0,3.0204,3.0204,3.0414,0.0,0.0,0.0,0.0,3.4751,3.5019,3.4851,3.4734,3.4612,3.4529,3.4655,3.4793,3.4694,0.0,0.0,0.0,0.0,3.4832,3.4851,3.4906,0.0,3.4925,3.5007,0.0,0.0,0.0,0.0,0.0,0.0,0.0,0.0,0.0,0.0,0.0,0.0,0.0,0.0,0.0,3.5853,3.5893,3.5893,3.5884,3.5845,3.5845,3.5857,3.5893,3.5896,3.5898,3.5897,3.5879,0.0,0.0,0.0,0.0,3.5805,3.5807,3.5774,3.5698,3.5702,3.592,3.6251,3.6251,3.6443,3.6706,0.0,0.0,0.0,0.0,0.0,0.0,0.0,0.0,0.0,0.0,0.0,0.0,0.0,0.0,0.0,0.0,0.0,0.0,0.0,0.0,0.0,0.0,0.0,3.0707,3.0771,3.1369,3.1768,3.1968,3.2598,3.2959,3.3073,3.2959,3.2825,3.2672,3.2,3.1197,0.0,0.0,0.0,0.0,3.0204,0.0,0.0,0.0,0.0,0.0,0.0,0.0,0.0,3.0199,3.0294,3.0529,3.135,0.0,0.0,0.0,0.0,0.0,3.5209,3.5107,3.4926,3.4675,3.4926,3.5176,3.5,0.0,0.0,0.0,0.0,0.0,0.0,0.0,0.0,0.0,0.0,0.0,0.0,0.0,0.0,0.0,0.0,0.0,0.0,0.0,0.0,0.0,0.0,0.0,0.0,0.0,0.0,3.5976,3.5974,3.5937,3.5873,3.589,3.5934,3.5975,3.5913,3.5869,3.5869,3.5755,3.5696,0.0,0.0,0.0,3.569,3.5821,3.5862,3.5863,3.5999,3.6443,3.7061,3.7049,3.7376,3.7827,0.0,0.0,0.0,0.0,0.0,0.0,0.0,0.0,0.0,0.0,0.0,0.0,0.0,0.0,0.0,0.0,0.0,0.0,0.0,0.0,0.0,0.0,3.0613,3.0897,3.1513,3.1595,3.2281,3.3635,3.3735,3.4159,3.4808,3.412,3.3414,3.2691,3.2558,3.2057,3.1293,0.0,0.0,3.0204,3.0204,0.0,0.0,0.0,0.0,0.0,0.0,0.0,0.0,3.0207,3.0677,3.1446,3.2248,0.0,0.0,0.0,0.0,0.0,3.5277,3.5311,3.5297,3.5207,3.5226,3.5277,3.5254,0.0,0.0,0.0,0.0,0.0,0.0,0.0,0.0,0.0,0.0,0.0,0.0,0.0,0.0,0.0,0.0,0.0,0.0,0.0,0.0,0.0,0.0,0.0,0.0,0.0,0.0,3.5913,3.586,3.5797,3.5738,3.5845,3.5913,3.59,3.5791,3.5736,3.5723,3.5709,3.5687,0.0,0.0,3.5659,3.5678,3.6403,3.6656,3.66,3.7291,3.7627,3.7747,3.7755,3.7666,3.7528,0.0,0.0,0.0,0.0,0.0,0.0,0.0,0.0,0.0,0.0,0.0,0.0,0.0,0.0,0.0,0.0,0.0,0.0,0.0,0.0,0.0,3.0604,3.052,3.0848,3.1634,3.2045,3.2809,3.3987,3.4445,3.4846,3.519,3.4843,3.4228,3.3406,3.3436,3.2991,3.2206,3.2206,3.1976,3.1593,0.0,0.0,0.0,0.0,0.0,0.0,0.0,0.0,0.0,0.0,3.1875,3.2359,3.3187,0.0,0.0,0.0,0.0,0.0,3.5416,3.5463,3.5508,3.55,3.5495,3.5463,3.5469,0.0,0.0,0.0,0.0,0.0,0.0,0.0,0.0,0.0,0.0,0.0,0.0,0.0,0.0,0.0,0.0,0.0,0.0,0.0,0.0,0.0,0.0,0.0,0.0,0.0,0.0,0.0,3.5755,3.573,3.5689,3.5728,3.5749,3.5786,3.5687,3.5657,3.5639,3.5611,3.5588,3.5623,0.0,3.6207,3.6254,3.7095,3.7401,3.7371,3.7592,3.8049,3.8575,3.8877,3.8899,3.8741,0.0,0.0,0.0,0.0,0.0,0.0,0.0,0.0,0.0,0.0,0.0,0.0,0.0,0.0,0.0,0.0,0.0,0.0,0.0,0.0,3.0653,3.0586,3.0665,3.1091,3.1892,3.2486,3.3288,3.4305,3.4917,3.5223,3.5223,3.5293,3.4944,3.4312,3.4361,3.3897,3.3105,3.3105,3.299,3.2799,0.0,0.0,0.0,0.0,0.0,0.0,0.0,0.0,0.0,0.0,0.0,0.0,0.0,0.0,0.0,3.5185,3.5438,3.5523,3.5535,3.5591,3.5657,3.5741,0.0,3.5621,3.5621,0.0,0.0,0.0,0.0,0.0,0.0,0.0,0.0,0.0,0.0,0.0,0.0,0.0,0.0,0.0,0.0,0.0,0.0,0.0,0.0,0.0,0.0,0.0,0.0,0.0,0.0,0.0,3.5652,3.5655,3.5648,3.56,3.5611,3.5679,3.5601,3.5577,3.5577,3.5522,3.5603,3.5834,3.643,3.6815,3.7084,3.7886,3.8216,3.822,3.8117,3.8537,3.9242,3.9589,3.9705,3.9683,0.0,0.0,0.0,0.0,0.0,0.0,0.0,0.0,0.0,0.0,0.0,0.0,0.0,0.0,0.0,0.0,0.0,0.0,0.0,0.0,3.0576,3.0501,3.1202,3.1985,3.2795,3.2799,3.3599,3.5205,3.5262,3.5281,3.5281,3.53,3.5262,3.5205,3.5205,3.4759,3.4012,3.4012,3.3547,3.2799,3.2799,0.0,0.0,0.0,0.0,0.0,0.0,0.0,0.0,0.0,0.0,0.0,0.0,0.0,3.5505,3.5563,3.5592,3.5602,3.5669,3.5737,3.5801,3.5878,3.5799,0.0,3.5685,3.569,0.0,0.0,0.0,0.0,0.0,0.0,0.0,0.0,0.0,0.0,0.0,0.0,0.0,0.0,0.0,0.0,0.0,0.0,0.0,0.0,0.0,0.0,0.0,0.0,0.0,0.0,0.0,3.5496,3.5515,3.5501,3.554,3.5609,3.5528,3.5501,3.552,3.5507,3.5911,3.6622,3.668,3.7161,3.7969,3.8834,3.92,3.9227,3.9662,3.9683,3.9457,3.9253,3.9165,3.911,0.0,0.0,0.0,0.0,0.0,0.0,0.0,0.0,0.0,0.0,0.0,0.0,0.0,0.0,0.0,0.0,0.0,0.0,0.0,0.0,3.0593,3.043,3.1256,3.2088,3.2885,3.3374,3.4151,3.5315,3.5315,3.5315,3.5315,3.533,3.5364,3.5364,3.5412,3.5273,3.4966,3.4966,3.4773,3.4485,3.4485,3.4139,0.0,0.0,0.0,0.0,0.0,0.0,0.0,0.0,3.4855,3.5137,3.5137,3.5369,3.5648,3.5648,3.571,3.5794,3.582,3.588,3.5939,3.5955,3.5923,0.0,0.0,0.0,0.0,0.0,0.0,0.0,0.0,0.0,0.0,0.0,0.0,0.0,0.0,0.0,0.0,0.0,0.0,0.0,0.0,0.0,0.0,0.0,0.0,0.0,0.0,0.0,0.0,0.0,0.0,3.5501,3.5507,3.5493,3.5441,3.5355,3.5441,3.5493,3.5493,3.5369,3.5748,3.6517,3.6913,3.7583,3.8423,3.9222,3.9545,3.9562,3.9656,3.9489,3.9245,3.9156,3.9101,3.9073,0.0,0.0,0.0,0.0,0.0,0.0,0.0,0.0,0.0,0.0,0.0,0.0,0.0,0.0,0.0,0.0,0.0,0.0,3.0634,3.0645,3.0683,3.0805,3.163,3.2461,3.3275,3.4126,3.4808,3.5364,3.5364,3.5364,3.5364,3.5412,3.5427,3.5427,3.5493,3.5493,3.5493,3.5493,3.5493,3.5493,3.5493,3.5141,0.0,0.0,0.0,0.0,0.0,0.0,0.0,0.0,3.5737,3.576,3.576,3.5774,3.5795,3.5795,3.5869,3.5923,3.5923,3.5968,3.6005,0.0,0.0,0.0,0.0,0.0,0.0,0.0,0.0,0.0,0.0,0.0,0.0,0.0,0.0,0.0,0.0,0.0,0.0,0.0,0.0,0.0,0.0,0.0,0.0,0.0,0.0,0.0,0.0,0.0,0.0,0.0,0.0,3.5479,3.5417,3.5417,3.5289,3.5107,3.5242,3.5324,3.5308,3.5176,3.568,3.6691,3.7088,3.7898,3.8956,3.9475,3.9609,3.9513,3.9414,3.92,3.8979,3.8979,3.8979,3.895,0.0,0.0,0.0,0.0,0.0,0.0,0.0,0.0,0.0,0.0,0.0,0.0,0.0,0.0,0.0,0.0,0.0,0.0,3.0501,3.051,3.0865,3.1675,3.2485,3.3314,3.418,3.5045,3.5493,3.5493,3.5493,3.5493,3.5493,3.5493,3.5493,3.5493,3.5493,3.5493,3.5493,3.5493,3.5493,3.5507,3.5507,3.5507,3.552,0.0,0.0,0.0,0.0,0.0,0.0,0.0,3.5794,3.5889,3.5889,3.5942,3.5991,3.5991,3.5999,3.6005,3.6005,3.6009,3.5992,0.0,0.0,0.0,0.0,0.0,0.0,0.0,0.0,0.0,0.0,0.0,0.0,0.0,0.0,0.0,0.0,0.0,0.0,0.0,0.0,0.0,0.0,0.0,0.0,0.0,0.0,0.0,0.0,0.0,0.0,0.0,0.0,0.0,3.519,3.5209,3.5089,3.4908,3.4908,3.4908,3.4908,3.4908,3.574,3.7211,3.7192,3.8115,3.9599,3.9599,3.9408,3.9099,3.9099,3.8933,3.8707,3.8707,3.8707,3.8707,0.0,0.0,0.0,0.0,0.0,0.0,0.0,0.0,0.0,0.0,0.0,0.0,0.0,0.0,0.0,0.0,0.0,0.0,3.0501,3.1062,3.1504,3.1696,3.3057,3.393,3.418,3.5045,3.5493,3.5493,3.5493,3.5493,3.5493,3.5493,3.5493,3.5493,3.5493,3.5493,3.5493,3.5493,3.5493,3.5507,3.5553,3.557,3.5581,0.0,0.0,0.0,0.0,0.0,0.0,0.0,0.0,0.0,3.5978,3.5985,3.5991,3.5991,3.5999,3.6005,3.6005,3.5976,0.0,0.0,0.0,0.0,0.0,0.0,0.0,0.0,0.0,0.0,0.0,0.0,0.0,0.0,0.0,0.0,0.0,0.0,0.0,0.0,0.0,0.0,0.0,0.0,0.0,0.0,0.0,0.0,0.0,0.0,0.0,0.0,0.0,0.0,3.5417,3.5258,3.5089,3.4831,3.4691,3.4691,3.4812,3.467,3.5446,3.6916,3.6758,3.7631,3.9091,3.9064,3.8942,3.8833,3.8833,3.8762,3.8707,3.8707,3.8707,3.8707,0.0,0.0,0.0,0.0,0.0,0.0,0.0,0.0,0.0,0.0,3.0511,3.051,0.0,0.0,0.0,0.0,0.0,0.0,3.0953,3.1474,3.2039,3.266,3.366,3.4353,3.4718,3.5238,3.5493,3.5493,3.5493,3.5493,3.5493,3.5493,3.5493,3.5493,3.5493,3.5493,3.5507,3.5522,3.5547,3.554,3.5609,3.5641,3.564,0.0,0.0,0.0,0.0,0.0,0.0,0.0,0.0,0.0,3.6001,3.6001,3.6001,3.6001,3.5971,3.5957,3.5957,3.5912,0.0,0.0,0.0,0.0,0.0,0.0,0.0,0.0,0.0,0.0,0.0,0.0,0.0,0.0,0.0,0.0,0.0,0.0,0.0,0.0,0.0,0.0,0.0,0.0,0.0,0.0,0.0,0.0,0.0,0.0,0.0,0.0,0.0,0.0,3.5088,3.4944,3.4715,3.4483,3.4344,3.4344,3.4439,3.4344,3.5163,3.666,3.7174,3.7937,3.884,3.878,3.875,3.8707,3.8707,3.8707,3.8707,3.8707,3.8596,3.8451,0.0,0.0,3.0492,3.0492,0.0,0.0,0.0,0.0,0.0,0.0,3.0482,3.0501,0.0,0.0,0.0,3.0482,3.0505,3.0852,3.166,3.1833,3.2602,3.4122,3.4276,3.468,3.5488,3.5507,3.5507,3.5507,3.5507,3.5493,3.5493,3.5493,3.5507,3.5507,3.5507,3.5501,3.5515,3.5562,3.5599,3.562,3.5676,3.5725,3.5735,3.586,0.0,0.0,0.0,0.0,0.0,0.0,0.0,0.0,3.5991,3.5991,3.5991,3.5991,3.5957,3.5908,3.5908,0.0,0.0,0.0,0.0,0.0,0.0,0.0,0.0,0.0,0.0,0.0,0.0,0.0,0.0,0.0,0.0,0.0,0.0,0.0,0.0,0.0,0.0,0.0,0.0,0.0,0.0,0.0,0.0,0.0,0.0,0.0,0.0,0.0,0.0,0.0,3.4539,3.4394,3.4213,0.0,3.3998,3.3947,3.3895,3.3947,3.4869,3.6462,3.7948,3.8634,3.8707,3.8707,3.8707,3.8707,3.8707,3.8707,3.8707,3.8707,3.8483,3.8135,0.0,0.0,3.0419,3.0419,0.0,0.0,0.0,0.0,0.0,0.0,0.0,0.0,0.0,0.0,0.0,3.0425,3.1037,3.1506,3.1698,3.2929,3.3814,3.418,3.4853,3.5309,3.5489,3.5489,3.5522,3.5579,3.5534,3.5493,3.5493,3.5493,3.5501,3.5489,3.5489,3.5526,3.5581,3.5582,3.562,3.5694,3.58,3.5866,3.5875,3.5955,3.5984,0.0,0.0,0.0,0.0,0.0,0.0,0.0,3.5991,3.5991,3.5991,3.5991,3.5957,3.5908,3.5908,3.5812,0.0,0.0,0.0,0.0,0.0,0.0,0.0,0.0,0.0,0.0,0.0,0.0,0.0,0.0,0.0,0.0,0.0,0.0,0.0,0.0,0.0,0.0,0.0,0.0,0.0,0.0,0.0,0.0,0.0,0.0,0.0,3.4964,3.4945,3.4889,3.4812,3.4586,3.4371,0.0,3.403,3.3895,3.3815,3.3895,3.4788,3.6387,3.736,3.812,3.8707,3.8707,3.8707,3.8707,3.8707,3.8707,3.8707,3.8707,3.8645,3.8564,0.0,0.0,0.0,0.0,0.0,0.0,0.0,0.0,0.0,0.0,0.0,0.0,0.0,3.0775,0.0,0.0,3.1795,3.2449,3.2872,3.3699,3.4385,3.4802,3.5264,3.5509,3.5547,3.5547,3.556,3.5591,3.5554,3.556,0.0,0.0,3.5554,3.556,3.555,3.556,3.5611,3.5706,3.5756,3.5797,3.59,3.5955,3.594,3.5991,3.5994,0.0,0.0,0.0,0.0,0.0,0.0,0.0,0.0,0.0,3.5995,3.5995,3.5932,3.5861,3.5861,0.0,0.0,0.0,0.0,0.0,0.0,0.0,0.0,0.0,0.0,0.0,0.0,0.0,0.0,0.0,0.0,0.0,0.0,0.0,0.0,0.0,0.0,0.0,0.0,0.0,0.0,0.0,0.0,0.0,0.0,3.4908,3.487,3.4771,3.4672,3.4569,3.4461,3.425,3.413,3.4043,3.3902,3.3815,3.3807,3.4238,3.5101,3.634,3.7129,3.7955,3.8707,3.8707,3.8707,3.8707,3.8707,3.8596,3.8401,3.8401,3.8186,3.7844,0.0,0.0,0.0,0.0,0.0,0.0,0.0,0.0,0.0,0.0,0.0,0.0,0.0,3.1263,3.1756,0.0,0.0,0.0,3.4154,3.436,3.4758,3.5496,3.5515,3.5528,3.5604,3.5604,3.5604,3.5616,0.0,0.0,0.0,0.0,0.0,3.562,3.5641,3.5629,3.5663,3.5841,3.5916,3.5926,3.5987,3.5994,3.5995,0.0,0.0,0.0,0.0,3.5996,3.5996,3.5996,0.0,0.0,0.0,0.0,3.5974,3.5974,3.5887,3.5774,3.5774,0.0,3.5704,0.0,0.0,0.0,0.0,0.0,0.0,0.0,0.0,0.0,0.0,0.0,0.0,0.0,0.0,0.0,0.0,0.0,0.0,0.0,0.0,0.0,0.0,0.0,0.0,0.0,0.0,0.0,3.4792,3.4772,3.4691,3.4517,3.4348,3.4165,3.3998,3.3868,3.3834,3.3834,3.3807,3.3862,3.4027,3.4706,3.5495,3.634,3.7129,3.7955,3.8707,3.8627,3.8596,3.8596,3.8515,3.8285,3.8,3.8,3.7578,3.7017,0.0,0.0,0.0,0.0,0.0,0.0,0.0,0.0,0.0,0.0,3.0022,3.0409,3.1183,3.154,3.1987,3.2679,3.3526,3.4077,3.4192,0.0,0.0,3.5572,3.5591,3.5584,3.5601,3.5601,3.5631,3.5693,0.0,0.0,0.0,0.0,0.0,3.5688,0.0,0.0,3.5857,3.5887,3.5925,3.5995,3.5996,3.5996,0.0,0.0,0.0,0.0,0.0,0.0,0.0,3.5996,3.5954,0.0,0.0,0.0,0.0,3.5831,3.5762,3.5718,0.0,0.0,3.5704,0.0,0.0,0.0,0.0,0.0,0.0,0.0,0.0,0.0,0.0,0.0,0.0,0.0,0.0,0.0,0.0,0.0,0.0,0.0,0.0,0.0,0.0,0.0,0.0,0.0,0.0,0.0,3.4316,3.4227,3.4179,3.4173,3.408,3.4049,3.3998,3.3921,3.3895,3.3895,3.3834,3.4174,3.4825,3.4935,3.5495,3.634,3.7129,3.7955,3.8658,3.8318,3.8186,3.8153,3.7809,3.7614,3.7578,3.7578,3.7505,3.7432,0.0,0.0,0.0,0.0,0.0,0.0,0.0,0.0,0.0,0.0,0.0,3.0682,3.1178,3.2187,3.2959,3.3322,3.4246,3.4859,3.4969,3.5379,3.5604,3.5608,3.5608,3.562,3.5662,3.5662,3.5673,0.0,0.0,0.0,0.0,3.5713,3.5706,0.0,0.0,0.0,0.0,0.0,3.5975,3.5996,3.5996,0.0,0.0,0.0,0.0,0.0,0.0,0.0,0.0,0.0,0.0,3.5845,3.5845,0.0,0.0,0.0,3.5742,0.0,3.566,3.5637,3.5643,0.0,0.0,0.0,0.0,0.0,0.0,0.0,0.0,0.0,0.0,0.0,0.0,0.0,0.0,0.0,0.0,0.0,0.0,0.0,0.0,0.0,0.0,0.0,0.0,0.0,0.0,3.4269,3.4148,3.4074,3.4049,3.4049,3.3972,3.3947,3.3947,3.3868,3.3842,3.386,3.4266,3.4558,3.475,3.5642,3.6401,3.6982,3.7331,3.7955,3.8676,3.8515,3.8285,3.8068,3.7913,3.7578,3.7152,3.7152,3.7017,3.6821,0.0,0.0,0.0,0.0,0.0,0.0,0.0,0.0,0.0,0.0,0.0,3.1261,3.1654,0.0,0.0,0.0,3.4808,3.5388,3.5604,3.5616,3.5628,3.5631,3.5631,3.5643,3.5704,3.5704,3.5704,0.0,0.0,0.0,3.5688,3.5774,3.5774,0.0,3.5861,0.0,0.0,0.0,0.0,0.0,0.0,0.0,0.0,0.0,0.0,0.0,0.0,0.0,0.0,0.0,0.0,0.0,0.0,0.0,0.0,0.0,0.0,0.0,0.0,0.0,3.5631,0.0,0.0,0.0,0.0,0.0,0.0,0.0,0.0,0.0,0.0,0.0,0.0,0.0,0.0,0.0,0.0,0.0,0.0,0.0,0.0,0.0,0.0,0.0,0.0,0.0,0.0,3.4099,3.4074,3.3998,3.3972,3.3972,3.3895,3.3868,3.3868,3.3815,3.3844,3.3981,3.4585,3.4902,3.4997,3.62,3.7015,3.7507,3.7507,3.7835,3.8401,3.8285,3.8068,3.7791,3.7685,3.7283,3.6759,3.6759,3.6557,3.6301,0.0,0.0,0.0,0.0,0.0,0.0,0.0,0.0,0.0,0.0,0.0,3.2349,3.3201,3.3526,3.4033,3.4865,3.5149,3.5388,3.5589,3.5662,3.5684,3.5684,3.5684,0.0,3.5704,3.5704,0.0,0.0,0.0,0.0,3.5693,3.5781,3.5836,3.589,3.5954,3.5996,3.5996,0.0,0.0,0.0,0.0,0.0,0.0,0.0,0.0,0.0,0.0,0.0,0.0,0.0,0.0,0.0,0.0,0.0,0.0,0.0,0.0,0.0,0.0,0.0,0.0,0.0,0.0,0.0,0.0,0.0,0.0,0.0,0.0,0.0,0.0,0.0,0.0,0.0,0.0,0.0,0.0,0.0,0.0,0.0,0.0,0.0,0.0,0.0,0.0,0.0,0.0,3.4074,3.3998,3.3947,3.3895,3.3895,3.3842,3.3807,3.3807,3.3788,3.4008,3.4467,3.4503,3.5109,3.6203,3.6274,3.6756,3.7506,3.7506,3.7542,3.7542,3.717,3.6978,3.6939,3.6516,3.6385,3.6343,3.6343,3.6343,3.6301,0.0,0.0,0.0,0.0,0.0,0.0,0.0,0.0,0.0,0.0,0.0,0.0,0.0,3.3918,3.4529,3.4832,3.5165,3.5438,3.5643,3.5684,3.5704,3.5704,3.5704,3.5704,3.5704,3.5704,0.0,0.0,0.0,3.5706,3.5702,3.5821,3.5884,3.5896,3.5974,3.5996,3.5996,3.5996,0.0,0.0,0.0,0.0,0.0,0.0,0.0,0.0,0.0,0.0,0.0,0.0,0.0,0.0,0.0,0.0,0.0,0.0,0.0,0.0,0.0,0.0,0.0,0.0,0.0,0.0,0.0,0.0,0.0,0.0,0.0,0.0,0.0,0.0,0.0,0.0,0.0,0.0,0.0,0.0,0.0,0.0,0.0,0.0,0.0,0.0,0.0,0.0,0.0,0.0,3.3947,3.3868,3.386,3.386,3.3815,3.3807,3.3807,3.4321,3.4641,3.4819,3.5908,3.6363,3.6328,3.6827,3.6943,3.6719,3.6719,3.7017,3.7505,3.734,3.7132,3.69,3.6741,3.6533,3.6301,3.6301,3.6301,3.6301,0.0,0.0,0.0,0.0,0.0,0.0,0.0,0.0,0.0,0.0,0.0,0.0,0.0,0.0,3.4851,3.4997,3.5243,3.5496,3.5704,3.5704,3.5704,3.5704,3.5704,3.5704,3.5704,0.0,0.0,0.0,0.0,0.0,0.0,3.5853,3.5918,3.5947,3.5976,3.5996,0.0,0.0,0.0,3.5996,0.0,0.0,3.5805,0.0,0.0,0.0,0.0,0.0,0.0,0.0,0.0,0.0,0.0,0.0,0.0,0.0,0.0,0.0,0.0,0.0,0.0,0.0,0.0,0.0,0.0,0.0,0.0,0.0,0.0,0.0,0.0,0.0,0.0,0.0,0.0,0.0,0.0,0.0,0.0,0.0,0.0,0.0,0.0,0.0,0.0,0.0,0.0,0.0,3.3868,3.3815,3.3807,3.3807,3.3807,3.3935,3.4211,3.4631,3.5046,3.5454,3.6431,3.6698,3.6315,3.6847,3.6821,3.6301,3.6301,3.6597,3.7094,3.7094,3.6939,3.6719,3.6719,3.6533,3.6301,3.6301,3.6301,3.6301,0.0,0.0,0.0,0.0,0.0,0.0,0.0,0.0,0.0,0.0,0.0,0.0,0.0,0.0,0.0,3.5364,3.5405,3.5477,3.5704,3.5704,3.5704,3.5704,3.5704,3.5704,3.5704,0.0,0.0,0.0,0.0,0.0,0.0,0.0,3.5948,3.5996,3.5996,3.5996,3.5996,0.0,3.5996,3.5996,0.0,3.5791,3.5794,0.0,0.0,0.0,3.5612,3.5601,0.0,0.0,0.0,0.0,0.0,0.0,0.0,0.0,0.0,0.0,0.0,0.0,0.0,0.0,0.0,0.0,0.0,0.0,0.0,0.0,0.0,0.0,0.0,0.0,0.0,0.0,0.0,0.0,0.0,0.0,0.0,0.0,0.0,0.0,0.0,0.0,0.0,0.0,0.0,3.3868,3.3788,3.3807,3.3807,3.3807,3.3825,3.4202,3.499,3.4679,3.513,3.6292,3.5945,3.5924,3.6343,3.6343,3.6301,3.6301,3.6301,3.6301,3.6301,3.6301,3.6301,3.6301,3.6301,3.6301,3.6301,3.6301,3.6301,3.6301,0.0,0.0,0.0,0.0,0.0,0.0,0.0,0.0,0.0,0.0,0.0,0.0,0.0,0.0,3.5114,3.5378,3.5521,3.5631,3.5704,3.5704,3.5704,3.5704,3.5704,3.5704,3.5704,0.0,0.0,0.0,0.0,0.0,0.0,0.0,0.0,0.0,3.5996,3.5975,3.5927,3.5976,0.0,0.0,3.5836,3.5775,0.0,0.0,0.0,0.0,0.0,3.5596,0.0,0.0,3.5591,3.5604,0.0,0.0,0.0,0.0,0.0,0.0,3.5591,0.0,0.0,0.0,0.0,0.0,0.0,3.5122,0.0,0.0,0.0,0.0,0.0,0.0,0.0,0.0,0.0,0.0,0.0,0.0,0.0,0.0,0.0,0.0,0.0,0.0,0.0,0.0,3.3834,3.3815,3.3807,3.3807,3.3807,3.3807,3.4124,3.4407,3.4643,3.5418,3.597,3.6292,3.6772,3.692,3.6741,3.6741,3.6557,3.6301,3.6301,3.6301,3.6301,3.6301,3.6301,3.6301,3.6301,3.6301,3.6301,3.6301,3.6276,3.6277,0.0,0.0,3.2651,3.3002,0.0,0.0,0.0,0.0,0.0,0.0,0.0,0.0,0.0,0.0,0.0,3.5391,3.5577,3.5704,3.5704,3.5704,3.5704,3.5704,3.5704,3.5704,3.5704,0.0,0.0,0.0,0.0,0.0,0.0,0.0,0.0,0.0,3.5974,0.0,0.0,0.0,0.0,0.0,3.5788,0.0,0.0,3.5635,3.5596,0.0,0.0,0.0,3.5534,3.536,3.536,0.0,0.0,0.0,0.0,0.0,0.0,0.0,0.0,0.0,0.0,0.0,0.0,0.0,3.4907,3.4889,3.4851,0.0,0.0,0.0,0.0,0.0,0.0,0.0,0.0,0.0,0.0,0.0,0.0,0.0,0.0,0.0,0.0,0.0,0.0,3.3788,3.3807,3.3807,3.3807,3.3807,3.3899,3.4108,3.4359,3.4736,3.5241,3.5794,3.6217,3.6535,3.6844,3.686,3.6638,3.6638,3.6533,3.6301,3.6301,3.6301,3.6301,3.6301,3.6301,3.6301,3.6301,3.6301,3.6301,3.6301,3.6276,3.6285,0.0,0.0,3.3643,3.3698,3.4049,3.434,0.0,0.0,0.0,0.0,0.0,0.0,0.0,0.0,0.0,0.0,3.5577,3.5704,3.5704,3.5704,3.5704,3.5704,3.5704,3.5695,3.5706,3.5706,0.0,0.0,0.0,0.0,0.0,0.0,0.0,0.0,3.5925,3.589,0.0,0.0,0.0,3.5762,3.5721,3.5697,0.0,0.0,3.5566,0.0,3.5247,3.5277,3.5369,3.5018,3.5016,0.0,0.0,0.0,0.0,0.0,3.5102,0.0,0.0,0.0,0.0,0.0,0.0,0.0,3.4653,3.4607,3.4517,0.0,0.0,0.0,0.0,0.0,0.0,0.0,0.0,0.0,0.0,0.0,0.0,0.0,0.0,0.0,0.0,3.3807,3.3807,3.3807,3.3807,3.3807,3.3807,3.3807,3.4036,3.4534,3.4563,3.513,3.631,3.596,3.6134,3.6821,3.6492,3.6301,3.6301,3.6301,3.6301,3.6301,3.6301,3.6301,3.6301,3.6301,3.6301,3.6301,3.6301,3.6301,3.6301,3.6301,3.6285,3.6406,3.2527,3.2872,3.319,3.3625,3.3787,3.3993,0.0,0.0,0.0,0.0,0.0,0.0,0.0,0.0,0.0,0.0,3.5577,3.5704,3.5704,3.5704,3.5704,3.5704,3.5704,3.5707,3.5706,3.5755,3.5802,0.0,0.0,0.0,0.0,0.0,0.0,0.0,3.5916,3.5841,0.0,0.0,0.0,3.5649,3.5679,0.0,3.5589,3.5369,3.5266,3.5239,3.5035,3.4982,3.5,0.0,3.4926,3.4943,0.0,0.0,0.0,0.0,0.0,0.0,0.0,0.0,0.0,0.0,0.0,0.0,3.4647,3.4604,3.4517,0.0,0.0,0.0,0.0,0.0,0.0,0.0,0.0,0.0,0.0,0.0,0.0,0.0,0.0,0.0,0.0,3.3807,3.3807,3.3807,3.3807,3.3807,3.3807,3.3807,3.4147,3.4887,3.4943,3.54,3.631,3.6217,3.6271,3.6409,3.6343,3.6301,3.6301,3.6301,3.6301,3.6301,3.6301,3.6301,3.6301,3.6301,3.6301,3.6301,3.6301,3.6301,3.6301,3.6301,3.6655,3.7178,3.3207,3.3465,3.3698,3.3943,3.4068,3.4255,0.0,0.0,0.0,0.0,0.0,0.0,0.0,0.0,0.0,0.0,0.0,0.0,0.0,0.0,3.5687,3.5708,3.5708,3.5715,3.5755,3.5821,3.5877,3.5893,0.0,0.0,0.0,0.0,0.0,0.0,0.0,0.0,0.0,0.0,3.5658,3.5581,3.5519,0.0,3.5369,3.5136,3.5053,3.5037,3.4831,3.467,3.4567,3.471,3.4752,0.0,0.0,3.4752,3.4753,0.0,3.4586,3.4409,0.0,0.0,0.0,3.4542,0.0,0.0,0.0,3.4386,3.4363,3.4221,0.0,0.0,0.0,0.0,0.0,0.0,0.0,0.0,0.0,0.0,0.0,0.0,0.0,0.0,0.0,3.3807,3.3807,3.3807,3.3807,3.3807,3.3807,3.3652,3.4011,3.5028,3.492,3.5328,3.6282,3.6301,3.6301,3.6301,3.6301,3.6301,3.6301,3.6301,3.6301,3.6301,3.6301,3.6301,3.6301,3.6301,3.6301,3.6301,3.6301,3.6301,3.6301,3.6276,3.6629,3.7295,3.3734,3.4023,3.4245,3.4293,3.4431,3.4561,3.4583,0.0,0.0,0.0,0.0,0.0,0.0,0.0,0.0,0.0,0.0,0.0,0.0,0.0,0.0,3.5693,3.5693,3.5748,3.5827,3.5861,3.5916,3.5923,0.0,0.0,0.0,0.0,0.0,0.0,0.0,0.0,0.0,0.0,0.0,3.5546,0.0,3.5232,3.5232,3.5,3.4908,3.487,3.4626,3.4386,3.4221,3.445,0.0,3.4517,3.4517,3.4517,0.0,0.0,0.0,0.0,0.0,0.0,0.0,0.0,0.0,3.4197,0.0,0.0,0.0,3.4197,0.0,0.0,0.0,0.0,0.0,0.0,0.0,0.0,0.0,0.0,0.0,0.0,0.0,0.0,0.0,3.3807,3.3807,3.3807,3.3807,3.3762,3.3707,3.3437,3.3862,3.508,3.4781,3.5182,3.6392,3.6343,3.6301,3.6301,3.6301,3.6301,3.6301,3.6301,3.6301,3.6301,3.6301,3.6301,3.6301,3.6301,3.6301,3.6301,3.6301,3.6259,3.6293,3.6337,3.6781,3.7382,3.3998,3.3998,3.4099,3.4269,3.4316,3.4386,3.4561,0.0,0.0,0.0,0.0,0.0,0.0,0.0,0.0,0.0,0.0,0.0,3.5695,0.0,0.0,3.5693,3.5693,3.5768,3.5887,3.5893,3.5925,3.5996,3.5996,0.0,0.0,0.0,0.0,0.0,3.5666,0.0,0.0,0.0,3.5572,0.0,3.51,3.5149,0.0,3.5034,3.4908,3.4831,3.439,3.4221,3.4197,0.0,3.4245,3.4245,0.0,3.4245,0.0,0.0,0.0,0.0,0.0,0.0,0.0,0.0,3.4197,0.0,0.0,0.0,3.4197,3.4197,0.0,0.0,0.0,0.0,0.0,0.0,0.0,0.0,0.0,0.0,0.0,0.0,0.0,0.0,0.0,0.0,3.3807,3.3807,3.3807,3.368,3.3379,3.3321,3.3862,3.515,3.4817,3.5335,3.6821,3.6492,3.6301,3.6301,3.6301,3.6301,3.6301,3.6301,3.6301,3.6301,3.6301,3.6301,3.6301,3.6301,3.6301,3.6301,3.6251,3.6208,3.6294,3.6789,3.7445,3.815,3.4173,3.4269,3.4363,3.4473,3.4473,3.4495,0.0,0.0,0.0,0.0,0.0,0.0,0.0,0.0,0.0,0.0,0.0,3.5704,0.0,0.0,0.0,0.0,3.5768,0.0,3.5955,3.5955,3.5976,3.5995,3.5993,0.0,0.0,0.0,0.0,0.0,3.565,0.0,3.5528,0.0,0.0,0.0,0.0,0.0,0.0,3.4714,3.4502,3.4458,3.4269,3.4197,3.4197,0.0,3.4197,0.0,0.0,0.0,0.0,0.0,0.0,0.0,0.0,0.0,0.0,0.0,0.0,0.0,0.0,0.0,3.4197,0.0,0.0,0.0,0.0,0.0,0.0,0.0,0.0,0.0,0.0,0.0,0.0,0.0,0.0,0.0,0.0,0.0,0.0,0.0,0.0,3.3361,3.3032,3.2813,3.3379,3.4818,3.4504,3.5005,3.6557,3.6367,3.6301,3.6301,3.6301,3.6301,3.6301,3.6301,3.6301,3.6301,3.6301,3.6301,3.6301,3.6301,3.6301,3.6301,3.6208,3.6225,3.6268,3.6891,3.7536,3.8176,3.434,0.0,0.0,0.0,0.0,0.0,0.0,0.0,0.0,0.0,0.0,0.0,3.5824,3.6176,0.0,0.0,0.0,3.6462,0.0,0.0,3.6138,0.0,0.0,0.0,0.0,0.0,3.5993,3.5991,3.601,0.0,0.0,0.0,0.0,0.0,0.0,3.5554,3.5509,0.0,0.0,3.5402,3.5152,3.5132,3.523,3.4795,3.4604,3.455,3.455,3.455,3.4513,3.4271,3.4197,0.0,3.4197,0.0,0.0,0.0,0.0,0.0,3.4197,0.0,0.0,0.0,0.0,0.0,0.0,0.0,0.0,0.0,0.0,0.0,0.0,0.0,0.0,0.0,0.0,0.0,0.0,0.0,0.0,0.0,0.0,0.0,0.0,0.0,0.0,0.0,0.0,0.0,3.2684,3.2437,3.2967,3.4431,3.4233,3.48,3.6284,3.6301,3.6301,3.6301,3.6301,3.6301,3.6301,3.6301,3.6301,3.6301,3.6301,3.6301,3.6301,3.6301,3.6301,3.6276,3.6165,3.6122,3.6199,3.7024,3.7643,3.8146,3.4495,3.4539,0.0,0.0,0.0,0.0,0.0,0.0,0.0,0.0,0.0,0.0,0.0,0.0,0.0,0.0,0.0,3.8381,3.8316,0.0,3.7142,0.0,0.0,3.5933,0.0,0.0,0.0,3.5991,3.6007,0.0,0.0,0.0,0.0,0.0,0.0,3.5507,3.5493,3.5289,3.5226,3.5193,3.4791,3.4978,3.5516,0.0,3.5624,3.5442,3.5442,0.0,0.0,3.4476,3.4197,0.0,0.0,0.0,0.0,0.0,0.0,0.0,0.0,0.0,0.0,3.4197,0.0,0.0,0.0,0.0,3.4197,0.0,0.0,0.0,0.0,0.0,0.0,0.0,0.0,0.0,0.0,0.0,0.0,0.0,0.0,0.0,0.0,0.0,0.0,0.0,0.0,0.0,3.2352,3.2318,3.2877,3.4081,3.4093,3.48,3.6284,3.6301,3.6301,3.6301,3.6301,3.6301,3.6301,3.6301,3.6301,3.6301,3.6301,3.6301,3.6301,3.6301,3.6276,3.6165,3.6079,3.5949,3.5987,3.7432,3.7976,3.8214,3.4427,0.0,0.0,0.0,0.0,0.0,0.0,3.5032,0.0,0.0,0.0,0.0,0.0,0.0,3.8342,0.0,0.0,3.8489,3.8479,3.8202,0.0,0.0,0.0,3.6795,0.0,0.0,0.0,0.0,0.0,0.0,0.0,0.0,0.0,0.0,0.0,3.5493,0.0,0.0,0.0,0.0,0.0,3.5754,3.6247,0.0,0.0,3.6278,3.6278,3.6278,0.0,3.5943,3.5497,3.5052,3.5052,3.4661,3.4197,3.4197,3.4197,0.0,0.0,0.0,3.4197,3.4197,0.0,0.0,0.0,0.0,0.0,0.0,0.0,0.0,0.0,0.0,0.0,0.0,0.0,0.0,0.0,0.0,0.0,0.0,0.0,0.0,0.0,0.0,0.0,0.0,0.0,0.0,0.0,3.1965,3.2639,3.4042,3.4093,3.48,3.6284,3.6301,3.6301,3.6301,3.6301,3.6301,3.6301,3.6301,3.6301,3.6301,3.6301,3.6301,3.6301,3.6233,3.6208,3.6182,3.6062,3.6283,3.6757,3.7733,3.8014,3.8139,3.4458,0.0,0.0,0.0,0.0,0.0,0.0,0.0,0.0,0.0,3.7371,0.0,3.9129,0.0,3.9881,0.0,4.0045,3.9893,3.9893,3.933,0.0,3.8995,3.8162,0.0,0.0,0.0,0.0,0.0,0.0,3.5878,0.0,0.0,0.0,0.0,0.0,0.0,0.0,0.0,3.5226,0.0,0.0,3.6522,0.0,0.0,3.6668,3.7132,0.0,3.7132,3.7076,3.6798,3.6352,3.5925,3.5925,3.5535,3.5089,3.5089,3.5089,3.5089,3.5089,3.5064,0.0,3.5039,3.5039,0.0,3.5013,0.0,0.0,0.0,0.0,0.0,0.0,0.0,0.0,0.0,0.0,0.0,0.0,3.2908,0.0,0.0,0.0,0.0,0.0,0.0,0.0,0.0,0.0,0.0,0.0,0.0,3.2507,3.4042,3.4093,3.48,3.6284,3.6301,3.6301,3.6301,3.6301,3.6301,3.6301,3.6301,3.6301,3.6301,3.6259,3.6276,3.6276,3.6165,3.6079,3.6036,3.5949,3.6365,3.7087,3.7819,3.8353,3.8819,3.4593,3.487,0.0,0.0,3.4752,0.0,0.0,0.0,3.6747,0.0,3.8487,4.0012,4.0866,4.1802,4.2692,4.3534,4.2906,0.0,4.2461,4.0937,0.0,0.0,3.9158,3.8666,3.8666,0.0,0.0,0.0,0.0,0.0,0.0,0.0,0.0,0.0,3.5493,0.0,3.5193,3.502,3.5318,3.5946,3.6528,3.7225,3.7949,3.7949,3.7949,3.7949,3.7949,3.7949,3.7838,3.7076,3.6779,3.676,3.676,3.6723,3.6686,3.6686,3.6686,3.6686,3.6705,3.6652,3.6591,3.6591,0.0,0.0,0.0,0.0,3.6362,0.0,0.0,0.0,0.0,0.0,0.0,0.0,0.0,0.0,0.0,0.0,0.0,0.0,0.0,0.0,0.0,0.0,0.0,0.0,0.0,0.0,0.0,0.0,3.2507,3.4042,3.4093,3.48,3.6284,3.6301,3.6301,3.6301,3.6301,3.6301,3.6301,3.6301,3.6301,3.6301,3.6208,3.6182,3.6182,3.6036,3.5888,3.5817,3.5824,3.6271,3.7022,3.7776,3.8899,4.007,3.4792,3.4926,3.5051,0.0,3.5235,3.5503,0.0,0.0,0.0,0.0,3.984,4.0918,4.1832,4.2721,4.3383,4.3651,4.3496,0.0,0.0,0.0,0.0,4.1757,4.0345,3.9578,3.9578,3.8712,0.0,3.7301,0.0,0.0,3.5693,0.0,0.0,0.0,0.0,0.0,3.5231,3.5628,3.64,3.7385,3.753,3.8061,0.0,0.0,3.8785,3.8785,3.8785,3.8785,3.8767,3.8544,3.8079,3.7578,3.7578,3.7169,3.6686,3.6686,3.6686,3.6686,3.6626,3.6618,3.6591,3.6537,3.6509,3.6509,0.0,0.0,0.0,0.0,0.0,0.0,0.0,0.0,0.0,0.0,0.0,0.0,0.0,0.0,0.0,0.0,0.0,0.0,0.0,0.0,0.0,0.0,0.0,0.0,0.0,0.0,0.0,3.4042,3.4093,3.48,3.6284,3.6301,3.6301,3.6301,3.6301,3.6301,3.6301,3.6301,3.6259,3.6208,3.6225,3.6122,3.6019,3.5905,3.5817,3.5824,3.6356,3.7326,3.8447,3.8664,3.9325,4.007,3.5019,0.0,0.0,3.6021,0.0,0.0,3.6768,0.0,0.0,3.9945,4.0906,0.0,4.3246,4.3886,4.4371,4.4805,4.4492,0.0,0.0,0.0,0.0,4.2967,4.1693,4.0982,4.0945,3.9724,0.0,3.8252,0.0,0.0,3.6212,0.0,0.0,0.0,0.0,3.5575,0.0,3.6688,3.7445,3.8096,3.8319,0.0,0.0,3.9101,3.9101,3.9101,3.9101,3.9101,3.9101,3.9101,3.8804,3.8414,3.8414,3.8098,3.7745,3.7745,3.7745,3.7718,3.7655,3.7646,3.759,3.7534,3.7477,3.7466,3.7466,3.7283,3.7064,0.0,0.0,0.0,0.0,0.0,0.0,0.0,0.0,0.0,0.0,0.0,0.0,0.0,0.0,0.0,0.0,0.0,0.0,0.0,0.0,0.0,0.0,0.0,0.0,3.4042,3.4093,3.48,3.6284,3.6301,3.6301,3.6301,3.6301,3.6259,3.6276,3.6276,3.6191,3.6122,3.6036,3.5993,3.5888,3.5773,3.5915,3.6339,3.7377,3.8261,3.9039,3.9343,3.9732,4.007,3.5564,0.0,0.0,0.0,0.0,0.0,0.0,3.8728,0.0,4.0893,0.0,4.3142,4.4668,4.5026,4.5488,4.623,0.0,4.5176,4.5176,4.4355,4.3867,4.3864,4.3021,4.2474,4.2309,4.0799,0.0,0.0,0.0,0.0,0.0,0.0,0.0,0.0,0.0,0.0,0.0,3.7848,3.8338,0.0,3.8912,3.9101,3.9101,3.9101,3.9101,3.9101,3.9101,3.9101,3.9101,3.9101,3.9101,3.9101,3.9101,3.9101,3.9101,3.9101,3.9101,3.9073,3.9007,3.8921,3.8881,3.8822,3.875,3.8707,3.8707,3.8676,3.8515,3.8168,3.7507,3.6886,0.0,0.0,0.0,0.0,0.0,0.0,0.0,0.0,0.0,0.0,0.0,0.0,0.0,0.0,0.0,0.0,0.0,0.0,0.0,0.0,0.0,3.4042,3.418,0.0,3.6284,0.0,3.6301,3.6301,3.6301,3.6276,3.6208,3.6208,3.6165,3.6019,3.5905,3.5817,3.579,3.5785,3.6282,3.7195,3.8481,3.9056,3.9208,3.9834,4.007,4.007,0.0,0.0,0.0,0.0,0.0,3.9548,4.0102,4.0521,4.1046,4.191,4.3435,4.4569,4.4937,4.5624,4.6133,4.6289,4.6152,0.0,0.0,0.0,0.0,4.478,4.3829,4.2992,4.2305,4.1883,4.0956,0.0,0.0,0.0,0.0,0.0,0.0,0.0,0.0,0.0,3.8207,3.829,0.0,3.8979,3.9073,3.9101,3.9101,3.9101,3.9101,3.9101,3.9101,3.9101,3.9101,3.9101,3.9101,3.9101,3.9101,3.9101,3.9101,3.9101,3.9101,3.9073,3.895,3.891,3.8881,3.875,3.8707,3.8707,3.8707,3.8433,3.8186,3.8101,3.7718,3.747,3.7749,0.0,0.0,0.0,0.0,0.0,0.0,0.0,0.0,0.0,0.0,0.0,0.0,0.0,0.0,0.0,0.0,0.0,0.0,0.0,0.0,0.0,3.468,0.0,0.0,0.0,3.6301,3.6301,3.6301,3.6301,3.6259,3.6259,3.6233,3.6165,3.6122,3.5993,3.5868,3.6418,3.7441,3.8633,3.8886,3.936,3.9901,4.002,4.007,4.007,0.0,0.0,0.0,0.0,0.0,0.0,0.0,4.2733,0.0,4.3539,4.436,4.5079,4.5577,4.6034,4.6308,4.6308,4.6308,4.6308,4.6308,4.5917,4.5637,4.5578,4.4665,0.0,4.3452,4.2496,4.1555,4.0688,0.0,0.0,0.0,0.0,0.0,0.0,0.0,3.8169,0.0,0.0,0.0,3.9298,3.9156,3.9101,3.9101,3.9101,3.9101,3.9101,3.9101,3.9101,3.9101,3.9101,3.9101,3.9101,3.9101,3.9101,3.9101,3.9101,3.9073,3.9036,3.8921,3.8862,3.8822,3.8719,3.8707,3.8707,3.8707,3.8546,3.8401,3.8401,3.8101,3.7879,3.8068,3.7589,0.0,0.0,0.0,0.0,0.0,0.0,0.0,0.0,0.0,0.0,0.0,0.0,0.0,0.0,0.0,0.0,0.0,0.0,0.0,0.0,0.0,0.0,0.0,0.0,0.0,3.6301,3.6301,3.6259,3.6251,3.6251,3.6191,3.6096,3.649,3.6573,3.6463,3.7526,3.8376,3.9039,3.9411,3.9766,4.007,4.007,4.007,4.007,0.0,4.0333,0.0,0.0,4.2571,0.0,4.384,4.4527,4.4957,4.4851,4.5047,4.5453,4.6156,4.6267,4.6308,4.6308,4.6308,4.6308,4.6308,4.6267,4.6212,4.6094,4.5397,4.4842,4.4517,4.3123,4.2208,0.0,0.0,0.0,0.0,0.0,0.0,0.0,0.0,0.0,0.0,0.0,3.9477,3.9401,3.921,3.9101,3.9101,3.9101,3.9101,3.9101,3.9101,3.9101,3.9101,3.9101,3.9101,3.9101,3.9101,3.9101,3.9101,3.9073,3.9036,3.9034,3.9113,3.911,3.9086,3.9197,3.9221,3.9221,3.9221,3.9221,3.9166,3.9001,3.8561,3.8186,3.7982,3.7721,0.0,0.0,0.0,0.0,0.0,0.0,0.0,0.0,0.0,0.0,0.0,0.0,0.0,0.0,0.0,0.0,0.0,0.0,0.0,0.0,0.0,3.5714,3.6284,0.0,3.6301,0.0,3.6301,3.6259,3.6208,3.6225,3.6208,3.631,3.6847,3.72,3.75,3.8546,3.9089,3.9276,3.9851,4.007,4.007,4.007,4.007,4.007,0.0,0.0,0.0,0.0,0.0,0.0,0.0,4.4898,4.5,4.4979,4.5664,4.6191,4.6289,4.6308,4.6308,4.6308,4.6308,4.6308,4.6308,4.6189,4.6114,4.6108,4.5852,4.5338,4.4517,4.4218,4.3333,0.0,0.0,0.0,0.0,0.0,0.0,0.0,0.0,0.0,0.0,3.947,3.9376,3.9129,3.9129,3.9101,3.9101,3.9101,3.9101,3.9101,3.9101,3.9101,3.9101,3.9101,3.9101,3.9101,3.9101,3.9101,3.9073,3.9036,3.9007,3.9116,3.9725,3.9896,4.005,4.0708,4.0891,4.0891,4.0891,4.0891,4.0671,3.9937,3.9171,3.8401,3.7685,3.7542,3.7248,0.0,0.0,0.0,0.0,0.0,0.0,0.0,0.0,0.0,0.0,0.0,0.0,0.0,0.0,0.0,0.0,0.0,0.0,3.5094,0.0,3.6232,3.6301,3.6301,3.6301,3.6301,3.6301,3.6301,3.6301,3.6208,3.656,3.7168,3.7131,3.7814,3.9013,3.8986,3.9377,3.9986,4.0054,4.007,4.007,4.007,4.007,4.007,0.0,0.0,0.0,0.0,0.0,0.0,0.0,4.5761,4.5781,4.5781,4.6074,4.6308,4.6308,4.6308,4.6308,4.6308,4.6308,4.6308,4.6308,4.6163,4.6053,4.5979,4.5852,4.5602,4.5163,4.46,4.397,0.0,0.0,0.0,0.0,0.0,0.0,0.0,0.0,3.9675,3.9502,3.9324,3.9192,3.9101,3.9101,3.9101,3.9157,3.9677,3.9881,3.9937,4.042,4.0606,4.0606,4.0606,4.0271,3.9881,3.9881,4.0187,4.0537,4.0507,4.0399,4.0363,4.0633,4.068,4.074,4.1038,4.1111,4.1111,4.1111,4.1111,4.102,4.0689,4.0127,3.9472,3.8741,3.8182,3.758,0.0,0.0,0.0,0.0,0.0,0.0,0.0,0.0,0.0,0.0,0.0,0.0,0.0,0.0,0.0,0.0,0.0,0.0,3.5197,0.0,3.6301,3.6301,3.6301,3.6301,3.6301,3.6301,3.65,3.6895,3.6852,3.7477,3.8533,3.844,3.8942,3.9863,3.9697,3.9817,4.007,4.007,4.007,4.007,4.007,4.007,4.007,4.4247,0.0,4.5236,0.0,4.5827,4.6241,4.6289,4.6308,4.6308,4.6308,4.6308,4.6308,4.6308,4.6308,4.6308,4.6308,4.6308,4.6289,4.6243,4.6123,4.5979,4.588,4.5802,0.0,4.5603,4.4989,4.4566,4.4297,4.3104,0.0,0.0,0.0,0.0,0.0,3.9747,3.9489,3.9395,3.9444,3.9472,3.9491,3.9733,3.9844,3.99,4.0513,4.0736,4.0828,4.1386,4.159,4.159,4.159,4.1367,4.1051,4.0799,4.1074,4.1508,4.1428,4.1317,4.1259,4.1466,4.1475,4.1515,4.1754,4.1809,4.1809,4.1809,4.1809,4.1754,4.1515,4.1022,4.0398,3.9766,3.8919,3.8042,3.7361,0.0,0.0,0.0,0.0,0.0,0.0,0.0,3.5483,3.5483,0.0,0.0,0.0,0.0,0.0,0.0,0.0,0.0,0.0,0.0,0.0,0.0,3.6259,3.6379,3.6603,3.6603,3.6913,3.7552,3.7792,3.8384,3.9296,3.9421,3.9763,4.0238,4.0138,4.007,4.007,4.007,4.007,4.007,4.007,4.007,4.002,4.598,4.6183,4.6192,4.6269,4.6289,4.6308,4.6308,4.6308,4.6308,4.6308,4.6308,4.6308,4.6308,4.6308,4.6308,4.6308,4.6308,4.6246,4.6113,4.5981,4.5862,0.0,0.0,4.5603,4.5586,4.5586,4.5163,4.4297,0.0,0.0,4.1777,0.0,4.0248,3.9797,3.9797,3.9543,3.9157,4.0011,4.0383,4.0438,4.1237,4.1571,4.1571,4.1571,4.159,4.159,4.159,4.159,4.159,4.159,4.211,4.263,4.176,4.1489,4.1459,4.1235,4.1204,4.1356,4.2099,4.2286,4.2488,4.3259,4.3461,4.3461,4.3461,4.3461,4.324,4.2451,4.1662,4.0961,4.0545,3.9499,3.8572,3.8126,0.0,0.0,0.0,0.0,0.0,0.0,3.6208,3.6208,3.6208,0.0,0.0,0.0,0.0,0.0,0.0,0.0,0.0,3.6284,3.6301,0.0,3.6301,3.6251,3.656,3.7315,3.7281,3.7614,3.823,3.8874,3.9134,3.9039,3.9749,4.007,4.007,4.007,4.007,4.007,4.007,4.007,4.007,4.007,4.007,4.007,4.6969,4.7146,4.7342,4.7969,4.8066,4.8066,4.8066,4.8066,4.8066,4.8066,4.8066,4.8066,4.8066,4.7012,4.6288,0.0,4.6237,4.6179,0.0,4.592,4.5813,4.5808,4.5684,4.5586,4.5586,4.5586,4.5451,4.5182,0.0,0.0,0.0,4.203,4.1654,4.1499,4.1154,4.0943,4.081,4.1089,4.1219,4.1237,4.1497,4.159,4.1664,4.2203,4.2407,4.2482,4.3039,4.3243,4.3243,4.3243,4.341,4.3578,4.3243,4.3106,4.3061,4.2996,4.2879,4.2815,4.3039,4.3112,4.3167,4.3424,4.3497,4.3497,4.3497,4.3497,4.3424,4.3167,4.2684,4.2105,4.1452,4.0757,4.0032,3.9077,3.8117,0.0,0.0,0.0,0.0,0.0,0.0,3.6276,0.0,3.6208,0.0,0.0,0.0,0.0,0.0,0.0,0.0,0.0,3.6276,0.0,3.6981,3.6981,3.7315,3.8071,3.8143,3.8494,3.9093,3.9785,4.0078,4.0046,4.0186,4.0255,4.0238,4.0138,4.007,4.007,4.007,4.007,4.007,4.007,4.007,4.002,4.7988,4.8086,4.8262,4.8808,4.8906,4.8906,4.8906,4.8906,4.8906,4.8906,4.8865,4.8824,4.8824,4.784,0.0,4.7139,4.7123,4.6918,4.6435,4.6341,4.6125,4.5746,4.5635,4.5586,4.5586,0.0,0.0,4.5586,4.5047,4.4355,4.3547,4.3196,4.2843,4.243,4.2046,4.1819,4.1745,4.1965,4.2054,4.2073,4.237,4.25,4.2556,4.3058,4.3243,4.3318,4.3819,4.4005,4.4005,4.4005,4.4005,4.4005,4.3961,4.3883,4.3804,4.3753,4.3634,4.3513,4.3532,4.3497,4.3497,4.3497,4.3497,4.3497,4.3497,4.3497,4.3497,4.3497,4.3304,4.296,4.2468,4.1794,4.1053,4.0134,3.9188,3.8391,3.7975,0.0,0.0,0.0,0.0,0.0,0.0,3.6208,0.0,0.0,0.0,0.0,0.0,0.0,0.0,3.6732,3.6724,0.0,3.7772,3.7755,3.8071,3.8843,3.9071,3.9465,3.9833,4.0165,4.032,4.0337,4.0238,4.0238,4.0238,4.0121,4.007,4.007,4.007,4.007,4.007,4.007,4.007,4.007,4.8984,4.8984,0.0,0.0,4.9062,0.0,4.9062,4.9062,4.9062,4.9062,4.8951,4.8868,4.8868,4.8815,4.8794,4.886,0.0,0.0,0.0,4.7191,4.6728,4.5738,4.5682,4.5663,4.5586,4.5586,4.5586,4.5586,4.5586,4.5182,4.4393,4.4357,4.3826,4.2831,4.2557,4.2322,4.216,4.2686,4.2872,4.2946,4.3708,4.4005,4.4005,4.4005,4.4005,4.4005,4.4005,4.4005,4.4005,4.4005,4.4005,4.4005,4.4005,4.3897,4.3786,4.3667,4.3582,4.3582,4.3532,4.3497,4.3497,4.3497,4.3497,4.3497,4.3497,4.3497,4.3497,4.3497,4.3497,4.3497,4.3497,4.2558,4.1667,4.1246,4.0164,3.9213,3.8753,0.0,0.0,0.0,0.0,0.0,0.0,3.638,3.6363,0.0,0.0,0.0,0.0,0.0,3.6585,3.7542,3.756,3.7922,3.8663,3.8556,3.8843,3.9615,4.0095,4.0288,4.0305,4.0188,4.0121,4.0121,4.0138,4.0121,4.0121,4.0121,4.007,4.007,4.007,4.007,4.007,4.007,4.0104,4.0155,0.0,0.0,5.0098,5.0703,5.0801,5.0801,5.0801,5.0756,5.0725,5.0725,5.0664,5.0602,5.0602,5.0548,5.0508,5.0539,4.9303,4.8378,4.8037,4.8021,4.759,4.6624,4.6586,4.6278,4.5605,4.5586,4.5586,4.5586,4.5586,4.549,4.5278,4.5093,4.4739,4.4284,4.4014,4.3765,4.3532,4.3664,4.3726,4.3726,4.3912,4.4005,4.4005,4.4005,4.4005,4.4005,4.4005,4.4005,4.4005,4.4005,4.4005,4.4005,4.3961,4.3897,4.3851,4.3786,4.3634,4.3513,4.3479,4.3497,4.3497,4.3497,4.3497,4.3497,4.3497,4.3497,4.3497,4.3497,4.3497,4.3497,4.3497,4.3032,4.2479,4.2011,4.0919,3.9957,3.9531,3.8784,0.0,0.0,3.8119,3.8016,3.8016,3.7954,3.7954,0.0,0.0,0.0,0.0,3.8012,3.7995,3.8318,3.8229,3.8528,3.9301,3.9318,3.9714,4.0422,4.0449,4.0436,4.0436,4.0436,4.0436,4.0387,4.0288,4.0238,4.0238,4.0138,4.007,4.007,4.007,4.007,4.007,4.007,4.0443,4.0933,5.0664,5.0742,5.0898,5.1328,5.1365,5.1342,5.1342,5.1297,5.1244,5.1244,5.1195,5.1152,5.1152,5.1074,5.1004,5.1004,5.0131,4.9364,4.888,4.8844,4.8424,4.749,4.7105,4.6682,4.6201,4.5797,4.5586,4.5586,4.5586,4.5586,4.5586,4.5322,4.5118,4.4985,4.4572,4.4318,4.4162,4.4048,4.4005,4.4005,4.4005,4.4005,4.4005,4.4005,4.4005,4.4005,4.4005,4.4005,4.4005,4.4005,4.4005,4.3974,4.3929,4.3883,4.3818,4.3753,4.3634,4.3548,4.3532,4.3497,4.3497,4.3497,4.3497,4.3497,4.3497,4.3497,4.3497,4.3497,4.3497,4.3444,4.3268,4.3032,4.2673,4.199,4.1357,4.0744,4.0326,3.9577,0.0,3.9094,3.8801,3.8594,3.8594,3.8532,3.8532,3.8594,0.0,0.0,3.9094,3.9376,3.9365,3.9021,3.8958,3.9225,3.9949,4.0014,4.0189,4.0502,4.0436,4.0387,4.0337,4.0337,4.0337,4.032,4.0238,4.0188,4.0188,4.0121,4.007,4.007,4.007,4.029,4.0595,4.0595,4.1068,4.1694,5.1406,5.1406,5.1406,5.1386,5.1335,5.1293,5.1288,5.1232,5.1178,5.1178,5.1111,5.1069,5.1069,5.0961,5.0906,5.0906,5.0906,5.0565,4.9749,4.9693,4.9273,4.8336,4.7528,4.7028,4.6913,4.6047,4.5586,4.5586,4.5586,4.5586,4.5531,4.5302,4.5159,4.5052,4.4599,4.4374,4.4318,4.4109,4.4005,4.4005,4.4005,4.4005,4.4005,4.4005,4.4005,4.4005,4.4005,4.4005,4.4005,4.4005,4.4005,4.3974,4.3915,4.3818,4.3771,4.3634,4.3582,4.3582,4.3532,4.3497,4.3497,4.3497,4.3497,4.3497,4.3497,4.3497,4.3497,4.3497,4.3444,4.3304,4.2957,4.2788,4.2418,4.1648,4.1445,4.1283,4.0965,0.0,3.9871,3.9871,3.9319,3.8939,3.8939,3.8939,3.8939,3.8939,3.9526,3.9871,3.9871,4.0509,4.053,3.9718,3.9701,3.9963,4.0468,4.0485,4.0436,4.0355,4.0305,4.0238,4.0138,4.0138,4.007,4.007,4.007,4.007,4.007,4.007,4.0155,4.0257,4.0257,4.0713,4.1373,4.1373,4.183,4.2472,5.1406,5.1406,5.1386,5.133,5.1301,5.1284,5.1213,5.1162,5.1109,5.1109,5.1017,5.0937,5.0937,5.0921,5.0906,5.0906,5.0906,5.0816,5.0617,5.06,5.0179,4.924,4.8375,4.7605,4.6913,4.6047,4.5586,4.5586,4.5586,4.5495,4.5263,4.5222,4.4943,4.4519,4.4438,4.426,4.4048,4.4036,4.4005,4.4005,4.4005,4.4005,4.4005,4.4005,4.4005,4.4005,4.4005,4.4005,4.4005,4.4005,4.3942,4.3897,4.3837,4.3719,4.3634,4.3532,4.3532,4.3513,4.3479,4.3497,4.3497,4.3497,4.3497,4.3497,4.3497,4.3497,4.3497,4.3497,4.3232,4.2957,4.292,4.2239,4.1648,4.1516,4.1192,4.0965,4.0935,0.0,4.0698,4.0698,4.0595,4.0526,4.0526,4.0526,4.0526,4.0526,4.0629,4.0698,4.0698,4.0819,4.0772,4.0525,4.0508,4.0511,4.0485,4.0485,4.0485,4.0485,4.0337,4.0305,4.0255,4.0138,4.007,4.007,4.007,4.007,4.007,4.007,4.046,4.1035,4.1035,4.1474,4.2117,4.2117,4.2608,4.325,5.134,5.1357,5.131,5.1263,5.1218,5.1178,5.1152,5.1062,5.099,5.099,5.0952,5.0906,5.0906,5.0906,5.0906,5.0906,5.0893,5.0861,5.081,5.0793,5.0583,5.0106,4.926,4.8202,4.6932,4.6047,4.5586,4.5586,4.5476,4.5322,4.5201,4.4896,4.465,4.4383,4.425,4.4121,4.4005,4.4005,4.4005,4.4005,4.4005,4.4005,4.4005,4.4005,4.4005,4.4005,4.4005,4.4005,4.4005,4.4005,4.3961,4.3883,4.3837,4.3719,4.3582,4.3513,4.3497,4.3497,4.3497,4.3497,4.3497,4.3497,4.3497,4.3497,4.3497,4.3497,4.3444,4.3232,4.3032,4.2768,4.2257,4.1778,4.1445,4.1192,4.0995,0.0,0.0,4.0888,4.0888,4.0888,4.0888,4.0888,4.0888,4.0888,4.0888,4.0888,4.0888,4.0888,4.0888,4.0888,4.0888,4.0793,4.0697,4.0534,4.0485,4.0485,4.0485,4.0485,4.0436,4.0387,4.0387,4.032,4.0337,4.032,4.0238,4.0408,4.0765,4.0731,4.1119,4.1779,4.1779,4.2236,4.2895,4.2895,4.3386,4.4045,5.1288,5.1279,5.1263,5.1187,5.1122,5.1093,5.1056,5.0961,5.0906,5.0906,5.0906,5.0906,5.0906,5.0906,5.0906,5.0906,5.0897,5.0863,5.081,5.0793,5.0739,5.0702,4.9875,4.8702,4.7221,4.6509,4.6049,4.582,4.5589,4.533,4.5007,4.4599,4.4374,4.4308,4.4314,4.4302,4.4302,4.4506,4.4581,4.4581,4.4581,4.4581,4.4581,4.4581,4.4581,4.4581,4.4581,4.4581,4.4581,4.4581,4.4536,4.4439,4.4391,4.4273,4.4118,4.4083,4.4048,4.4011,4.3828,4.392,4.4048,4.4048,4.4048,4.4048,4.4048,4.3901,4.3649,4.3248,4.2933,4.2498,4.1648,4.1445,4.1237,4.0965,0.0,0.0,0.0,4.0888,4.0888,4.0888,4.0888,4.0888,4.0888,4.0888,4.0888,4.0888,4.0888,4.0888,4.0888,4.0888,4.0888,4.0888,4.068,4.0534,4.0485,4.0534,4.0534,4.0534,4.0534,4.0534,4.0534,4.0534,4.0571,4.0692,4.0593,4.0968,4.1596,4.151,4.1897,4.2557,4.2557,4.3014,4.369,4.369,4.4062,4.4587,5.1225,5.1211,5.1187,5.112,5.1105,5.1056,5.0917,5.0906,5.0906,5.0906,5.0906,5.0906,5.0906,5.0906,5.0906,5.0906,5.0897,5.0863,5.081,5.0738,5.0702,5.0683,4.9875,4.8952,4.8029,4.7952,4.7415,4.6428,4.6407,4.5745,4.4465,4.4411,4.4279,4.4055,4.4841,4.5194,4.5249,4.5992,4.6308,4.6308,4.6308,4.6308,4.6308,4.6308,4.6308,4.6308,4.6308,4.6308,4.6308,4.6308,4.6209,4.602,4.602,4.588,4.5718,4.5718,4.5718,4.5553,4.4819,4.5168,4.5718,4.5718,4.5718,4.5718,4.5718,4.5149,4.451,4.4082,4.3059,4.2074,4.1604,4.1209,4.0918,4.0871,0.0,0.0,4.0888,4.0888,4.0888,4.0888,4.0888,4.0888,4.0888,4.0888,4.0888,4.0888,4.0888,4.0888,4.0888,4.0888,4.0888,4.0888,4.0745,4.0648,4.0485,4.0648,4.0697,4.0697,4.0697,4.0697,4.0697,4.0534,4.0812,4.1308,4.1308,4.1681,4.2202,4.2202,4.2658,4.3335,4.3335,4.3809,4.4485,4.4485,4.4536,4.4587,5.1152,5.1132,5.1089,5.1004,5.0976,5.0947,5.0906,5.0906,5.0906,5.0906,5.0906,5.0906,5.0906,5.0906,5.0909,5.0913,5.0863,5.081,5.0738,5.0702,5.0702,5.0683,4.9875,4.924,4.8913,4.82,4.7656,4.7245,4.6922,4.6466,4.596,4.5772,4.5655,4.5565,4.59,4.603,4.6048,4.6364,4.6494,4.6494,4.6494,4.6494,4.6494,4.6494,4.6494,4.6494,4.6494,4.6494,4.6494,4.639,4.6289,4.6205,4.6153,4.6028,4.5902,4.5902,4.625,4.6599,4.6287,4.6049,4.5902,4.5902,4.5902,4.5902,4.5902,4.5423,4.4862,4.4425,4.3355,4.2361,4.1905,4.1306,4.0888,4.0888,0.0,4.0888,4.0888,4.0888,4.0888,4.0888,4.0888,4.0888,4.0888,4.0888,4.0888,4.0888,4.0888,4.0888,4.0888,4.0888,4.0888,4.0888,4.1271,4.124,4.0728,4.0793,4.084,4.084,4.084,4.1082,4.1512,4.1383,4.1679,4.233,4.2142,4.2462,4.3088,4.3051,4.3436,4.413,4.413,4.4316,4.4587,4.4587,4.4587,4.4514,5.1049,5.1043,5.1004,5.0921,5.0906,5.0906,5.0906,5.0906,5.0906,5.0906,5.0906,5.0906,5.0906,5.0906,5.0909,5.0899,5.0846,5.0775,5.0701,5.0702,5.0702,5.0702,5.0125,4.9779,4.9642,4.89,4.8262,4.7827,4.7457,4.7102,4.6787,4.6573,4.6494,4.6513,4.6754,4.6884,4.6884,4.7144,4.7256,4.7256,4.7256,4.7256,4.7256,4.7256,4.7256,4.7256,4.7256,4.7256,4.7256,4.7117,4.7013,4.6943,4.6873,4.6746,4.6654,4.6654,4.7058,4.7498,4.7498,4.7076,4.6654,4.6654,4.6654,4.6654,4.6654,4.6209,4.5599,4.5004,4.4024,4.3107,4.25,4.194,4.1595,4.1595,4.1595,4.1595,4.1595,4.1595,4.1595,4.1595,4.1595,4.1595,4.1595,4.1595,4.1595,4.1595,4.1595,4.1595,4.1595,4.1595,4.1595,4.1595,4.2095,4.2112,4.1612,4.1595,4.1595,4.1595,4.1595,4.1871,4.2354,4.2272,4.2568,4.322,4.303,4.3297,4.3939,4.383,4.4096,4.4587,4.4587,4.4587,4.4587,4.4587,4.4587,4.4497,5.0937,5.0906,5.0906,5.0906,5.0906,5.0906,5.0906,5.0906,5.0906,5.0906,5.0906,5.0906,5.0906,5.0906,5.0909,5.0899,5.0846,5.0775,5.0701,5.0702,5.0702,5.0702,5.0702,5.0544,5.0206,5.0206,4.9499,4.8119,4.8119,4.7542,4.6513,4.6513,4.6513,4.655,4.7348,4.7701,4.7757,4.8556,4.8909,4.8909,4.8909,4.8909,4.8909,4.8909,4.8909,4.8909,4.8909,4.8909,4.8909,4.8822,4.8697,4.8605,4.8532,4.8419,4.8306,4.8306,4.8306,4.8306,4.8306,4.8306,4.8306,4.8306,4.8306,4.8306,4.8306,4.77,4.6866,4.5914,4.5053,4.4254,4.3346,4.3214,4.3214,4.3214,4.3214,4.3214,4.3214,4.3214,4.3214,4.3214,4.3214,4.3214,4.3214,4.3214,4.3214,4.3214,4.3214,4.3214,4.3214,4.3214,4.3214,4.3214,4.3232,4.3232,4.3232,4.3214,4.3214,4.3214,4.3214,4.3214,4.3232,4.3232,4.3443,4.3885,4.3902,4.4167,4.4587,4.4587,4.4587,4.4587,4.4587,4.4587,4.4587,4.4587,4.4587,4.4497,5.0906,5.0906,5.0906,5.0906,5.0906,5.0906,5.0906,5.0906,5.0906,5.0906,5.0906,5.0906,5.0906,5.0906,5.0874,5.0827,5.081,5.0757,5.0702,5.0702,5.0604,5.0358,5.0358,5.0294,5.0206,4.983,4.9426,4.902,4.8768,4.8509,4.8184,4.8184,4.8184,4.8184,4.8426,4.8537,4.8556,4.8797,4.8909,4.8909,4.8909,4.8909,4.8909,4.8909,4.8909,4.8909,4.8909,4.8874,4.8804,4.8697,4.8624,4.8532,4.8401,4.8306,4.8306,4.8306,4.8306,4.8306,4.8306,4.8306,4.8306,4.8306,4.8306,4.8306,4.8306,4.7853,4.7288,4.6668,4.5638,4.4671,4.4075,4.3577,4.3214,4.3214,4.3214,4.3214,4.3214,4.3214,4.3214,4.3214,4.3214,4.3214,4.3214,4.3214,4.3214,4.3214,4.3214,4.3214,4.3214,4.3214,4.3214,4.3214,4.3715,4.394,4.394,4.3491,4.3214,4.3214,4.3214,4.3491,4.3958,4.3752,4.4059,4.4653,4.4453,4.4478,4.4587,4.4587,4.4587,4.4587,4.4587,4.4587,4.4587,4.4587,4.4587,4.4497,5.0906,5.0906,5.0906,5.0906,5.0906,5.0906,5.0906,5.0906,5.0906,5.0906,5.0906,5.0906,5.0906,5.0909,5.0877,5.081,5.0776,5.074,5.0702,5.0702,5.0544,5.0206,5.0111,4.9968,4.9884,4.9558,4.9352,4.9193,4.8993,4.8909,4.8909,4.8909,4.8909,4.8909,4.8909,4.8909,4.8909,4.8909,4.8909,4.8909,4.8909,4.8909,4.8909,4.8909,4.8909,4.8909,4.8909,4.8839,4.8787,4.8642,4.8532,4.8419,4.8324,4.8306,4.8306,4.8306,4.8306,4.8306,4.8306,4.8306,4.8306,4.8306,4.8306,4.8306,4.8306,4.7955,4.7464,4.6999,4.6165,4.532,4.482,4.4371,4.4061,4.4061,4.4061,4.4061,4.4061,4.4061,4.4061,4.4061,4.4061,4.4061,4.4061,4.4061,4.4061,4.4061,4.4061,4.4061,4.4061,4.4061,4.4061,4.4061,4.4492,4.4734,4.4734,4.4285,4.4061,4.4061,4.4061,4.4285,4.4734,4.4524,4.4605,4.4978,4.4776,4.4626,4.4587,4.4587,4.4587,4.4587,4.4587,4.4587,4.4587,4.4587,4.4587,4.4497,5.0906,5.0906,5.0906,5.0906,5.0906,5.0906,5.0906,5.0906,5.0906,5.0906,5.0906,5.0906,5.089,5.0897,5.0863,5.0793,5.074,5.0702,5.0702,5.0702,5.0544,5.0183,4.9917,4.9665,4.9365,4.9352,4.9225,4.8909,4.8909,4.8909,4.8909,4.8909,4.8909,4.8909,4.8909,4.8909,4.8909,4.8909,4.8909,4.8909,4.8909,4.8909,4.8909,4.8909,4.8909,4.8909,4.8909,4.8839,4.8751,4.8642,4.8439,4.8306,4.8306,4.8306,4.8306,4.8306,4.8306,4.8306,4.8306,4.8306,4.8306,4.8306,4.8306,4.8306,4.8267,4.7915,4.7464,4.6954,4.6507,4.6055,4.5528,4.5423,4.5423,4.5423,4.5423,4.5423,4.5423,4.5423,4.5423,4.5423,4.5423,4.5423,4.5423,4.5423,4.5423,4.5423,4.5423,4.5423,4.5423,4.5423,4.5423,4.5423,4.5423,4.5423,4.5423,4.5423,4.5423,4.5423,4.5423,4.5423,4.5371,4.5247,4.5123,4.5032,4.4886,4.4737,4.4626,4.4626,4.4626,4.4643,4.457,4.4587,4.4587,4.4587,4.4587,4.4497,5.0906,5.0906,5.0906,5.0906,5.0906,5.0906,5.0906,5.0906,5.0906,5.0906,5.0906,5.0909,5.0897,5.0899,5.0846,5.072,5.0702,5.0702,5.0702,5.0702,5.0462,4.9891,4.983,4.955,4.9027,4.8993,4.8959,4.8909,4.8909,4.8909,4.8909,4.8909,4.8909,4.8909,4.8909,4.8909,4.8909,4.8909,4.8909,4.8909,4.8909,4.8909,4.8909,4.8909,4.8909,4.8909,4.8909,4.8785,4.8587,4.842,4.8344,4.8306,4.8306,4.8306,4.8306,4.8306,4.8306,4.8306,4.8306,4.8306,4.8306,4.8306,4.8306,4.821,4.7856,4.7674,4.736,4.6537,4.6284,4.6055,4.5528,4.5423,4.5423,4.5423,4.5423,4.5423,4.5423,4.5423,4.5423,4.5423,4.5423,4.5423,4.5423,4.5423,4.5423,4.5423,4.5423,4.5423,4.5423,4.5423,4.5423,4.5423,4.5423,4.5423,4.5423,4.5423,4.5423,4.5423,4.5423,4.5423,4.5371,4.5247,4.5177,4.514,4.5032,4.4923,4.4886,4.4776,4.4737,4.4737,4.4626,4.4587,4.4587,4.4587,4.4587,4.4497,5.0906,5.0906,5.0906,5.0906,5.0906,5.0906,5.0906,5.0906,5.0906,5.0906,5.0909,5.0897,5.0899,5.0846,5.0794,5.0721,5.0702,5.0702,5.0702,5.0544,5.0249,4.983,4.9684,4.9408,4.8909,4.8909,4.8909,4.8909,4.8909,4.8909,4.8909,4.8909,4.8909,4.8909,4.8909,4.8909,4.8909,4.8909,4.8909,4.8909,4.8909,4.8909,4.8909,4.8909,4.8909,4.8909,4.8874,4.8732,4.8513,4.8344,4.8306,4.8306,4.8306,4.8306,4.8306,4.8306,4.8306,4.8306,4.8306,4.8306,4.8306,4.8306,4.8132,4.7897,4.7674,4.7421,4.7071,4.6363,4.6005,4.5701,4.5476,4.5423,4.5423,4.5423,4.5423,4.5423,4.5423,4.5423,4.5423,4.5423,4.5423,4.5423,4.5423,4.5423,4.5423,4.5423,4.5423,4.5423,4.5423,4.5423,4.5423,4.5423,4.5423,4.5423,4.5423,4.5423,4.5423,4.5423,4.5423,4.5423,4.5371,4.5247,4.5177,4.5177,4.5086,4.4978,4.4978,4.4923,4.4886,4.4886,4.4831,4.4776,4.4776,4.4737,4.4682,4.4609,5.0906,5.0906,5.0906,5.0906,5.0906,5.0906,5.0906,5.0906,5.089,5.089,5.0897,5.0899,5.0883,5.0757,5.0683,5.0702,5.0663,5.0624,5.0624,5.0313,4.9993,4.9749,4.9529,4.9239,4.8909,4.8909,4.8909,4.8909,4.8909,4.8909,4.8909,4.8909,4.8909,4.8909,4.8909,4.8909,4.8909,4.8909,4.8909,4.8909,4.8909,4.8909,4.8909,4.8909,4.8909,4.8909,4.8857,4.8679,4.8494,4.8363,4.8306,4.8306,4.8306,4.8306,4.8306,4.8306,4.8306,4.8306,4.8306,4.8306,4.8267,4.821,4.7897,4.7548,4.7421,4.7071,4.6631,4.6186,4.5701,4.5423,4.5423,4.5423,4.5423,4.5423,4.5423,4.5423,4.5423,4.5423,4.5423,4.5423,4.5423,4.5423,4.5423,4.5423,4.5423,4.5423,4.5423,4.5423,4.5423,4.5423,4.5423,4.5423,4.5423,4.5423,4.5423,4.5423,4.5423,4.5423,4.5423,4.5423,4.5371,4.53,4.523,4.5247,4.514,4.5086,4.5086,4.5032,4.5032,4.5032,4.5032,4.4978,4.4978,4.4886,4.4831,4.4831,5.0906,5.0906,5.0906,5.0906,5.0906,5.0906,5.0906,5.0906,5.0909,5.0897,5.0899,5.0846,5.0739,5.0702,5.0702,5.0702,5.0442,5.0272,5.0272,5.0012,4.9721,4.9457,4.9427,4.9239,4.8909,4.8909,4.8909,4.8909,4.8909,4.8909,4.8909,4.8909,4.8909,4.8909,4.8909,4.8909,4.8909,4.8909,4.8909,4.8909,4.8909,4.8909,4.8909,4.8909,4.8909,4.8909,4.8909,4.875,4.8569,4.8382,4.8306,4.8306,4.8306,4.8306,4.8306,4.8306,4.8306,4.8306,4.8306,4.8306,4.821,4.7816,4.7632,4.7378,4.6584,4.6315,4.6137,4.5615,4.5476,4.5423,4.5423,4.5423,4.5423,4.5423,4.5423,4.5423,4.5423,4.5423,4.5423,4.5423,4.5423,4.5423,4.5423,4.5423,4.5423,4.5423,4.5423,4.5423,4.5423,4.5423,4.5423,4.5423,4.5423,4.5423,4.5423,4.5423,4.5423,4.5423,4.5423,4.5423,4.5423,4.5371,4.5371,4.5371,4.5371,4.5371,4.5318,4.5247,4.5177,4.5177,4.5032,4.4978,4.4978,4.4978,4.4978,4.4978,5.0906,5.0906,5.0906,5.0906,5.0906,5.0906,5.0906,5.0906,5.0909,5.0899,5.0863,5.0793,5.0701,5.0702,5.0624,5.0442,5.0294,5.0135,4.9987,4.974,4.9529,4.9415,4.9225,4.9061,4.8909,4.8909,4.8909,4.8909,4.8909,4.8909,4.8909,4.8909,4.8909,4.8909,4.8909,4.8909,4.8909,4.8909,4.8909,4.8909,4.8909,4.8909,4.8909,4.8909,4.8909,4.8909,4.8785,4.8642,4.8513,4.8344,4.8306,4.8306,4.8306,4.8306,4.8306,4.8306,4.8306,4.8306,4.8306,4.8132,4.7856,4.7632,4.7204,4.6707,4.6266,4.5955,4.5718,4.5476,4.5423,4.5423,4.5423,4.5423,4.5423,4.5423,4.5423,4.5423,4.5423,4.5423,4.5423,4.5423,4.5423,4.5423,4.5423,4.5423,4.5423,4.5423,4.5423,4.5423,4.5423,4.5423,4.5423,4.5423,4.5423,4.5423,4.5423,4.5423,4.5423,4.5423,4.5423,4.5423,4.5423,4.5423,4.5423,4.5423,4.5423,4.5423,4.5371,4.5318,4.53,4.53,4.5264,4.5194,4.514,4.514,4.514,4.5086]}]]